[[{"header":{"parameterUnit":"m.s-1","parameterCategory":1,"la1":31.0,"la2":29.5877,"lo1":-88.7671,"lo2":-86.6584,"dy":0.0162,"dx":0.0185,"nx":115,"ny":88,"refTime":"2025-03-13T18:00:00:Z","depth":0,"parameterNumber":2,"parameterNumberName":"U-component_of_WINDS"},"data":[0.0,0.0,0.0,0.0,0.0,0.0,0.0,0.0,0.0,0.0,0.0,0.0,0.0,0.0,0.0,0.0,0.0,0.0,0.0,0.0,0.0,0.0,0.0,0.0,0.0,0.0,0.0,0.0,0.0,0.0,0.0,0.0,0.0,0.0,0.0,0.0,0.0,0.0,0.0,0.0,0.0,0.0,0.0,0.0,0.0,0.0,0.0,0.0,0.0,0.0,0.0,0.0,0.0,0.0,0.0,0.0,0.0,0.0,0.0,0.0,0.0,0.0,0.0,0.0,0.0,0.0,0.0,0.0,0.0,0.0,0.0,0.0,0.0,0.0,0.0,0.0,0.0,0.0,0.0,0.0,0.0,0.0,0.0,0.0,0.0,0.0,0.0,0.0,0.0,0.0,0.0,0.0,0.0,0.0,0.0,0.0,0.0,0.0,0.0,0.0,0.0,0.0,0.0,0.0,0.0,0.0,0.0,0.0,0.0,0.0,0.0,0.0,0.0,0.0,0.0,0.0,0.0,0.0,0.0,0.0,0.0,0.0,0.0,0.0,0.0,0.0,0.0,0.0,0.0,0.0,0.0,0.0,0.0,0.0,0.0,0.0,0.0,0.0,0.0,0.0,0.0,0.0,0.0,0.0,0.0,0.0,0.0,0.0,0.0,0.0,0.0,0.0,0.0,0.0,0.0,0.0,0.0,0.0,0.0,0.0,0.0,0.0,0.0,0.0,0.0,0.0,0.0,0.0,0.0,0.0,0.0,0.0,0.0,0.0,0.0,0.0,0.0,0.0,0.0,0.0,0.0,0.0,0.0,0.0,0.0,0.0,0.0,0.0,0.0,0.0,0.0,0.0,0.0,0.0,0.0,0.0,0.0,0.0,0.0,0.0,0.0,0.0,0.0,0.0,0.0,0.0,0.0,0.0,0.0,0.0,0.0,0.0,0.0,0.0,0.0,0.0,0.0,0.0,0.0,0.0,0.0,0.0,0.0,0.0,0.0,0.0,0.0,0.0,0.0,0.0,0.0,0.0,0.0,0.0,0.0,0.0,0.0,0.0,0.0,0.0,0.0,0.0,0.0,0.0,0.0,0.0,0.0,0.0,0.0,0.0,0.0,0.0,0.0,0.0,0.0,0.0,0.0,0.0,0.0,0.0,0.0,0.0,0.0,0.0,0.0,0.0,0.0,0.0,0.0,0.0,0.0,0.0,0.0,0.0,0.0,0.0,0.0,0.0,0.0,0.0,0.0,0.0,0.0,0.0,0.0,0.0,0.0,0.0,0.0,0.0,0.0,0.0,0.0,0.0,0.0,0.0,0.0,0.0,0.0,0.0,0.0,0.0,0.0,0.0,0.0,0.0,0.0,0.0,0.0,0.0,0.0,0.0,0.0,0.0,0.0,0.0,0.0,0.0,0.0,0.0,0.0,0.0,0.0,0.0,0.0,0.0,0.0,0.0,0.0,0.0,0.0,0.0,0.0,0.0,0.0,0.0,0.0,0.0,0.0,0.0,0.0,0.0,0.0,0.0,0.0,0.0,0.0,0.0,0.0,0.0,0.0,0.0,0.0,0.0,0.0,0.0,0.0,0.0,0.0,0.0,0.0,0.0,0.0,0.0,0.0,0.0,0.0,0.0,0.0,0.0,0.0,0.0,0.0,0.0,0.0,0.0,0.0,0.0,0.0,0.0,0.0,0.0,0.0,0.0,0.0,0.0,0.0,0.0,0.0,0.0,0.0,0.0,0.0,0.0,0.0,0.0,0.0,0.0,0.0,0.0,0.0,0.0,0.0,0.0,0.0,0.0,0.0,0.0,0.0,0.0,0.0,0.0,0.0,0.0,0.0,0.0,0.0,0.0,0.0,0.0,0.0,0.0,0.0,0.0,0.0,0.0,0.0,0.0,0.0,0.0,0.0,0.0,0.0,0.0,0.0,0.0,0.0,0.0,0.0,0.0,0.0,0.0,0.0,0.0,0.0,0.0,0.0,0.0,0.0,0.0,0.0,0.0,0.0,0.0,0.0,0.0,0.0,0.0,0.0,0.0,0.0,0.0,0.0,0.0,0.0,0.0,0.0,0.0,0.0,0.0,0.0,0.0,0.0,0.0,0.0,0.0,0.0,0.0,0.0,0.0,0.0,0.0,0.0,0.0,0.0,0.0,0.0,0.0,0.0,0.0,0.0,0.0,0.0,0.0,0.0,0.0,0.0,0.0,0.0,0.0,0.0,0.0,0.0,0.0,0.0,0.0,0.0,0.0,0.0,0.0,0.0,0.0,0.0,0.0,0.0,0.0,0.0,0.0,0.0,0.0,0.0,0.0,0.0,0.0,0.0,0.0,0.0,0.0,0.0,0.0,0.0,0.0,0.0,0.0,0.0,0.0,0.0,0.0,0.0,0.0,0.0,0.0,0.0,0.0,0.0,0.0,0.0,0.0,0.0,0.0,0.0,0.0,0.0,0.0,0.0,0.0,0.0,0.0,0.0,0.0,0.0,0.0,0.0,0.0,0.0,0.0,0.0,0.0,0.0,0.0,0.0,0.0,0.0,0.0,0.0,0.0,0.0,0.0,0.0,0.0,0.0,0.0,0.0,0.0,0.0,0.0,0.0,0.0,0.0,0.0,0.0,0.0,0.0,0.0,0.0,0.0,0.0,0.0,0.0,0.0,0.0,0.0,0.0,0.0,0.0,0.0,0.0,0.0,0.0,0.0,0.0,0.0,0.0,0.0,0.0,0.0,0.0,0.0,0.0,0.0,0.0,0.0,0.0,0.0,0.0,0.0,0.0,0.0,0.0,0.0,0.0,0.0,0.0,0.0,0.0,0.0,0.0,0.0,0.0,0.0,0.0,0.0,0.0,0.0,0.0,0.0,0.0,0.0,0.0,0.0,0.0,0.0,0.0,0.0,0.0,0.0,0.0,0.0,0.0,0.0,0.0,0.0,0.0,0.0,0.0,0.0,0.0,0.0,0.0,0.0,0.0,0.0,0.0,0.0,0.0,0.0,0.0,0.0,0.0,0.0,0.0,0.0,0.0,0.0,0.0,0.0,0.0,0.0,0.0,0.0,0.0,0.0,0.0,0.0,0.0,0.0,0.0,0.0,0.0,0.0,0.0,0.0,0.0,0.0,0.0,0.0,0.0,0.0,0.0,0.0,0.0,0.0,0.0,0.0,0.0,0.0,0.0,0.0,0.0,0.0,0.0,0.0,0.0,0.0,0.0,0.0,0.0,0.0,0.0,0.0,0.0,0.0,0.0,0.0,0.0,0.0,0.0,0.0,0.0,0.0,0.0,0.0,0.0,0.0,0.0,0.0,0.0,0.0,0.0,0.0,0.0,0.0,0.0,0.0,0.0,0.0,0.0,0.0,0.0,0.0,0.0,0.0,0.0,0.0,0.0,0.0,0.0,0.0,0.0,0.0,0.0,0.0,0.0,0.0,0.0,0.0,0.0,0.0,0.0,0.0,0.0,0.0,0.0,0.0,0.0,0.0,0.0,0.0,0.0,0.0,0.0,0.0,0.0,0.0,0.0,0.0,0.0,0.0,0.0,0.0,0.0,0.0,0.0,0.0,0.0,0.0,0.0,0.0,0.0,0.0,0.0,0.0,0.0,0.0,0.0,0.0,0.0,0.0,0.0,0.0,0.0,0.0,0.0,0.0,0.0,0.0,0.0,0.0,0.0,0.0,0.0,0.0,0.0,0.0,0.0,0.0,0.0,0.0,0.0,0.0,0.0,0.0,0.0,0.0,0.0,0.0,0.0,0.0,0.0,0.0,0.0,0.0,0.0,0.0,0.0,0.0,0.0,0.0,0.0,0.0,0.0,0.0,0.0,0.0,0.0,0.0,0.0,0.0,0.0,0.0,0.0,0.0,0.0,0.0,0.0,0.0,0.0,0.0,0.0,0.0,0.0,0.0,0.0,0.0,0.0,0.0,0.0,0.0,0.0,0.0,0.0,0.0,0.0,0.0,0.0,0.0,0.0,0.0,0.0,0.0,0.0,0.0,0.0,0.0,0.0,0.0,0.0,0.0,0.0,0.0,0.0,0.0,0.0,0.0,0.0,0.0,0.0,0.0,0.0,0.0,0.0,0.0,0.0,0.0,0.0,0.0,0.0,0.0,0.0,0.0,0.0,0.0,0.0,0.0,0.0,0.0,0.0,0.0,0.0,0.0,0.0,0.0,0.0,0.0,0.0,0.0,0.0,0.0,0.0,0.0,0.0,0.0,0.0,0.0,0.0,0.0,0.0,0.0,0.0,0.0,0.0,0.0,0.0,0.0,0.0,0.0,-6.9258,0.0,0.0,0.0,0.0,0.0,0.0,0.0,0.0,0.0,0.0,0.0,0.0,0.0,0.0,0.0,0.0,0.0,0.0,0.0,0.0,0.0,0.0,0.0,0.0,0.0,0.0,0.0,0.0,0.0,0.0,0.0,0.0,0.0,0.0,0.0,0.0,0.0,0.0,0.0,0.0,0.0,0.0,0.0,0.0,0.0,0.0,0.0,0.0,0.0,0.0,0.0,0.0,0.0,0.0,0.0,0.0,0.0,0.0,0.0,0.0,0.0,0.0,0.0,0.0,0.0,0.0,0.0,0.0,0.0,0.0,0.0,0.0,0.0,0.0,0.0,0.0,0.0,0.0,0.0,0.0,0.0,0.0,0.0,0.0,0.0,0.0,0.0,0.0,0.0,0.0,0.0,0.0,0.0,0.0,0.0,0.0,0.0,0.0,0.0,0.0,0.0,0.0,0.0,0.0,0.0,0.0,0.0,0.0,0.0,0.0,-7.177,-7.1855,-7.0255,-6.9411,-6.9375,0.0,0.0,0.0,0.0,0.0,0.0,0.0,0.0,0.0,0.0,0.0,0.0,0.0,0.0,0.0,0.0,0.0,0.0,0.0,0.0,0.0,0.0,0.0,0.0,0.0,0.0,0.0,0.0,0.0,0.0,0.0,0.0,0.0,0.0,0.0,0.0,0.0,0.0,0.0,0.0,0.0,0.0,0.0,0.0,0.0,0.0,0.0,0.0,0.0,0.0,0.0,0.0,0.0,0.0,0.0,0.0,0.0,0.0,0.0,0.0,0.0,0.0,0.0,0.0,0.0,0.0,0.0,0.0,0.0,0.0,0.0,0.0,0.0,0.0,0.0,0.0,0.0,0.0,0.0,0.0,0.0,0.0,0.0,0.0,0.0,0.0,0.0,0.0,0.0,0.0,0.0,0.0,0.0,0.0,0.0,0.0,0.0,0.0,0.0,0.0,0.0,0.0,0.0,0.0,0.0,0.0,0.0,0.0,0.0,0.0,0.0,0.0,-7.0282,-6.9015,-6.8203,0.0,0.0,0.0,0.0,0.0,0.0,0.0,0.0,0.0,0.0,0.0,0.0,0.0,0.0,0.0,0.0,0.0,0.0,0.0,0.0,0.0,0.0,0.0,0.0,0.0,0.0,0.0,0.0,0.0,0.0,0.0,0.0,0.0,0.0,0.0,0.0,0.0,0.0,0.0,0.0,0.0,0.0,0.0,0.0,0.0,0.0,0.0,0.0,0.0,0.0,0.0,0.0,0.0,0.0,0.0,0.0,0.0,0.0,0.0,0.0,0.0,0.0,0.0,0.0,0.0,0.0,0.0,0.0,0.0,0.0,0.0,0.0,0.0,0.0,0.0,0.0,0.0,0.0,0.0,0.0,0.0,0.0,0.0,0.0,0.0,0.0,0.0,0.0,0.0,0.0,0.0,0.0,0.0,0.0,0.0,0.0,0.0,0.0,0.0,0.0,0.0,0.0,0.0,0.0,0.0,0.0,0.0,0.0,0.0,0.0,-7.168,-7.1854,-7.0267,0.0,-6.4997,0.0,0.0,0.0,0.0,0.0,0.0,0.0,0.0,0.0,0.0,0.0,0.0,0.0,0.0,0.0,0.0,0.0,0.0,0.0,0.0,0.0,0.0,0.0,0.0,0.0,0.0,0.0,0.0,0.0,0.0,0.0,0.0,0.0,0.0,0.0,0.0,0.0,0.0,0.0,0.0,0.0,0.0,0.0,0.0,0.0,0.0,0.0,0.0,0.0,0.0,0.0,0.0,0.0,0.0,0.0,0.0,0.0,0.0,0.0,0.0,0.0,0.0,0.0,0.0,0.0,0.0,0.0,0.0,0.0,0.0,0.0,0.0,0.0,0.0,0.0,0.0,0.0,0.0,0.0,0.0,0.0,0.0,0.0,0.0,0.0,0.0,0.0,0.0,0.0,0.0,0.0,0.0,0.0,0.0,0.0,0.0,0.0,0.0,0.0,0.0,0.0,0.0,0.0,0.0,0.0,0.0,0.0,0.0,0.0,0.0,-7.0661,-7.0328,-6.926,-6.7297,0.0,0.0,0.0,0.0,0.0,0.0,0.0,0.0,0.0,0.0,0.0,0.0,0.0,0.0,0.0,0.0,0.0,0.0,0.0,0.0,0.0,0.0,0.0,0.0,0.0,0.0,0.0,0.0,0.0,0.0,0.0,0.0,0.0,0.0,0.0,0.0,0.0,0.0,0.0,0.0,0.0,0.0,0.0,0.0,0.0,0.0,0.0,0.0,0.0,0.0,0.0,0.0,0.0,0.0,0.0,0.0,0.0,0.0,0.0,0.0,0.0,0.0,0.0,0.0,0.0,0.0,0.0,0.0,0.0,0.0,0.0,0.0,0.0,0.0,0.0,0.0,0.0,0.0,0.0,0.0,0.0,0.0,0.0,0.0,0.0,0.0,0.0,0.0,0.0,0.0,0.0,0.0,0.0,0.0,0.0,0.0,0.0,0.0,0.0,0.0,0.0,0.0,0.0,0.0,0.0,0.0,0.0,0.0,0.0,0.0,-6.9362,-6.9575,-6.8885,-6.8212,-6.6713,-6.4365,0.0,0.0,0.0,0.0,0.0,0.0,0.0,0.0,0.0,0.0,0.0,0.0,0.0,0.0,0.0,0.0,0.0,0.0,0.0,0.0,0.0,0.0,0.0,0.0,0.0,0.0,0.0,0.0,0.0,0.0,0.0,0.0,0.0,0.0,0.0,0.0,0.0,0.0,0.0,0.0,0.0,0.0,0.0,0.0,0.0,0.0,0.0,0.0,0.0,0.0,0.0,0.0,0.0,0.0,0.0,0.0,0.0,0.0,0.0,0.0,0.0,0.0,0.0,0.0,0.0,0.0,0.0,0.0,0.0,0.0,0.0,0.0,0.0,0.0,0.0,0.0,0.0,0.0,0.0,0.0,0.0,0.0,0.0,0.0,0.0,0.0,0.0,0.0,0.0,0.0,0.0,0.0,0.0,0.0,0.0,0.0,0.0,0.0,0.0,0.0,0.0,0.0,0.0,0.0,0.0,0.0,0.0,0.0,0.0,-6.8443,-6.8667,-6.8085,-6.7319,-6.6123,0.0,0.0,0.0,0.0,0.0,0.0,0.0,0.0,0.0,0.0,0.0,0.0,0.0,0.0,0.0,0.0,0.0,0.0,0.0,0.0,0.0,0.0,0.0,0.0,0.0,0.0,0.0,0.0,0.0,0.0,0.0,0.0,0.0,0.0,0.0,0.0,0.0,0.0,0.0,0.0,0.0,0.0,0.0,0.0,0.0,0.0,0.0,0.0,0.0,0.0,0.0,0.0,0.0,0.0,0.0,0.0,0.0,0.0,0.0,0.0,0.0,0.0,0.0,0.0,0.0,0.0,0.0,0.0,0.0,0.0,0.0,0.0,0.0,0.0,0.0,0.0,0.0,0.0,0.0,0.0,0.0,0.0,0.0,0.0,0.0,0.0,0.0,0.0,0.0,0.0,0.0,0.0,0.0,0.0,0.0,0.0,0.0,0.0,0.0,0.0,0.0,0.0,0.0,0.0,0.0,0.0,0.0,0.0,0.0,-6.6503,-6.7028,-6.7521,-6.7859,-6.667,-6.5444,0.0,0.0,0.0,0.0,0.0,0.0,0.0,0.0,0.0,0.0,0.0,0.0,0.0,0.0,0.0,0.0,0.0,0.0,0.0,0.0,0.0,0.0,0.0,0.0,0.0,0.0,0.0,0.0,0.0,0.0,0.0,0.0,0.0,0.0,0.0,0.0,0.0,0.0,0.0,0.0,0.0,0.0,0.0,0.0,0.0,0.0,0.0,0.0,0.0,0.0,0.0,0.0,0.0,0.0,0.0,0.0,0.0,0.0,0.0,0.0,0.0,0.0,0.0,0.0,0.0,0.0,0.0,0.0,0.0,0.0,0.0,0.0,0.0,0.0,0.0,0.0,0.0,0.0,0.0,0.0,0.0,0.0,0.0,0.0,0.0,0.0,0.0,0.0,0.0,0.0,0.0,0.0,0.0,0.0,0.0,0.0,0.0,0.0,0.0,0.0,0.0,0.0,0.0,0.0,0.0,0.0,0.0,0.0,0.0,-6.6029,0.0,-6.662,-6.6966,-6.5783,-6.457,0.0,0.0,0.0,0.0,0.0,0.0,0.0,0.0,0.0,0.0,0.0,0.0,0.0,0.0,0.0,0.0,0.0,0.0,0.0,0.0,0.0,0.0,0.0,0.0,0.0,0.0,0.0,0.0,0.0,0.0,0.0,0.0,0.0,0.0,0.0,0.0,0.0,0.0,0.0,0.0,0.0,0.0,0.0,0.0,0.0,0.0,0.0,0.0,0.0,0.0,0.0,0.0,0.0,0.0,0.0,0.0,0.0,0.0,0.0,0.0,0.0,0.0,0.0,0.0,0.0,0.0,0.0,0.0,0.0,0.0,0.0,0.0,0.0,0.0,0.0,0.0,0.0,0.0,0.0,0.0,0.0,0.0,0.0,0.0,0.0,0.0,0.0,0.0,0.0,0.0,0.0,0.0,0.0,0.0,0.0,0.0,0.0,0.0,0.0,0.0,0.0,0.0,0.0,0.0,0.0,0.0,0.0,0.0,-6.506,-6.6014,-6.6301,-6.6104,-6.5338,-6.4665,-6.3458,0.0,0.0,0.0,0.0,0.0,0.0,0.0,0.0,0.0,0.0,0.0,0.0,0.0,0.0,0.0,0.0,0.0,0.0,0.0,0.0,0.0,0.0,0.0,0.0,0.0,0.0,0.0,0.0,0.0,0.0,0.0,0.0,0.0,0.0,0.0,0.0,0.0,0.0,0.0,0.0,0.0,0.0,0.0,0.0,0.0,0.0,0.0,0.0,0.0,0.0,0.0,0.0,0.0,0.0,0.0,0.0,0.0,0.0,0.0,0.0,0.0,0.0,0.0,0.0,0.0,0.0,0.0,0.0,0.0,0.0,0.0,0.0,0.0,0.0,0.0,0.0,0.0,0.0,0.0,0.0,0.0,0.0,0.0,0.0,0.0,0.0,0.0,0.0,0.0,0.0,0.0,0.0,0.0,0.0,0.0,0.0,0.0,0.0,0.0,0.0,0.0,0.0,0.0,0.0,0.0,0.0,0.0,0.0,0.0,-6.513,-6.5894,-6.62,-6.603,-6.4805,-6.39,0.0,0.0,0.0,0.0,0.0,0.0,0.0,0.0,0.0,0.0,0.0,0.0,0.0,0.0,0.0,0.0,0.0,0.0,0.0,0.0,0.0,0.0,0.0,0.0,0.0,0.0,0.0,0.0,0.0,0.0,0.0,0.0,0.0,0.0,0.0,0.0,0.0,0.0,0.0,0.0,0.0,0.0,0.0,0.0,0.0,0.0,0.0,0.0,0.0,0.0,0.0,0.0,0.0,0.0,0.0,0.0,0.0,0.0,0.0,0.0,0.0,0.0,0.0,0.0,0.0,0.0,0.0,0.0,0.0,0.0,0.0,0.0,0.0,0.0,0.0,0.0,0.0,0.0,0.0,0.0,0.0,0.0,0.0,0.0,0.0,0.0,0.0,0.0,0.0,0.0,0.0,0.0,0.0,0.0,0.0,0.0,0.0,0.0,0.0,0.0,0.0,0.0,0.0,0.0,0.0,0.0,0.0,0.0,0.0,-6.5127,-6.6135,-6.6564,-6.64,-6.5142,-6.4099,-6.3193,0.0,0.0,0.0,0.0,0.0,0.0,0.0,0.0,0.0,0.0,0.0,0.0,0.0,0.0,0.0,0.0,0.0,0.0,0.0,0.0,0.0,0.0,0.0,0.0,0.0,0.0,0.0,0.0,0.0,0.0,0.0,0.0,0.0,0.0,0.0,0.0,0.0,0.0,0.0,0.0,0.0,0.0,0.0,0.0,0.0,0.0,0.0,0.0,0.0,0.0,0.0,0.0,0.0,0.0,0.0,0.0,0.0,0.0,0.0,0.0,0.0,0.0,0.0,0.0,0.0,0.0,0.0,0.0,0.0,0.0,0.0,0.0,0.0,0.0,0.0,0.0,0.0,0.0,0.0,0.0,0.0,0.0,0.0,0.0,0.0,0.0,0.0,0.0,0.0,0.0,0.0,0.0,0.0,0.0,0.0,0.0,0.0,0.0,0.0,0.0,0.0,0.0,0.0,0.0,0.0,0.0,0.0,0.0,-6.5972,-6.6996,-6.7152,-6.6373,-6.5646,-6.4131,0.0,0.0,0.0,0.0,0.0,0.0,0.0,0.0,0.0,0.0,0.0,0.0,0.0,0.0,0.0,0.0,0.0,0.0,0.0,0.0,0.0,0.0,0.0,0.0,0.0,0.0,0.0,0.0,0.0,0.0,0.0,0.0,0.0,0.0,0.0,0.0,0.0,0.0,0.0,0.0,0.0,0.0,0.0,0.0,0.0,0.0,0.0,0.0,0.0,0.0,0.0,0.0,0.0,0.0,0.0,0.0,0.0,0.0,0.0,0.0,0.0,0.0,0.0,0.0,0.0,0.0,0.0,0.0,0.0,0.0,0.0,0.0,0.0,0.0,0.0,0.0,0.0,0.0,0.0,0.0,0.0,0.0,0.0,0.0,0.0,0.0,0.0,0.0,0.0,0.0,0.0,0.0,0.0,0.0,0.0,0.0,0.0,0.0,0.0,0.0,0.0,0.0,0.0,0.0,0.0,0.0,0.0,0.0,0.0,-6.8135,-6.8754,-6.8444,-6.7164,-6.637,-6.5101,0.0,0.0,0.0,0.0,0.0,0.0,0.0,0.0,0.0,0.0,0.0,0.0,0.0,0.0,0.0,0.0,0.0,0.0,0.0,0.0,0.0,0.0,0.0,0.0,0.0,0.0,0.0,0.0,0.0,0.0,0.0,0.0,0.0,0.0,0.0,0.0,0.0,0.0,0.0,0.0,0.0,0.0,0.0,0.0,0.0,0.0,0.0,0.0,0.0,0.0,0.0,0.0,0.0,0.0,0.0,0.0,0.0,0.0,0.0,0.0,0.0,0.0,0.0,0.0,0.0,0.0,0.0,0.0,0.0,0.0,0.0,0.0,0.0,0.0,0.0,0.0,0.0,0.0,0.0,0.0,0.0,0.0,0.0,0.0,0.0,0.0,0.0,0.0,0.0,0.0,0.0,0.0,0.0,0.0,0.0,0.0,0.0,0.0,0.0,0.0,0.0,0.0,0.0,0.0,0.0,0.0,0.0,0.0,-6.6026,-6.8362,-6.9414,-6.9407,-6.8304,-6.7233,-6.5964,0.0,0.0,0.0,0.0,0.0,0.0,0.0,0.0,0.0,0.0,0.0,0.0,0.0,0.0,0.0,0.0,0.0,0.0,0.0,0.0,0.0,0.0,0.0,0.0,0.0,0.0,0.0,0.0,0.0,0.0,0.0,0.0,0.0,0.0,0.0,0.0,0.0,0.0,0.0,0.0,0.0,0.0,0.0,0.0,0.0,0.0,0.0,0.0,0.0,0.0,0.0,0.0,0.0,0.0,0.0,0.0,0.0,0.0,0.0,0.0,0.0,0.0,0.0,0.0,0.0,0.0,0.0,0.0,0.0,0.0,0.0,0.0,0.0,0.0,0.0,0.0,0.0,0.0,0.0,0.0,0.0,0.0,0.0,0.0,0.0,0.0,0.0,0.0,0.0,0.0,0.0,0.0,0.0,0.0,0.0,0.0,0.0,0.0,0.0,0.0,0.0,0.0,0.0,0.0,0.0,0.0,0.0,0.0,-6.6462,-6.7556,-6.9396,-7.0155,-6.9692,-6.8282,-6.6681,0.0,0.0,0.0,0.0,0.0,0.0,0.0,0.0,0.0,0.0,0.0,0.0,0.0,0.0,0.0,0.0,0.0,0.0,0.0,0.0,0.0,0.0,0.0,0.0,0.0,0.0,0.0,0.0,0.0,0.0,0.0,0.0,0.0,0.0,0.0,0.0,0.0,0.0,0.0,0.0,0.0,0.0,0.0,0.0,0.0,0.0,0.0,0.0,0.0,0.0,0.0,0.0,0.0,0.0,0.0,0.0,0.0,0.0,0.0,0.0,0.0,0.0,0.0,0.0,0.0,0.0,0.0,0.0,0.0,0.0,0.0,0.0,0.0,0.0,0.0,0.0,0.0,0.0,0.0,0.0,0.0,0.0,0.0,0.0,0.0,0.0,0.0,0.0,0.0,0.0,0.0,0.0,0.0,0.0,0.0,0.0,0.0,0.0,0.0,0.0,0.0,0.0,0.0,0.0,0.0,0.0,0.0,0.0,-6.6345,-6.7854,-6.9266,-7.0352,-7.1052,-6.9198,-6.7126,0.0,0.0,0.0,0.0,0.0,0.0,0.0,0.0,0.0,0.0,0.0,0.0,0.0,0.0,0.0,0.0,0.0,0.0,0.0,0.0,0.0,0.0,0.0,0.0,0.0,0.0,0.0,0.0,0.0,0.0,0.0,0.0,0.0,0.0,0.0,0.0,0.0,0.0,0.0,0.0,0.0,0.0,0.0,0.0,0.0,0.0,0.0,0.0,-6.0781,0.0,0.0,0.0,0.0,0.0,0.0,0.0,0.0,0.0,0.0,0.0,0.0,0.0,0.0,0.0,0.0,0.0,0.0,0.0,0.0,0.0,0.0,0.0,0.0,0.0,0.0,0.0,0.0,0.0,0.0,0.0,0.0,0.0,0.0,0.0,0.0,0.0,0.0,0.0,0.0,0.0,0.0,0.0,0.0,0.0,0.0,0.0,0.0,0.0,0.0,0.0,0.0,0.0,0.0,0.0,0.0,0.0,0.0,0.0,-6.641,-6.7695,-6.8909,-6.974,-7.0126,-6.8855,-6.7226,0.0,0.0,0.0,0.0,0.0,0.0,0.0,0.0,0.0,0.0,0.0,0.0,0.0,0.0,0.0,0.0,0.0,0.0,0.0,0.0,0.0,0.0,0.0,0.0,0.0,0.0,0.0,0.0,0.0,0.0,0.0,0.0,0.0,0.0,0.0,0.0,0.0,0.0,0.0,0.0,0.0,0.0,0.0,0.0,0.0,0.0,0.0,0.0,0.0,0.0,0.0,0.0,0.0,0.0,0.0,0.0,0.0,0.0,0.0,0.0,0.0,0.0,0.0,0.0,0.0,0.0,0.0,0.0,0.0,0.0,0.0,0.0,0.0,0.0,0.0,0.0,0.0,0.0,0.0,0.0,0.0,0.0,0.0,0.0,0.0,0.0,0.0,0.0,0.0,0.0,0.0,0.0,0.0,0.0,0.0,0.0,0.0,0.0,0.0,0.0,0.0,0.0,0.0,0.0,0.0,0.0,0.0,-6.4753,-6.6388,-6.7323,-6.8436,-6.8884,-6.8583,-6.8088,-6.7087,-6.5482,0.0,0.0,0.0,0.0,0.0,0.0,0.0,0.0,0.0,0.0,0.0,0.0,0.0,0.0,0.0,0.0,0.0,0.0,0.0,0.0,0.0,0.0,0.0,0.0,0.0,0.0,0.0,0.0,0.0,0.0,0.0,0.0,0.0,0.0,0.0,0.0,0.0,0.0,-5.9738,-6.1018,0.0,0.0,0.0,0.0,0.0,0.0,0.0,0.0,-6.1553,0.0,0.0,0.0,0.0,0.0,0.0,0.0,0.0,0.0,0.0,0.0,0.0,0.0,0.0,0.0,0.0,0.0,0.0,0.0,0.0,0.0,0.0,0.0,0.0,0.0,0.0,0.0,0.0,0.0,0.0,0.0,0.0,0.0,0.0,0.0,0.0,0.0,0.0,0.0,0.0,0.0,0.0,0.0,0.0,0.0,0.0,0.0,0.0,0.0,0.0,0.0,0.0,0.0,0.0,0.0,0.0,-6.2339,-6.4638,-6.6173,-6.6976,-6.8081,-6.8474,-6.8053,-6.7694,-6.6493,-6.4375,0.0,0.0,0.0,0.0,0.0,0.0,0.0,0.0,0.0,0.0,0.0,0.0,0.0,0.0,0.0,0.0,0.0,0.0,0.0,0.0,0.0,0.0,0.0,0.0,0.0,0.0,0.0,0.0,0.0,0.0,0.0,0.0,0.0,0.0,0.0,0.0,0.0,0.0,0.0,-6.2271,-6.3168,0.0,0.0,0.0,0.0,0.0,0.0,0.0,0.0,-6.1812,0.0,0.0,0.0,0.0,0.0,0.0,0.0,0.0,0.0,0.0,0.0,0.0,0.0,0.0,0.0,0.0,0.0,0.0,0.0,0.0,0.0,0.0,0.0,0.0,0.0,0.0,0.0,0.0,0.0,0.0,0.0,0.0,0.0,0.0,0.0,0.0,0.0,0.0,0.0,0.0,0.0,0.0,0.0,0.0,0.0,0.0,0.0,0.0,0.0,0.0,0.0,0.0,0.0,0.0,0.0,-6.2911,-6.4742,-6.6285,-6.7366,-6.763,-6.7556,-6.7058,-6.6332,-6.49,0.0,0.0,0.0,0.0,0.0,0.0,0.0,0.0,0.0,0.0,0.0,0.0,0.0,0.0,0.0,0.0,0.0,0.0,0.0,0.0,0.0,0.0,0.0,0.0,0.0,0.0,0.0,0.0,0.0,0.0,0.0,0.0,0.0,0.0,0.0,0.0,0.0,0.0,0.0,0.0,-6.2798,-6.3736,-6.2832,0.0,0.0,0.0,0.0,0.0,0.0,-6.2542,-6.2548,0.0,0.0,0.0,0.0,0.0,0.0,0.0,0.0,0.0,0.0,0.0,0.0,0.0,0.0,0.0,0.0,0.0,0.0,0.0,0.0,0.0,0.0,0.0,0.0,0.0,0.0,0.0,0.0,0.0,0.0,0.0,0.0,0.0,0.0,0.0,0.0,0.0,0.0,0.0,0.0,0.0,0.0,0.0,0.0,0.0,0.0,0.0,0.0,0.0,0.0,0.0,0.0,0.0,0.0,0.0,-6.3445,-6.4879,-6.6234,-6.7531,-6.7183,-6.6603,-6.594,-6.4943,-6.3423,0.0,0.0,0.0,0.0,0.0,0.0,0.0,0.0,0.0,0.0,0.0,0.0,0.0,0.0,0.0,0.0,0.0,0.0,0.0,0.0,0.0,0.0,0.0,0.0,0.0,0.0,0.0,0.0,0.0,0.0,0.0,0.0,0.0,0.0,0.0,0.0,0.0,0.0,0.0,0.0,0.0,-6.382,-6.3007,-6.3472,0.0,0.0,0.0,0.0,-6.2648,-6.3154,0.0,0.0,0.0,0.0,0.0,0.0,0.0,0.0,0.0,0.0,0.0,0.0,0.0,0.0,0.0,0.0,0.0,0.0,0.0,0.0,0.0,0.0,0.0,0.0,0.0,0.0,0.0,0.0,0.0,0.0,0.0,0.0,0.0,0.0,0.0,0.0,0.0,0.0,0.0,0.0,0.0,0.0,0.0,0.0,0.0,0.0,0.0,0.0,0.0,0.0,0.0,0.0,0.0,0.0,0.0,0.0,-6.3408,-6.4879,-6.595,-6.6639,-6.6695,-6.6074,-6.467,-6.4212,-6.2946,0.0,0.0,0.0,0.0,0.0,0.0,0.0,0.0,0.0,0.0,0.0,0.0,0.0,0.0,0.0,0.0,0.0,0.0,0.0,0.0,0.0,0.0,0.0,0.0,0.0,0.0,0.0,0.0,0.0,0.0,0.0,0.0,0.0,0.0,0.0,0.0,0.0,0.0,0.0,0.0,0.0,-6.3407,-6.4068,-6.3836,-6.352,0.0,0.0,-6.2873,-6.278,-6.2992,0.0,0.0,0.0,0.0,0.0,0.0,0.0,0.0,0.0,0.0,0.0,0.0,0.0,0.0,0.0,0.0,0.0,0.0,0.0,0.0,0.0,0.0,0.0,0.0,0.0,0.0,0.0,0.0,0.0,0.0,0.0,0.0,0.0,0.0,0.0,0.0,0.0,0.0,0.0,0.0,0.0,0.0,0.0,0.0,0.0,0.0,0.0,0.0,0.0,0.0,0.0,0.0,0.0,0.0,0.0,-5.9734,-6.2072,-6.3955,-6.5188,-6.5778,-6.5467,-6.4979,-6.4291,-6.3082,-6.1541,0.0,0.0,0.0,0.0,0.0,0.0,0.0,0.0,0.0,0.0,0.0,0.0,0.0,0.0,0.0,0.0,0.0,0.0,0.0,0.0,0.0,0.0,0.0,0.0,0.0,0.0,0.0,0.0,0.0,0.0,0.0,0.0,0.0,0.0,0.0,0.0,0.0,0.0,0.0,0.0,0.0,0.0,-6.423,-6.4869,0.0,0.0,0.0,-6.4555,-6.4584,0.0,0.0,0.0,0.0,0.0,0.0,0.0,0.0,0.0,0.0,0.0,0.0,0.0,0.0,0.0,0.0,0.0,0.0,0.0,0.0,0.0,0.0,0.0,0.0,0.0,0.0,0.0,0.0,0.0,0.0,0.0,0.0,0.0,0.0,0.0,0.0,0.0,0.0,0.0,0.0,0.0,0.0,0.0,0.0,0.0,0.0,0.0,0.0,0.0,0.0,0.0,0.0,0.0,0.0,0.0,0.0,0.0,-6.1069,-6.3043,-6.4353,-6.4934,-6.446,-6.4069,-6.3836,-6.2077,0.0,0.0,0.0,0.0,0.0,0.0,0.0,0.0,0.0,0.0,0.0,0.0,0.0,0.0,0.0,0.0,0.0,0.0,0.0,0.0,0.0,0.0,0.0,0.0,0.0,0.0,0.0,-5.1587,0.0,0.0,0.0,0.0,0.0,0.0,0.0,0.0,0.0,0.0,0.0,0.0,0.0,0.0,-6.3932,-6.44,-6.5713,-6.6489,0.0,0.0,-6.5632,-6.5544,-6.4887,-6.3822,0.0,0.0,0.0,0.0,0.0,0.0,0.0,0.0,0.0,0.0,0.0,0.0,0.0,0.0,0.0,0.0,0.0,0.0,0.0,0.0,0.0,0.0,0.0,0.0,0.0,0.0,0.0,0.0,0.0,0.0,0.0,0.0,0.0,0.0,0.0,0.0,0.0,0.0,0.0,0.0,0.0,0.0,0.0,0.0,0.0,0.0,0.0,0.0,0.0,0.0,0.0,0.0,0.0,0.0,0.0,-6.1032,-6.2419,-6.3432,-6.4152,-6.4115,-6.3711,-6.2879,-6.1445,-6.0018,0.0,0.0,0.0,0.0,0.0,0.0,0.0,0.0,0.0,0.0,0.0,0.0,0.0,0.0,0.0,0.0,0.0,0.0,0.0,0.0,0.0,0.0,0.0,0.0,0.0,0.0,0.0,0.0,0.0,0.0,0.0,0.0,0.0,0.0,0.0,0.0,0.0,0.0,0.0,0.0,0.0,-6.3466,-6.5007,-6.5962,-6.6502,0.0,-6.5804,-6.5096,-6.4386,-6.364,-6.2548,-6.0987,0.0,0.0,0.0,0.0,0.0,0.0,0.0,0.0,0.0,0.0,0.0,0.0,0.0,0.0,0.0,0.0,0.0,0.0,0.0,0.0,0.0,0.0,0.0,0.0,0.0,0.0,0.0,0.0,0.0,0.0,0.0,0.0,0.0,0.0,0.0,0.0,0.0,0.0,0.0,0.0,0.0,0.0,0.0,0.0,0.0,0.0,0.0,0.0,0.0,0.0,0.0,0.0,0.0,-5.7058,-5.9477,-6.1338,-6.2598,-6.3246,-6.3282,-6.2915,-6.2071,-6.1127,-5.966,0.0,0.0,0.0,0.0,0.0,0.0,0.0,0.0,0.0,0.0,0.0,0.0,0.0,0.0,0.0,0.0,0.0,0.0,0.0,0.0,0.0,0.0,0.0,0.0,0.0,0.0,0.0,0.0,-5.2554,-5.1894,-5.118,0.0,0.0,0.0,0.0,0.0,0.0,0.0,0.0,0.0,0.0,-6.2842,-6.5007,-6.5558,0.0,0.0,-6.5852,-6.5202,-6.4757,-6.3647,-6.2375,-6.1028,-5.886,0.0,0.0,0.0,0.0,0.0,0.0,0.0,0.0,0.0,0.0,0.0,0.0,0.0,0.0,0.0,0.0,0.0,0.0,0.0,0.0,0.0,0.0,0.0,0.0,0.0,0.0,0.0,0.0,0.0,0.0,0.0,0.0,0.0,0.0,0.0,0.0,0.0,0.0,0.0,0.0,0.0,0.0,0.0,0.0,0.0,0.0,0.0,0.0,0.0,0.0,0.0,0.0,-5.6123,-5.8508,-6.0421,-6.1838,-6.278,-6.2805,-6.2401,-6.1594,-6.0919,-5.9421,0.0,0.0,0.0,0.0,0.0,0.0,0.0,0.0,0.0,0.0,0.0,0.0,0.0,0.0,0.0,0.0,0.0,0.0,0.0,0.0,0.0,0.0,0.0,0.0,0.0,0.0,0.0,0.0,-5.2181,-5.0977,-4.9858,0.0,0.0,0.0,0.0,0.0,0.0,0.0,0.0,0.0,0.0,-6.2401,-6.464,-6.5154,-6.5521,-6.6072,-6.5642,-6.5124,-6.4735,-6.3268,-6.1761,-6.06,0.0,0.0,0.0,0.0,0.0,0.0,0.0,0.0,0.0,0.0,0.0,0.0,0.0,0.0,0.0,0.0,0.0,0.0,0.0,0.0,0.0,0.0,0.0,0.0,0.0,0.0,0.0,-6.0156,0.0,0.0,-5.8904,0.0,0.0,0.0,0.0,0.0,0.0,0.0,0.0,0.0,0.0,0.0,0.0,0.0,0.0,0.0,0.0,0.0,0.0,0.0,0.0,0.0,0.0,-5.5391,-5.8449,-5.9799,-6.1227,-6.2768,-6.2805,-6.2401,-6.1594,-6.0823,-5.9328,-5.7015,0.0,0.0,0.0,0.0,0.0,0.0,0.0,0.0,0.0,0.0,0.0,0.0,0.0,0.0,0.0,0.0,0.0,0.0,0.0,0.0,0.0,0.0,0.0,0.0,0.0,0.0,-5.3718,-5.2134,-5.0581,0.0,0.0,0.0,0.0,0.0,0.0,0.0,0.0,0.0,0.0,-6.0089,-6.2181,-6.387,-6.4787,-6.5264,-6.5338,-6.5134,-6.4735,-6.3773,-6.2076,-6.0467,0.0,0.0,0.0,0.0,0.0,0.0,0.0,0.0,0.0,0.0,0.0,0.0,0.0,0.0,0.0,0.0,0.0,0.0,0.0,0.0,0.0,0.0,0.0,0.0,0.0,0.0,0.0,-5.9558,-5.9496,0.0,0.0,0.0,0.0,0.0,0.0,0.0,0.0,0.0,0.0,0.0,-5.4845,-5.5329,0.0,0.0,0.0,0.0,0.0,0.0,0.0,0.0,0.0,0.0,0.0,0.0,-5.5771,-5.8216,-5.9706,-6.119,-6.2707,-6.2291,-6.163,-6.0823,-6.0052,-5.8194,-5.5214,0.0,0.0,0.0,0.0,0.0,0.0,0.0,0.0,0.0,0.0,0.0,0.0,0.0,0.0,0.0,0.0,0.0,0.0,0.0,0.0,0.0,0.0,0.0,0.0,0.0,-5.3278,0.0,0.0,0.0,0.0,0.0,0.0,0.0,0.0,0.0,0.0,0.0,-5.6198,-5.7776,-5.9612,-6.141,-6.3025,-6.3466,-6.3782,0.0,0.0,0.0,0.0,0.0,0.0,0.0,0.0,0.0,0.0,0.0,0.0,0.0,0.0,-5.5549,-5.3816,-5.3149,-5.283,-5.2803,0.0,0.0,0.0,0.0,0.0,0.0,0.0,0.0,0.0,0.0,0.0,0.0,0.0,0.0,-5.8977,0.0,-5.766,0.0,0.0,0.0,0.0,0.0,0.0,0.0,0.0,-5.5793,-5.5821,-5.5445,-5.5952,-5.5549,0.0,-5.3635,-5.3159,0.0,0.0,0.0,0.0,0.0,0.0,0.0,0.0,-5.5591,-5.7602,-5.9053,-6.0469,-6.1777,-6.1373,-6.0738,-5.9992,-5.8904,-5.7148,-5.47,-5.2477,-5.0529,0.0,0.0,0.0,0.0,0.0,0.0,0.0,0.0,0.0,0.0,0.0,0.0,0.0,0.0,0.0,0.0,0.0,0.0,0.0,0.0,0.0,0.0,0.0,-5.2006,0.0,0.0,0.0,0.0,0.0,0.0,0.0,0.0,0.0,-5.3151,-5.5053,-5.6754,-5.778,-5.9516,-6.1043,-6.2105,0.0,0.0,0.0,0.0,0.0,0.0,0.0,-5.9395,-5.8811,-5.7933,-5.719,-5.6965,-5.6934,-5.6867,-5.6932,0.0,0.0,-5.4589,-5.4168,-5.408,-5.408,-5.4321,-5.4587,-5.4803,-5.5067,-5.5189,0.0,0.0,0.0,0.0,0.0,0.0,0.0,0.0,-5.822,-5.84,0.0,-5.7486,0.0,0.0,0.0,0.0,0.0,-5.482,0.0,0.0,-5.6429,-5.6834,-5.7308,-5.7219,-5.6425,-5.4965,-5.5129,-5.4582,-5.336,-5.1606,0.0,0.0,0.0,0.0,0.0,0.0,-5.4925,-5.6629,-5.7959,-5.9149,-6.0164,-6.0164,-5.9835,-5.9148,-5.7528,-5.631,-5.5432,-5.3784,-5.1849,-4.9751,-4.8859,0.0,0.0,0.0,0.0,0.0,0.0,0.0,0.0,0.0,0.0,0.0,0.0,0.0,0.0,0.0,0.0,0.0,0.0,0.0,0.0,-5.0134,0.0,0.0,0.0,0.0,0.0,0.0,0.0,0.0,0.0,0.0,-5.346,-5.5976,-5.7823,-5.7883,0.0,0.0,0.0,0.0,-6.2354,-6.2195,-6.1768,-6.1343,-6.1022,-5.9651,-5.8532,-5.8208,0.0,0.0,-5.6574,-5.6405,-5.6372,-5.6507,-5.6474,-5.6166,-5.5939,-5.563,-5.5464,-5.5464,-5.5533,-5.5778,-5.6333,-5.6437,-5.6439,-5.9922,0.0,0.0,0.0,0.0,-5.85,-5.8565,-5.8646,-5.8538,-5.8329,-5.7985,-5.7015,0.0,0.0,0.0,0.0,0.0,0.0,-5.5699,-5.6652,-5.7265,-5.7244,-5.6771,-5.7255,-5.6604,-5.5063,-5.4704,-5.4098,-5.3301,-5.2584,-5.2097,-5.1923,0.0,0.0,0.0,0.0,-5.5281,-5.6628,-5.7763,-5.8808,-5.9761,-5.9317,-5.8811,-5.8223,-5.7724,-5.7078,-5.6296,-5.5135,-5.3748,-5.205,-5.0175,0.0,0.0,0.0,0.0,0.0,0.0,0.0,0.0,0.0,0.0,0.0,0.0,0.0,0.0,0.0,0.0,0.0,0.0,0.0,-5.0657,-5.0805,-5.1027,0.0,0.0,0.0,0.0,0.0,0.0,0.0,0.0,0.0,-5.6565,-5.7271,-5.8178,0.0,0.0,-6.088,-6.088,-6.1408,-6.1684,-6.1508,-6.1104,0.0,-6.0227,-5.9441,-5.8769,-5.8462,-5.7907,-5.7489,-5.7489,-5.7418,-5.7418,-5.7489,-5.7454,-5.7386,-5.7289,-5.6577,-5.6063,-5.5995,-5.6338,-5.6679,-5.6917,-5.7221,-5.7454,-6.0593,-5.9554,-5.8945,-5.8615,-5.8526,-5.8526,-5.8678,-5.8835,-5.8638,-5.8278,-5.7812,-5.7091,-5.634,-5.5596,-5.4995,0.0,0.0,0.0,-5.6173,-5.7085,-5.7398,-5.7398,-5.7123,-5.7498,-5.7019,-5.5757,-5.5177,-5.4559,-5.3866,-5.3241,-5.2851,-5.2704,0.0,0.0,-5.2953,-5.401,-5.5016,-5.5893,-5.6679,-5.7487,-5.8286,-5.8104,-5.7946,-5.7715,-5.7739,-5.7507,-5.7078,-5.6194,-5.4989,-5.3529,-5.1773,-5.0078,0.0,0.0,0.0,0.0,0.0,0.0,0.0,0.0,0.0,0.0,0.0,-4.7279,-4.8384,0.0,0.0,0.0,-4.8752,-4.9284,-5.0178,-5.0562,0.0,0.0,0.0,0.0,0.0,0.0,0.0,-5.4509,-5.6198,-5.7703,-5.8804,-5.9078,-5.9346,-5.9878,-6.0494,-6.0799,-6.0456,0.0,-6.1045,-6.0867,-6.0441,-5.9969,-5.965,-5.9081,-5.8597,-5.8312,-5.8063,-5.7918,-5.7881,-5.7881,-5.7881,-5.7881,-5.7881,-5.7881,-5.7881,-5.7316,-5.6846,-5.688,-5.715,-5.7384,-5.7418,-5.7719,-5.7881,-6.1539,-6.054,-5.9081,-5.8449,-5.8482,-5.8448,-5.876,-5.9349,-5.8691,-5.8342,-5.8168,-5.7508,-5.6747,-5.6021,-5.5894,0.0,-5.5936,-5.6366,-5.6816,-5.7327,-5.7221,-5.7418,-5.7881,-5.7918,-5.7509,-5.6765,-5.6264,-5.5553,-5.4737,-5.3671,-5.3304,-5.3545,-5.3561,-5.3643,-5.3905,-5.4084,-5.4336,-5.4698,-5.5139,-5.5636,-5.6229,-5.6819,-5.7264,-5.7534,-5.7559,-5.7631,-5.775,-5.6961,-5.5829,-5.4385,-5.3397,-5.1514,-4.855,0.0,0.0,0.0,0.0,0.0,0.0,0.0,0.0,0.0,0.0,0.0,0.0,0.0,0.0,0.0,-4.9029,0.0,-4.9219,-4.9923,0.0,0.0,0.0,-5.2367,-5.4107,-5.4349,-5.5038,-5.6616,0.0,0.0,-6.0236,-6.0932,-6.0996,-6.0114,-6.0763,-6.0948,-5.9993,-6.0195,-6.0379,-6.0227,-5.9779,-5.9383,-5.9183,-5.8632,-5.8169,-5.7954,-5.7881,-5.7881,-5.7881,-5.7881,-5.7881,-5.7881,-5.7881,-5.7881,-5.7881,-5.785,-5.7881,-5.785,-5.7884,-5.7884,-5.7884,-5.7884,-5.7881,-6.1524,-6.0231,-5.984,-5.9855,-6.0073,-5.9524,-5.9387,-5.9524,-5.9352,-5.8598,-5.7535,-5.7364,-5.6849,-5.6129,-5.6096,-5.6371,-5.6816,-5.6917,-5.7254,-5.7755,-5.7753,-5.7785,-5.7881,-5.7881,-5.7509,-5.6799,-5.609,-5.5414,-5.4635,-5.3887,-5.3674,-5.3834,-5.3886,-5.3905,-5.3969,-5.3911,-5.4147,-5.4709,-5.4822,-5.5164,-5.5744,-5.6357,-5.6819,-5.7138,-5.7338,-5.751,-5.7631,-5.7424,-5.6585,-5.5017,-5.4087,-5.2381,-4.9856,-4.8442,0.0,0.0,0.0,0.0,0.0,0.0,0.0,0.0,0.0,-4.7209,-4.8712,0.0,-4.8816,0.0,-4.9677,-5.0055,-5.0952,-5.1371,0.0,0.0,-5.3845,-5.4228,-5.4884,-5.5583,-5.6246,-5.6726,-5.8584,-5.9979,-6.0346,-6.1482,-6.2109,-6.1703,-6.1364,-6.0927,-6.0448,-6.0027,-5.9748,-5.9551,-5.9081,-5.8667,-5.8491,-5.8171,-5.792,-5.7918,-5.7881,-5.7881,-5.7881,-5.7881,-5.7881,-5.7881,-5.7881,-5.7881,-5.7881,-5.7881,-5.7881,-5.7881,-5.7881,-5.7881,-5.7881,-5.7881,-5.7881,-6.14,-6.0588,-5.9911,-5.9922,-6.0381,-5.9633,-5.9327,-5.9327,-5.9327,-5.8647,-5.7594,-5.756,-5.7356,-5.6947,-5.6982,-5.715,-5.7452,-5.7486,-5.7618,-5.7881,-5.7881,-5.7881,-5.7881,-5.7881,-5.7509,-5.6765,-5.6055,-5.531,-5.4566,-5.3923,-5.3684,-5.3882,-5.3882,-5.3903,-5.3994,-5.3839,-5.3952,-5.4365,-5.446,-5.4707,-5.5159,-5.5716,-5.6229,-5.6661,-5.6624,-5.6706,-5.6903,-5.6576,-5.5836,-5.454,-5.3904,-5.2627,-5.0475,-4.9032,-4.7756,0.0,0.0,0.0,0.0,0.0,0.0,0.0,0.0,0.0,0.0,0.0,-4.9424,-4.9995,-5.0295,-5.084,-5.1651,-5.2242,-5.3093,-5.4349,-5.4753,-5.5288,-5.6091,-5.6695,-5.7128,-5.7313,-5.8841,-5.9845,-5.981,-6.1066,-6.185,-6.1597,-6.1335,-6.1004,-6.0516,-5.9914,-5.9386,-5.9115,-5.8666,-5.8312,-5.8099,-5.7683,-5.7408,-5.7374,-5.7137,-5.7002,-5.734,-5.7408,-5.7509,-5.7814,-5.7881,-5.7881,-5.7881,-5.7881,-5.7881,-5.7881,-5.7881,-5.7881,-5.7881,-5.7881,-5.7881,-6.1197,-6.0892,-5.9573,-5.9336,-5.9776,-5.9133,-5.893,-5.8998,-5.8998,-5.8592,-5.7881,-5.7881,-5.7881,-5.7881,-5.7881,-5.7881,-5.7881,-5.7881,-5.7881,-5.7881,-5.7881,-5.7881,-5.7881,-5.7881,-5.7509,-5.6799,-5.6019,-5.5344,-5.4566,-5.3856,-5.3551,-5.3684,-5.3684,-5.375,-5.3915,-5.375,-5.375,-5.3915,-5.4044,-5.4267,-5.4586,-5.5044,-5.5578,-5.6111,-5.5696,-5.559,-5.5833,-5.5135,-5.4339,-5.352,-5.3266,-5.2326,-5.0579,-4.9646,-4.8469,0.0,-4.6165,0.0,0.0,0.0,0.0,0.0,0.0,0.0,0.0,-4.9865,-4.9991,-5.0352,-5.1034,-5.1581,-5.1941,-5.2783,-5.3746,-5.4649,-5.5095,-5.5838,-5.7191,-5.7461,-5.7655,-5.7927,-5.8684,-5.9113,-5.9067,-6.0211,-6.097,-6.0936,-6.106,-6.0938,-6.0415,-5.9748,-5.9183,-5.8806,-5.8317,-5.7895,-5.7683,-5.7103,-5.6664,-5.6632,-5.6259,-5.5988,-5.6633,-5.6836,-5.7072,-5.7613,-5.7749,-5.7712,-5.7746,-5.7645,-5.7611,-5.7679,-5.7679,-5.7712,-5.7848,-5.7881,-5.7881,-6.0588,-5.9438,-5.9133,-5.8727,-5.8287,-5.8152,-5.8457,-5.8998,-5.8998,-5.8592,-5.7881,-5.7881,-5.7881,-5.7881,-5.7881,-5.7881,-5.7881,-5.7881,-5.7881,-5.7881,-5.7881,-5.7881,-5.7881,-5.7881,-5.7509,-5.6799,-5.6055,-5.5344,-5.4566,-5.3856,-5.3518,-5.3517,-5.3517,-5.3585,-5.3584,0.0,0.0,0.0,-5.3717,-5.3915,-5.4143,-5.4494,-5.4896,-5.5373,-5.4952,0.0,-5.5134,-5.4446,-5.3625,-5.285,-5.2545,0.0,0.0,0.0,0.0,0.0,0.0,0.0,0.0,0.0,0.0,0.0,-5.0307,-5.0507,-5.0541,-5.1415,-5.1996,-5.197,-5.2109,-5.2379,-5.2808,-5.329,-5.3973,-5.5003,-5.5596,-5.6223,-5.6984,-5.7289,-5.7486,-5.7667,-5.8481,-5.8993,-5.8908,-5.9761,-6.0514,-6.0778,-6.0811,-6.0698,-6.0458,-5.9741,-5.9149,-5.8597,-5.7696,-5.7107,-5.7002,-5.6393,-5.5955,-5.6061,-5.6062,-5.6029,-5.6269,-5.671,-5.7014,-5.7252,-5.7109,-5.7002,-5.7002,-5.6528,-5.6393,-5.69,-5.7036,-5.7171,-5.7746,-5.7881,-5.7881,-5.9708,0.0,-5.8626,-5.8254,0.0,-5.7881,-5.8118,-5.8457,-5.8457,-5.8254,-5.7881,-5.7881,-5.7881,-5.7881,-5.7881,-5.7881,-5.7881,-5.7881,-5.7881,-5.7881,-5.7881,-5.7881,-5.7881,-5.7881,-5.7306,-5.6258,-5.5886,-5.5141,-5.4093,-5.3687,-5.3518,-5.3518,-5.3518,-5.3518,-5.3518,-5.3518,-5.3518,-5.3518,-5.3584,-5.3684,-5.3849,-5.411,-5.4463,-5.4834,-5.3962,0.0,0.0,0.0,0.0,0.0,0.0,0.0,0.0,0.0,0.0,-4.8825,-4.8424,-4.8534,-4.928,-4.9671,-5.0194,-5.0952,-5.1558,-5.1752,-5.1344,-5.1884,-5.2386,-5.2547,-5.2616,-5.2832,-5.3363,-5.3688,-5.4171,-5.4887,-5.5549,-5.6237,-5.6803,-5.7188,-5.7437,-5.7619,-5.8068,-5.8324,-5.8166,-5.8896,-5.9491,-5.9699,-5.9844,-5.9793,-5.9419,-5.9102,-5.8491,-5.7361,-5.6704,-5.6258,-5.619,-5.5649,-5.5211,-5.5383,-5.5179,-5.5246,-5.5653,-5.5996,-5.6304,-5.6542,-5.6504,-5.6364,-5.6258,-5.5953,-5.5783,-5.619,-5.6562,-5.6867,-5.7306,-5.7645,-5.7881,-5.9004,-5.8798,-5.8189,-5.7918,-5.7881,-5.7881,-5.7881,-5.7881,0.0,0.0,0.0,-5.7881,-5.7881,-5.7881,-5.7881,-5.7881,-5.7881,-5.7881,-5.7881,-5.7881,-5.7881,-5.7881,-5.7881,-5.7746,-5.7002,-5.575,-5.5581,-5.4803,-5.3551,-5.3518,-5.3518,-5.3518,-5.3518,-5.3518,-5.3518,-5.3518,-5.3518,-5.3518,-5.3518,-5.3551,-5.3651,-5.3816,-5.4045,-5.4335,-5.3115,-5.2537,-5.2651,-5.1367,-5.0673,-5.0673,-5.0495,-5.0316,-5.0169,-4.9502,-4.935,-4.9872,-4.924,-4.9415,-5.0762,-5.0909,-5.1191,-5.1941,-5.2459,-5.2558,-5.2059,-5.2127,-5.2406,-5.2893,-5.2927,-5.3135,-5.3616,-5.3948,-5.4237,-5.4617,-5.5348,-5.6042,-5.6644,-5.7087,-5.7363,-5.751,-5.7667,-5.7691,-5.751,-5.8154,-5.8628,-5.8558,-5.8878,-5.8685,-5.8066,-5.7894,-5.7462,-5.6163,-5.5683,-5.5513,-5.5412,-5.4905,-5.4533,-5.4702,-5.439,-5.4383,-5.5058,-5.5365,-5.5611,-5.6062,-5.5962,-5.5791,-5.5583,-5.5344,-5.5378,-5.5445,-5.5987,-5.6494,-5.6799,-5.7273,-5.7679,-5.9062,-5.8305,-5.8203,-5.8063,-5.7881,-5.7881,-5.7881,-5.7881,-5.7881,-5.7881,-5.7881,-5.7881,-5.7881,-5.7881,-5.7881,-5.7881,-5.7881,-5.7881,-5.7881,-5.7881,-5.7881,-5.7881,-5.7848,-5.7239,-5.6528,-5.5681,-5.5074,-5.4329,-5.3585,-5.3518,-5.3518,-5.3518,-5.3518,-5.3518,-5.3518,-5.3518,-5.3518,-5.3518,-5.3518,-5.3484,-5.3517,-5.3585,-5.3651,-5.3782,-5.3094,-5.2841,-5.2997,-5.2138,-5.1691,-5.1691,-5.1538,-5.1415,-5.1259,-5.1125,-5.1065,-5.0975,-5.0875,-5.0909,-5.1144,-5.1688,-5.2399,-5.3144,-5.3314,-5.311,-5.2594,-5.2973,-5.3313,-5.3382,-5.3381,-5.3449,-5.3517,-5.3684,-5.4013,-5.4494,-5.5074,-5.5687,-5.6311,-5.6803,-5.7112,-5.7264,-5.7461,-5.7583,-5.7498,-5.7753,-5.819,-5.853,-5.8352,-5.7834,-5.6776,-5.6457,-5.6304,-5.5754,-5.5141,-5.4803,-5.4668,-5.416,-5.3956,-5.4213,-5.4407,-5.4592,-5.5166,-5.5622,-5.5848,-5.5862,-5.551,-5.5212,-5.4941,-5.4296,-5.4262,-5.4634,-5.4938,-5.5378,-5.6393,-5.6799,-5.7137,-5.8799,-5.8348,-5.8241,-5.8063,-5.7881,-5.7881,-5.7881,-5.7881,-5.7881,-5.7881,-5.7881,-5.7881,-5.7881,-5.7881,-5.7881,-5.7881,-5.7881,-5.7881,-5.7881,-5.7881,-5.7881,-5.7679,-5.7306,-5.6968,-5.619,-5.5141,-5.4769,-5.4228,-5.3551,-5.3518,-5.3518,-5.3518,-5.3518,-5.3518,-5.3518,-5.3518,-5.3518,-5.3518,-5.3518,-5.3518,-5.3518,-5.3518,-5.3517,-5.3584,-5.2871,-5.2595,-5.2626,-5.1945,-5.1537,-5.1503,-5.1473,-5.141,-5.1346,-5.1346,-5.1451,-5.1758,-5.1792,-5.1995,-5.2435,-5.2773,-5.3112,-5.3484,-5.3518,-5.3416,-5.311,-5.3314,-5.3518,-5.3518,-5.3518,-5.3518,-5.3518,-5.3617,-5.3848,-5.4303,-5.4892,-5.5519,-5.6118,-5.6697,-5.7061,-5.7289,-5.7534,-5.7667,-5.7547,-5.7655,-5.7812,-5.7996,-5.7448,-5.6567,-5.5597,-5.5223,-5.4906,-5.4533,-5.4228,-5.4025,-5.3991,-5.3754,-5.3718,-5.4141,-5.4428,-5.4838,-5.5319,-5.5764,-5.5719,-5.551,-5.5107,-5.4657,-5.4327,-5.3822,-5.3754,-5.389,-5.4363,-5.4905,-5.548,-5.5886,-5.6596,-5.8771,-5.8561,-5.8348,-5.8099,-5.7918,-5.7881,-5.7881,-5.7881,-5.7881,-5.7881,-5.7881,-5.7881,-5.7881,-5.7881,-5.7881,-5.7881,-5.7881,-5.7881,-5.7881,-5.7881,-5.7712,-5.734,-5.6799,-5.6494,-5.5683,-5.4668,-5.4431,-5.4059,-5.3551,-5.3518,-5.3518,-5.3518,-5.3518,-5.3518,-5.3518,-5.3518,-5.3518,-5.3518,-5.3518,-5.3518,-5.3518,-5.3518,-5.3518,-5.345,-5.2909,-5.257,-5.2536,-5.2029,-5.1725,-5.1725,-5.1692,-5.1725,-5.1725,-5.1725,-5.1995,-5.2503,-5.257,-5.2841,-5.3416,-5.3518,-5.3518,-5.3518,-5.3518,-5.3518,-5.3518,-5.3518,-5.3518,-5.3518,-5.3518,-5.3518,-5.3518,-5.3584,-5.3783,-5.4076,-5.4676,-5.5284,-5.5865,-5.6474,-5.701,-5.7264,-5.7559,-5.7739,-5.7631,-5.7763,-5.7715,-5.735,-5.6564,-5.5786,-5.5074,-5.446,-5.3948,-5.3651,-5.3517,-5.3551,-5.3518,-5.3518,-5.3718,-5.4141,-5.4488,-5.5018,-5.5531,-5.5764,-5.5706,-5.5448,-5.4965,-5.45,-5.3948,-5.3651,-5.3551,-5.3619,-5.3957,-5.4363,-5.4668,-5.5277,-5.5987,-5.9183,-5.8702,-5.8526,-5.8277,-5.7918,-5.7881,-5.7881,-5.7881,-5.7881,-5.7881,-5.7881,-5.7881,-5.7881,-5.7881,-5.7881,-5.7881,-5.7881,-5.7881,-5.7881,-5.778,-5.7205,-5.6867,-5.6596,-5.5446,-5.4735,-5.4499,-5.3923,-5.3619,-5.3518,-5.3518,-5.3518,-5.3518,-5.3518,-5.3518,-5.3518,-5.3518,-5.3518,-5.3518,-5.3518,-5.3518,-5.3518,-5.3518,-5.3518,-5.3484,-5.345,-5.3382,-5.3348,-5.3315,-5.3281,-5.3315,-5.3247,-5.3281,-5.3247,-5.3281,-5.3315,-5.3382,-5.3382,-5.345,-5.3484,-5.3518,-5.3518,-5.3518,-5.3518,-5.3518,-5.3518,-5.3518,-5.3518,-5.3518,-5.3518,-5.3518,-5.3518,-5.3518,-5.3618,-5.3783,-5.4365,-5.4922,-5.5461,-5.6182,-5.676,-5.701,-5.7363,-5.7607,-5.7607,-5.781,-5.7763,-5.7289,-5.6635,-5.5922,-5.5224,-5.4551,-5.4044,-5.375,-5.3584,-5.3518,-5.3518,-5.3518,-5.3718,-5.4141,-5.4582,-5.5104,-5.5642,-5.6021,-5.6049,-5.5729,-5.5199,-5.4617,-5.4173,-5.3816,-5.3484,-5.3518,-5.3653,-5.3822,-5.4465,-5.5074,-5.5649,-5.9584,-5.9012,-5.8632,-5.8277,-5.7918,-5.7881,-5.7881,-5.7881,-5.7881,-5.7881,-5.7881,-5.7881,-5.7881,-5.7881,-5.7881,-5.7881,-5.7881,-5.7881,-5.7645,-5.7239,-5.6934,-5.6359,-5.548,-5.4938,-5.4363,-5.3957,-5.3653,-5.3518,-5.3518,-5.3518,-5.3518,-5.3518,-5.3518,-5.3518,-5.3518,-5.3518,-5.3518,-5.3518,-5.3518,-5.3518,-5.3518,-5.3518,-5.3518,-5.3518,-5.3518,-5.3518,-5.3518,-5.3518,-5.3518,-5.3518,-5.3518,-5.3518,-5.3518,-5.3518,-5.3518,-5.3518,-5.3518,-5.3518,-5.3518,-5.3518,-5.3518,-5.3518,-5.3518,-5.3518,-5.3518,-5.3518,-5.3518,-5.3518,-5.3518,-5.3518,-5.3518,-5.3518,-5.3551,-5.375,-5.4141,-5.4614,-5.5224,-5.5865,-5.6456,-5.6829,-5.7239,-5.751,-5.7583,-5.7715,-5.7583,-5.7188,-5.6608,-5.595,-5.5284,-5.4614,-5.4108,-5.3783,-5.3584,-5.3518,-5.3518,-5.3518,-5.3718,-5.4108,-5.4488,-5.5013,-5.5815,-5.6189,-5.6245,-5.6042,-5.5461,-5.4861,-5.4267,-5.3913,-5.3618,-5.3551,-5.3518,-5.3619,-5.389,-5.4194,-5.4397,-5.9879,-5.9283,-5.8667,-5.8243,-5.7991,-5.7954,-5.7991,-5.7993,-5.7787,-5.7649,-5.7649,-5.7613,-5.7611,-5.7611,-5.778,-5.7881,-5.7881,-5.7881,-5.7546,-5.6904,-5.6667,-5.5923,-5.4805,-5.4466,-5.4059,-5.3619,-5.3484,-5.3518,-5.3518,-5.3518,-5.3518,-5.3518,-5.3518,-5.3518,-5.3518,-5.3518,-5.3518,-5.3518,-5.3518,-5.3518,-5.3518,-5.3518,-5.3518,-5.3518,-5.3518,-5.3518,-5.3518,-5.3518,-5.3518,-5.3518,-5.3518,-5.3518,-5.3518,-5.3518,-5.3518,-5.3518,-5.3518,-5.3518,-5.3518,-5.3518,-5.3518,-5.3518,-5.3518,-5.3518,-5.3518,-5.3518,-5.3518,-5.3518,-5.3518,-5.3518,-5.3518,-5.3518,-5.3551,-5.3685,-5.3979,-5.446,-5.4957,-5.5555,-5.6098,-5.651,-5.6845,-5.7289,-5.751,-5.7559,-5.7461,-5.7239,-5.6608,-5.6014,-5.5437,-5.4803,-5.4173,-5.3881,-5.3651,-5.3518,-5.3518,-5.3518,-5.3718,-5.4013,-5.4397,-5.4953,-5.578,-5.6098,-5.6383,-5.6154,-5.5722,-5.5194,-5.452,-5.4076,-5.3651,-5.3551,-5.3518,-5.3518,-5.3585,-5.3551,-5.3551,-6.0164,-5.9382,-5.8597,-5.8241,-5.8171,-5.8171,-5.8278,-5.8318,-5.7528,-5.7151,-5.7116,-5.6904,-5.6867,-5.697,-5.7579,-5.7881,-5.7881,-5.7881,-5.7584,-5.698,-5.6334,-5.569,-5.5041,-5.4192,-5.3751,-5.3684,-5.3584,-5.3518,-5.3518,-5.3518,-5.3518,-5.3518,-5.3518,-5.3518,-5.3518,-5.3518,-5.3518,-5.3518,-5.3518,-5.3518,-5.3518,-5.3518,-5.3518,-5.3518,-5.3518,-5.3518,-5.3518,-5.3518,-5.3518,-5.3518,-5.3518,-5.3518,-5.3518,-5.3518,-5.3518,-5.3518,-5.3518,-5.3518,-5.3518,-5.3518,-5.3518,-5.3518,-5.3518,-5.3518,-5.3518,-5.3518,-5.3518,-5.3518,-5.3518,-5.3518,-5.3518,-5.3518,-5.3518,-5.3551,-5.3948,-5.4269,-5.4494,-5.5079,-5.5519,-5.5929,-5.6339,-5.6897,-5.7486,-5.7486,-5.7437,-5.7289,-5.6767,-5.6174,-5.5815,-5.5048,-5.446,-5.4141,-5.3816,-5.3484,-5.3518,-5.3518,-5.3551,-5.3849,-5.4301,-5.483,-5.5402,-5.5901,-5.6189,-5.63,-5.5865,-5.5373,-5.4769,-5.4237,-5.375,-5.3551,-5.3518,-5.3518,-5.3518,-5.3518,-5.3518,-6.0286,-5.9148,-5.8597,-5.8384,-5.8419,-5.8491,-5.8358,-5.8084,-5.7638,-5.7124,-5.6713,-5.6404,-5.6606,-5.7153,-5.732,-5.7586,-5.7884,-5.7881,-5.7347,-5.6471,-5.6201,-5.5586,-5.4556,-5.4146,-5.3946,-5.3882,-5.3717,-5.3584,-5.3518,-5.3518,-5.3518,-5.3518,-5.3518,-5.3518,-5.3518,-5.3518,-5.3518,-5.3518,-5.3518,-5.3518,-5.3518,-5.3518,-5.3518,-5.3518,-5.3518,-5.3518,-5.3518,-5.3518,-5.3518,-5.3518,-5.3518,-5.3518,-5.3518,-5.3518,-5.3518,-5.3518,-5.3518,-5.3518,-5.3518,-5.3518,-5.3518,-5.3518,-5.3518,-5.3518,-5.3518,-5.3518,-5.3518,-5.3518,-5.3518,-5.3518,-5.3518,-5.3518,-5.3518,-5.3551,-5.3717,-5.3946,-5.4207,-5.4589,-5.4957,-5.5348,-5.5978,-5.6767,-5.7289,-5.7486,-5.751,-5.7461,-5.7087,-5.6555,-5.607,-5.5408,-5.4772,-5.4301,-5.3881,-5.3618,-5.3484,-5.3518,-5.3551,-5.3783,-5.4173,-5.4738,-5.5284,-5.6014,-5.641,-5.6465,-5.6098,-5.5607,-5.5044,-5.4237,-5.3783,-5.3551,-5.3484,-5.3518,-5.3518,-5.3518,-5.3518,-6.0379,-5.9283,-5.8909,-5.8771,-5.8771,-5.8978,-5.8767,-5.8239,-5.7765,-5.7114,-5.6396,-5.5961,-5.6133,-5.6645,-5.6815,-5.7257,-5.7868,-5.8035,-5.7424,-5.6304,-5.6404,-5.578,-5.4698,-5.4491,-5.4365,-5.4173,-5.3849,-5.3617,-5.3518,-5.3518,-5.3518,-5.3518,-5.3518,-5.3518,-5.3518,-5.3518,-5.3518,-5.3518,-5.3518,-5.3518,-5.3518,-5.3518,-5.3518,-5.3518,-5.3518,-5.3518,-5.3518,-5.3518,-5.3518,-5.3518,-5.3518,-5.3518,-5.3518,-5.3518,-5.3518,-5.3518,-5.3518,-5.3518,-5.3518,-5.3518,-5.3518,-5.3518,-5.3518,-5.3518,-5.3518,-5.3518,-5.3518,-5.3518,-5.3518,-5.3518,-5.3518,-5.3518,-5.3518,-5.3518,-5.3618,-5.375,-5.3915,-5.4143,-5.4557,-5.5079,-5.5837,-5.6582,-5.7213,-5.7412,-5.7534,-5.7631,-5.7313,-5.6855,-5.6402,-5.5694,-5.5044,-5.4457,-5.3979,-5.3684,-5.3517,-5.3518,-5.3518,-5.3718,-5.4044,-5.4648,-5.5224,-5.5957,-5.6492,-5.6546,-5.632,-5.5837,-5.5194,-5.4365,-5.3915,-5.3651,-5.3517,-5.3518,-5.3518,-5.3518,-5.3518,-6.0415,-5.9779,-5.9486,-5.9319,-5.9351,-5.9648,-5.9552,-5.8967,-5.8012,-5.7095,-5.6283,-5.5566,-5.5407,-5.5578,-5.6264,-5.7018,-5.7979,-5.8393,-5.7913,-5.691,-5.6934,-5.6394,-5.5344,-5.5083,-5.4869,-5.4586,-5.3979,-5.3651,-5.3484,-5.3518,-5.3518,-5.3518,-5.3518,-5.3518,-5.3518,-5.3518,-5.3518,-5.3518,-5.3518,-5.3518,-5.3518,-5.3518,-5.3518,-5.3518,-5.3518,-5.3518,-5.3518,-5.3518,-5.3518,-5.3518,-5.3518,-5.3518,-5.3518,-5.3518,-5.3518,-5.3518,-5.3518,-5.3518,-5.3518,-5.3518,-5.3518,-5.3518,-5.3518,-5.3518,-5.3518,-5.3518,-5.3518,-5.3518,-5.3518,-5.3518,-5.3518,-5.3518,-5.3518,-5.3518,-5.3618,-5.3684,-5.375,-5.3882,-5.4335,-5.5044,-5.5751,-5.6393,-5.701,-5.7363,-5.7559,-5.7655,-5.7486,-5.7112,-5.675,-5.6035,-5.5313,-5.4741,-5.4173,-5.3783,-5.3618,-5.3518,-5.3518,-5.3551,-5.398,-5.4425,-5.4983,-5.5665,-5.6347,-5.651,-5.651,-5.6035,-5.5224,-5.446,-5.4078,-5.3817,-5.3685,-5.3551,-5.3618,-5.3618,-5.3551,-6.0777,-6.029,-5.9975,-5.9911,-6.004,-6.0321,-6.0235,-5.9692,-5.8645,-5.7659,-5.6651,-5.5421,-5.5303,-5.5945,-5.6229,-5.7153,-5.8685,-5.893,-5.8631,-5.7953,-5.759,-5.7132,-5.6523,-5.5889,-5.5264,-5.4589,-5.3946,-5.3651,-5.3551,-5.3518,-5.3518,-5.3518,-5.3518,-5.3518,-5.3518,-5.3518,-5.3518,-5.3518,-5.3518,-5.3518,-5.3518,-5.3518,-5.3518,-5.3518,-5.3518,-5.3518,-5.3518,-5.3518,-5.3518,-5.3518,-5.3518,-5.3518,-5.3518,-5.3518,-5.3518,-5.3518,-5.3518,-5.3518,-5.3518,-5.3518,-5.3518,-5.3518,-5.3518,-5.3518,-5.3518,-5.3518,-5.3518,-5.3518,-5.3518,-5.3518,-5.3518,-5.3518,-5.3518,-5.3518,-5.3517,-5.3584,-5.3618,-5.3915,-5.4397,-5.4953,-5.5722,-5.6474,-5.7087,-5.7437,-5.7739,-5.7881,-5.7703,-5.7437,-5.6959,-5.6393,-5.5665,-5.4896,-5.4365,-5.3915,-5.3685,-5.3551,-5.3585,-5.3584,-5.3882,-5.4301,-5.483,-5.5432,-5.6063,-5.6564,-5.6501,-5.6146,-5.5313,-5.471,-5.4367,-5.4013,-5.385,-5.3817,-5.3816,-5.3816,-5.3817,-6.125,-6.0837,-6.0574,-6.0543,-6.0691,-6.0992,-6.0856,-6.0308,-5.9552,-5.8552,-5.7435,-5.6374,-5.6164,-5.6737,-5.6834,-5.7806,-5.9329,-5.9603,-5.9657,-5.9425,-5.8507,-5.79,-5.732,-5.6432,-5.5584,-5.4838,-5.4271,-5.3882,-5.3685,-5.3685,-5.3651,-5.3584,-5.3584,-5.3551,-5.3518,-5.3518,-5.3518,-5.3518,-5.3518,-5.3518,-5.3518,-5.3518,-5.3518,-5.3518,-5.3518,-5.3518,-5.3518,-5.3518,-5.3518,-5.3518,-5.3518,-5.3518,-5.3518,-5.3518,-5.3518,-5.3518,-5.3518,-5.3518,-5.3518,-5.3518,-5.3518,-5.3518,-5.3518,-5.3518,-5.3518,-5.3518,-5.3518,-5.3518,-5.3518,-5.3518,-5.3518,-5.3518,-5.3518,-5.3518,-5.3518,-5.3518,-5.3585,-5.3882,-5.433,-5.4922,-5.5636,-5.6393,-5.7061,-5.7486,-5.781,-5.7927,-5.7881,-5.7655,-5.7188,-5.6724,-5.5922,-5.5194,-5.471,-5.4205,-5.3684,-5.3618,-5.3651,-5.3718,-5.3816,-5.4205,-5.4679,-5.5284,-5.595,-5.6591,-5.6776,-5.6447,-5.5722,-5.5169,-5.4679,-5.4399,-5.4045,-5.4013,-5.4011,-5.4143,-5.4143,-6.1832,-6.1551,-6.127,-6.1169,-6.1308,-6.1564,-6.1434,-6.0901,-6.0466,-5.9552,-5.8397,-5.7701,-5.7557,-5.7627,-5.7887,-5.8733,-5.986,-6.0244,-6.0807,-6.086,-5.9949,-5.8852,-5.8089,-5.7088,-5.6268,-5.5544,-5.5022,-5.4542,-5.4251,-5.4184,-5.3982,-5.3783,-5.375,-5.3651,-5.3551,-5.3518,-5.3518,-5.3518,-5.3518,-5.3518,-5.3518,-5.3518,-5.3518,-5.3518,-5.3518,-5.3518,-5.3518,-5.3518,-5.3518,-5.3518,-5.3518,-5.3518,-5.3518,-5.3518,-5.3518,-5.3518,-5.3518,-5.3518,-5.3518,-5.3518,-5.3518,-5.3518,-5.3518,-5.3518,-5.3518,-5.3518,-5.3518,-5.3518,-5.3518,-5.3518,-5.3518,-5.3518,-5.3518,-5.3518,-5.3518,-5.3518,-5.3517,-5.3817,-5.4269,-5.483,-5.549,-5.6237,-5.7061,-5.7412,-5.7739,-5.7904,-5.7867,-5.7679,-5.7363,-5.6871,-5.6221,-5.5601,-5.4983,-5.4491,-5.398,-5.3849,-5.3915,-5.4013,-5.4078,-5.4365,-5.4834,-5.5461,-5.6055,-5.6661,-5.6984,-5.6635,-5.6201,-5.5549,-5.5018,-5.4652,-5.4431,-5.4301,-5.4333,-5.4494,-5.4526,-6.2185,-6.1996,-6.1832,-6.1832,-6.1933,-6.2158,-6.2129,-6.1848,-6.0883,-6.008,-5.9271,-5.8245,-5.7926,-5.7942,-5.842,-5.9245,-6.0284,-6.0837,-6.1386,-6.1957,-6.1246,-6.0155,-5.9266,-5.8501,-5.7818,-5.7203,-5.6644,-5.6064,-5.5226,-5.5157,-5.4785,-5.4076,-5.4013,-5.3849,-5.3651,-5.3551,-5.3518,-5.3518,-5.3518,-5.3518,-5.3518,-5.3518,-5.3518,-5.3518,-5.3518,-5.3518,-5.3518,-5.3518,-5.3518,-5.3518,-5.3518,-5.3518,-5.3518,-5.3518,-5.3518,-5.3518,-5.3518,-5.3518,-5.3518,-5.3518,-5.3518,-5.3518,-5.3518,-5.3518,-5.3518,-5.3518,-5.3518,-5.3518,-5.3518,-5.3518,-5.3518,-5.3518,-5.3518,-5.3518,-5.3518,-5.3518,-5.3551,-5.3882,-5.4333,-5.4738,-5.5607,-5.6339,-5.6959,-5.7412,-5.7786,-5.795,-5.795,-5.7834,-5.7486,-5.7239,-5.6688,-5.5858,-5.5254,-5.4738,-5.4365,-5.4205,-5.4207,-5.4335,-5.4494,-5.471,-5.5254,-5.5922,-5.6555,-5.7213,-5.7264,-5.7087,-5.6474,-5.5801,-5.5373,-5.4957,-5.4683,-5.4523,-5.4741,-5.493,-5.493,-6.2423,-6.2344,-6.2212,-6.2238,-6.2344,-6.237,-6.2381,-6.2166,-6.1353,-6.0569,-5.9935,-5.9294,-5.8897,-5.8954,-5.9614,-6.0316,-6.1163,-6.1652,-6.2113,-6.2406,-6.2128,-6.1185,-6.0067,-5.941,-5.8884,-5.8407,-5.7938,-5.7289,-5.6589,-5.6217,-5.564,-5.5038,-5.4537,-5.4143,-5.3816,-5.3651,-5.3551,-5.3518,-5.3518,-5.3518,-5.3518,-5.3518,-5.3518,-5.3518,-5.3518,-5.3518,-5.3518,-5.3518,-5.3518,-5.3518,-5.3518,-5.3518,-5.3518,-5.3518,-5.3518,-5.3518,-5.3518,-5.3518,-5.3518,-5.3518,-5.3518,-5.3518,-5.3518,-5.3518,-5.3518,-5.3518,-5.3518,-5.3518,-5.3518,-5.3518,-5.3518,-5.3518,-5.3518,-5.3518,-5.3518,-5.3518,-5.3518,-5.3783,-5.4205,-5.4707,-5.5402,-5.6229,-5.6881,-5.7363,-5.7715,-5.7927,-5.7997,-5.7821,-5.7607,-5.7437,-5.7076,-5.6276,-5.5716,-5.5308,-5.4983,-5.4803,-5.4769,-5.4896,-5.5284,-5.5402,-5.5722,-5.6402,-5.6881,-5.7338,-5.7461,-5.7388,-5.6793,-5.6221,-5.5773,-5.5373,-5.5018,-5.4869,-5.5022,-5.5234,-5.5234,-6.2629,-6.2603,-6.2475,-6.25,-6.2578,-6.2475,-6.2318,-6.2105,-6.1592,-6.0921,-6.0313,-6.0294,-5.9991,-6.0135,-6.0736,-6.162,-6.1987,-6.2417,-6.2657,-6.2755,-6.2597,-6.1935,-6.0797,-6.0332,-5.9899,-5.9386,-5.8844,-5.842,-5.8003,-5.7349,-5.6676,-5.6117,-5.5313,-5.4626,-5.4175,-5.3882,-5.3651,-5.3551,-5.3484,-5.3518,-5.3518,-5.3518,-5.3518,-5.3518,-5.3518,-5.3518,-5.3518,-5.3518,-5.3518,-5.3518,-5.3518,-5.3518,-5.3518,-5.3518,-5.3518,-5.3518,-5.3518,-5.3518,-5.3518,-5.3518,-5.3518,-5.3518,-5.3518,-5.3518,-5.3518,-5.3518,-5.3518,-5.3518,-5.3518,-5.3518,-5.3518,-5.3518,-5.3518,-5.3518,-5.3518,-5.3518,-5.3517,-5.3617,-5.398,-5.4586,-5.5104,-5.5894,-5.6635,-5.7239,-5.7534,-5.795,-5.7997,-5.7904,-5.7726,-5.7607,-5.7289,-5.674,-5.6303,-5.5999,-5.5694,-5.5437,-5.5432,-5.5549,-5.6146,-5.6393,-5.6311,-5.674,-5.7138,-5.7437,-5.7619,-5.7534,-5.7213,-5.6688,-5.6193,-5.578,-5.5378,-5.5234,-5.5174,-5.5354,-5.5443,-6.2755,-6.2755,-6.2705,-6.273,-6.273,-6.2603,-6.237,-6.1996,-6.1372,-6.0752,-6.0231,-6.0008,-6.0008,-6.0135,-6.1051,-6.1656,-6.2024,-6.2526,-6.278,-6.2805,-6.2805,-6.267,-6.2155,-6.1828,-6.1461,-6.1043,-6.0891,-6.0317,-5.9579,-5.907,-5.8355,-5.7035,-5.6385,-5.5637,-5.4689,-5.4209,-5.3849,-5.3651,-5.3551,-5.3484,-5.3518,-5.3518,-5.3518,-5.3518,-5.3518,-5.3518,-5.3518,-5.3518,-5.3518,-5.3518,-5.3518,-5.3518,-5.3518,-5.3518,-5.3518,-5.3518,-5.3518,-5.3518,-5.3518,-5.3518,-5.3518,-5.3518,-5.3518,-5.3518,-5.3518,-5.3518,-5.3518,-5.3518,-5.3518,-5.3518,-5.3518,-5.3518,-5.3518,-5.3518,-5.3518,-5.3518,-5.3551,-5.3651,-5.3948,-5.4494,-5.5044,-5.5744,-5.6661,-5.7163,-5.751,-5.7867,-5.7973,-5.7927,-5.7881,-5.775,-5.7486,-5.7076,-5.6845,-5.6555,-5.6257,-5.6035,-5.6146,-5.6257,-5.6767,-5.7163,-5.7051,-5.7112,-5.7461,-5.7667,-5.7763,-5.7583,-5.7412,-5.7051,-5.6519,-5.6146,-5.5758,-5.5525,-5.5472,-5.559,-5.5619,-6.2805,-6.2805,-6.2805,-6.2805,-6.2755,-6.2578,-6.2318,-6.1914,-6.1321,-6.0727,-6.0262,-6.0008,-6.004,-6.0262,-6.1022,-6.1636,-6.2051,-6.2552,-6.2805,-6.2805,-6.2805,-6.2805,-6.278,-6.2654,-6.2397,-6.2014,-6.1878,-6.1432,-6.0968,-6.0452,-5.9729,-5.8595,-5.7632,-5.6564,-5.5567,-5.4793,-5.4207,-5.3882,-5.3651,-5.3551,-5.3518,-5.3518,-5.3518,-5.3518,-5.3518,-5.3518,-5.3518,-5.3518,-5.3518,-5.3518,-5.3518,-5.3518,-5.3518,-5.3518,-5.3518,-5.3518,-5.3518,-5.3518,-5.3518,-5.3518,-5.3518,-5.3518,-5.3518,-5.3518,-5.3518,-5.3518,-5.3518,-5.3518,-5.3518,-5.3518,-5.3518,-5.3518,-5.3518,-5.3518,-5.3551,-5.3584,-5.3584,-5.3651,-5.3915,-5.4463,-5.5048,-5.5773,-5.6465,-5.7076,-5.7534,-5.7927,-5.7997,-5.7973,-5.7973,-5.7844,-5.7786,-5.7486,-5.7313,-5.7051,-5.6803,-5.6724,-5.6829,-5.6974,-5.7313,-5.7534,-5.7583,-5.7655,-5.7786,-5.7834,-5.7857,-5.781,-5.7607,-5.7227,-5.6923,-5.6528,-5.6174,-5.5872,-5.5642,-5.5555,-5.5619,-6.2805,-6.2805,-6.2805,-6.2805,-6.2755,-6.2537,-6.2275,-6.1914,-6.135,-6.0788,-6.0388,-6.0199,-6.0231,-6.0477,-6.1022,-6.1608,-6.2132,-6.2526,-6.2805,-6.2805,-6.2805,-6.2805,-6.278,-6.2755,-6.2654,-6.2485,-6.2291,-6.2086,-6.1797,-6.1371,-6.0775,-6.0195,-5.8876,-5.764,-5.6699,-5.5637,-5.4758,-5.4242,-5.3882,-5.3684,-5.3551,-5.3551,-5.3518,-5.3518,-5.3518,-5.3518,-5.3518,-5.3518,-5.3518,-5.3518,-5.3518,-5.3518,-5.3518,-5.3518,-5.3518,-5.3518,-5.3518,-5.3518,-5.3518,-5.3518,-5.3518,-5.3518,-5.3518,-5.3518,-5.3518,-5.3518,-5.3518,-5.3518,-5.3518,-5.3518,-5.3518,-5.3518,-5.3518,-5.3551,-5.3651,-5.3717,-5.3783,-5.3816,-5.4141,-5.4557,-5.5134,-5.583,-5.6519,-5.7163,-5.7559,-5.7904,-5.795,-5.7997,-5.7997,-5.7973,-5.7857,-5.7786,-5.7559,-5.7412,-5.7188,-5.7163,-5.7313,-5.7412,-5.7679,-5.781,-5.7927,-5.7927,-5.7904,-5.7904,-5.7881,-5.7857,-5.7774,-5.7583,-5.7227,-5.6861,-5.6582,-5.6257,-5.5957,-5.5584,-5.559,-6.2805,-6.2805,-6.2805,-6.2805,-6.2755,-6.25,-6.2275,-6.1914,-6.135,-6.0878,-6.0574,-6.0388,-6.0481,-6.0782,-6.1228,-6.1823,-6.237,-6.2679,-6.2805,-6.2805,-6.2805,-6.2805,-6.2805,-6.2805,-6.2755,-6.2705,-6.2578,-6.2449,-6.2344,-6.2146,-6.1656,-6.0926,-6.0251,-5.9183,-5.774,-5.6588,-5.5667,-5.479,-5.4242,-5.3915,-5.3718,-5.3551,-5.3518,-5.3518,-5.3518,-5.3518,-5.3518,-5.3518,-5.3518,-5.3518,-5.3518,-5.3518,-5.3518,-5.3518,-5.3518,-5.3518,-5.3518,-5.3518,-5.3518,-5.3518,-5.3518,-5.3518,-5.3518,-5.3518,-5.3518,-5.3518,-5.3518,-5.3518,-5.3518,-5.3518,-5.3518,-5.3518,-5.3518,-5.3517,-5.3651,-5.3749,-5.398,-5.4269,-5.4617,-5.4957,-5.5432,-5.5887,-5.6661,-5.7239,-5.7607,-5.7881,-5.7973,-5.7997,-5.7997,-5.7973,-5.7927,-5.7857,-5.7786,-5.7655,-5.7534,-5.7583,-5.7691,-5.7655,-5.7857,-5.7867,-5.7973,-5.7997,-5.7973,-5.795,-5.795,-5.7927,-5.7881,-5.7774,-5.7607,-5.7252,-5.6948,-5.6697,-5.6229,-5.5815,-5.559,-6.2805,-6.2805,-6.2805,-6.2805,-6.2755,-6.2578,-6.2397,-6.2132,-6.16,-6.1257,-6.1022,-6.0848,-6.0818,-6.1087,-6.1315,-6.1851,-6.2397,-6.2705,-6.278,-6.2805,-6.2805,-6.2805,-6.2805,-6.2805,-6.2805,-6.278,-6.273,-6.2654,-6.2603,-6.2603,-6.227,-6.1813,-6.1267,-6.025,-5.9023,-5.7733,-5.6694,-5.5663,-5.4859,-5.4207,-5.3849,-5.3651,-5.3518,-5.3518,-5.3518,-5.3518,-5.3518,-5.3518,-5.3518,-5.3518,-5.3518,-5.3518,-5.3518,-5.3518,-5.3518,-5.3518,-5.3518,-5.3518,-5.3518,-5.3518,-5.3518,-5.3518,-5.3518,-5.3518,-5.3518,-5.3518,-5.3518,-5.3518,-5.3518,-5.3518,-5.3518,-5.3551,-5.3518,-5.3517,-5.3718,-5.3915,-5.4173,-5.4676,-5.5074,-5.5467,-5.5922,-5.6384,-5.6871,-5.7388,-5.7679,-5.7881,-5.7973,-5.7997,-5.7997,-5.7997,-5.7973,-5.7927,-5.7881,-5.7857,-5.775,-5.7834,-5.7881,-5.7904,-5.7927,-5.7973,-5.7997,-5.7997,-5.7997,-5.7997,-5.7973,-5.795,-5.795,-5.7904,-5.7786,-5.7643,-5.7338,-5.6948,-5.6447,-5.6063,-5.5815,-6.2805,-6.2805,-6.2805,-6.2805,-6.278,-6.2654,-6.2526,-6.237,-6.1996,-6.1712,-6.1636,-6.1408,-6.135,-6.1494,-6.172,-6.2014,-6.2449,-6.2705,-6.278,-6.2805,-6.2805,-6.2805,-6.2805,-6.2805,-6.2805,-6.2805,-6.278,-6.2805,-6.2755,-6.2755,-6.273,-6.2384,-6.1759,-6.1189,-6.0368,-5.9059,-5.7847,-5.6829,-5.5737,-5.4796,-5.4047,-5.3685,-5.3518,-5.3518,-5.3518,-5.3518,-5.3518,-5.3518,-5.3518,-5.3518,-5.3518,-5.3518,-5.3518,-5.3518,-5.3518,-5.3518,-5.3518,-5.3518,-5.3518,-5.3518,-5.3518,-5.3518,-5.3518,-5.3518,-5.3518,-5.3518,-5.3551,-5.3653,-5.3754,-5.3957,-5.4126,-5.4025,-5.3923,-5.3822,-5.3989,-5.4216,-5.4399,-5.483,-5.549,-5.5922,-5.6393,-5.6819,-5.7264,-5.7486,-5.7786,-5.7904,-5.7997,-5.7997,-5.7997,-5.7997,-5.7997,-5.7997,-5.7973,-5.7973,-5.7914,-5.789,-5.795,-5.795,-5.7973,-5.7997,-5.7997,-5.7997,-5.8033,-5.8107,-5.7927,-5.7904,-5.795,-5.7964,-5.7763,-5.7607,-5.751,-5.7239,-5.674,-5.6311,-5.6014,-6.2805,-6.2842,-6.2842,-6.2805,-6.2853,-6.2764,-6.264,-6.2625,-6.2411,-6.2132,-6.2295,-6.2014,-6.2087,-6.2259,-6.2464,-6.2574,-6.2676,-6.2851,-6.2989,-6.2989,-6.2879,-6.2805,-6.2805,-6.2805,-6.2805,-6.2805,-6.2805,-6.2805,-6.2805,-6.2805,-6.278,-6.2657,-6.2446,-6.2026,-6.1173,-6.0322,-5.9661,-5.841,-5.6927,-5.5369,-5.4051,-5.3652,-5.3518,-5.3518,-5.3518,-5.3518,-5.3518,-5.3518,-5.3518,-5.3518,-5.3518,-5.3518,-5.3518,-5.3518,-5.3518,-5.3518,-5.3518,-5.3518,-5.3585,-5.3754,-5.3788,-5.3822,-5.3721,-5.3551,-5.3754,-5.3788,-5.3991,-5.4431,-5.4465,-5.4702,-5.5108,-5.5344,-5.5074,-5.4805,-5.4703,-5.4661,-5.4707,-5.5205,-5.586,-5.6284,-5.6714,-5.7102,-5.751,-5.7679,-5.7857,-5.7927,-5.7997,-5.7997,-5.7997,-5.7997,-5.7997,-5.7997,-5.7997,-5.7997,-5.7997,-5.7997,-5.818,-5.8143,-5.818,-5.8217,-5.851,-5.8621,-5.829,-5.8304,-5.816,-5.8163,-5.8309,-5.8225,-5.7801,-5.7607,-5.7534,-5.7338,-5.7036,-5.6644,-5.6292,-6.4237,-6.4237,-6.4237,-6.4237,-6.4211,-6.4123,-6.4134,-6.4108,-6.3951,-6.3872,-6.3809,-6.3639,-6.3611,-6.3646,-6.3915,-6.403,-6.3946,-6.3672,-6.3539,-6.3356,-6.3135,-6.2879,-6.2805,-6.2805,-6.2805,-6.2879,-6.2805,-6.2805,-6.2805,-6.2805,-6.2805,-6.278,-6.273,-6.2508,-6.1869,-6.1272,-6.0485,-5.923,-5.7474,-5.5715,-5.4727,-5.399,-5.3518,-5.3551,-5.3551,-5.3551,-5.3551,-5.3518,-5.3518,-5.3518,-5.3518,-5.3518,-5.3518,-5.3551,-5.3653,-5.4126,-5.4126,-5.4126,-5.416,-5.4499,-5.46,-5.4702,-5.4735,-5.4837,-5.4769,-5.4735,-5.4769,-5.5175,-5.5243,-5.5481,-5.5788,-5.5857,-5.5791,-5.5621,-5.5621,-5.5444,-5.5453,-5.5745,-5.6241,-5.666,-5.7108,-5.7617,-5.802,-5.8126,-5.822,-5.8097,-5.8143,-5.818,-5.807,-5.7997,-5.7997,-5.7997,-5.7997,-5.7997,-5.7997,-5.7997,-5.851,-5.8621,-5.8841,-5.8951,-5.9391,-5.9428,-5.9134,-5.91,-5.9298,-5.9189,-5.8945,-5.8397,-5.7923,-5.7765,-5.7583,-5.7533,-5.7442,-5.7031,-5.6573,-6.5925,-6.5888,-6.5485,-6.5338,-6.5338,-6.5338,-6.5275,-6.5275,-6.5124,-6.5108,-6.5118,-6.4928,-6.4902,-6.4938,-6.4971,-6.4987,-6.5061,-6.4626,-6.4457,-6.4127,-6.3833,-6.3576,-6.3539,-6.3429,-6.3209,-6.3135,-6.2915,-6.2842,-6.2805,-6.2805,-6.2805,-6.2805,-6.278,-6.2693,-6.2471,-6.1927,-6.1151,-5.996,-5.8008,-5.6573,-5.5645,-5.4736,-5.4296,-5.4093,-5.4025,-5.3957,-5.3788,-5.3788,-5.3822,-5.3518,-5.3788,-5.389,-5.389,-5.416,-5.4431,-5.4871,-5.504,-5.5243,-5.5277,-5.5446,-5.5683,-5.5681,-5.5681,-5.5478,-5.5546,-5.5716,-5.5886,-5.5953,-5.6057,-5.623,-5.654,-5.6746,-5.6748,-5.6782,-5.6644,-5.6496,-5.6437,-5.6733,-5.7194,-5.7845,-5.8249,-5.8457,-5.8737,-5.8734,-5.8621,-5.84,-5.8327,-5.8364,-5.8437,-5.8474,-5.8621,-5.8804,-5.8841,-5.8877,-5.8804,-5.8804,-5.9098,-5.9208,-5.9404,-5.9625,-6.0052,-6.0162,-5.9979,-6.0103,-6.0274,-5.9956,-5.9554,-5.8774,-5.8141,-5.8371,-5.8492,-5.8178,-5.7908,-5.75,-5.71,-6.754,-6.7393,-6.5962,-6.5411,-6.5411,-6.5338,-6.5375,-6.5521,-6.5385,-6.5422,-6.5506,-6.5359,-6.5443,-6.5396,-6.5543,-6.5506,-6.5385,-6.5238,-6.5228,-6.5228,-6.5154,-6.4897,-6.4677,-6.4273,-6.398,-6.387,-6.3392,-6.2989,-6.2842,-6.2842,-6.2842,-6.2805,-6.2805,-6.278,-6.2668,-6.2333,-6.1524,-6.0418,-5.8865,-5.7701,-5.6739,-5.5928,-5.5586,-5.5447,-5.5446,-5.5243,-5.4566,-5.4532,-5.4329,-5.3856,-5.4262,-5.4499,-5.46,-5.4938,-5.531,-5.5615,-5.6055,-5.6292,-5.6427,-5.619,-5.5818,-5.5749,-5.5852,-5.6021,-5.6122,-5.5852,-5.6055,-5.6665,-5.6838,-5.7358,-5.7874,-5.8357,-5.805,-5.8045,-5.79,-5.7714,-5.7685,-5.7719,-5.8243,-5.9006,-5.9294,-5.9308,-5.9481,-5.9515,-5.9391,-5.9171,-5.9134,-5.9208,-5.9575,-5.9685,-5.9832,-5.9979,-6.0052,-6.0089,-6.0126,-6.0126,-5.9942,-6.0052,-6.0272,-6.0419,-6.0603,-6.0639,-6.097,-6.0848,-6.0896,-6.0542,-6.0285,-5.9953,-5.9718,-5.959,-5.9408,-5.904,-5.8649,-5.8322,-5.7882,-6.7687,-6.7614,-6.699,-6.6769,-6.6769,-6.6769,-6.6769,-6.6769,-6.6769,-6.6769,-6.6733,-6.6769,-6.6769,-6.6733,-6.6769,-6.6769,-6.6696,-6.6182,-6.6109,-6.5815,-6.5632,-6.5375,-6.5154,-6.5118,-6.4824,-6.464,-6.4016,-6.3613,-6.3613,-6.3246,-6.2879,-6.2805,-6.2879,-6.2805,-6.273,-6.2526,-6.1833,-6.0991,-5.9769,-5.8542,-5.7758,-5.6609,-5.6064,-5.5892,-5.5751,-5.5615,-5.531,-5.5277,-5.5108,-5.5006,-5.5141,-5.5243,-5.531,-5.5683,-5.5987,-5.6325,-5.6731,-5.7002,-5.734,-5.7137,-5.707,-5.7036,-5.707,-5.7002,-5.69,-5.7002,-5.7137,-5.748,-5.7658,-5.8077,-5.8634,-5.9012,-5.9107,-5.9232,-5.9179,-5.9018,-5.899,-5.9016,-5.918,-5.9889,-5.9891,-5.9782,-6.0042,-6.0285,-6.0126,-5.9992,-6.0015,-6.0089,-6.0456,-6.0676,-6.0786,-6.0823,-6.086,-6.075,-6.075,-6.0676,-6.0639,-6.0896,-6.1153,-6.1263,-6.141,-6.1887,-6.2083,-6.1838,-6.1667,-6.1556,-6.1492,-6.1423,-6.1101,-6.0492,-6.0133,-5.9882,-5.9525,-5.916,-5.8844,-6.7687,-6.7687,-6.7687,-6.7687,-6.7687,-6.7687,-6.7687,-6.7687,-6.765,-6.7687,-6.7687,-6.7687,-6.7687,-6.7687,-6.765,-6.764,-6.743,-6.71,-6.6916,-6.6696,-6.6402,-6.6035,-6.5962,-6.5815,-6.5632,-6.5448,-6.4897,-6.4457,-6.442,-6.3833,-6.3576,-6.3392,-6.3172,-6.3135,-6.273,-6.2475,-6.2158,-6.154,-6.0617,-5.9448,-5.8741,-5.7771,-5.6953,-5.6813,-5.6601,-5.6292,-5.6156,-5.6021,-5.5852,-5.5784,-5.5852,-5.6021,-5.6122,-5.6292,-5.663,-5.6934,-5.7171,-5.7408,-5.7712,-5.7881,-5.7881,-5.7679,-5.7746,-5.778,-5.7881,-5.7918,-5.7782,-5.7925,-5.8173,-5.8597,-5.9149,-5.9582,-6.0033,-6.0203,-6.0357,-6.0255,-6.0291,-6.0339,-6.0464,-6.0745,-6.0737,-6.0978,-6.114,-6.141,-6.108,-6.108,-6.1239,-6.13,-6.1447,-6.1594,-6.1496,-6.152,-6.1484,-6.1337,-6.119,-6.141,-6.163,-6.1777,-6.1998,-6.2144,-6.2377,-6.2768,-6.2805,-6.245,-6.2363,-6.2606,-6.2482,-6.215,-6.1635,-6.1047,-6.082,-6.0639,-6.0528,-6.0191,-6.001,-6.7687,-6.7687,-6.7687,-6.7687,-6.7687,-6.7687,-6.7687,-6.7687,-6.7687,-6.7687,-6.7687,-6.7687,-6.7687,-6.7687,-6.7687,-6.7687,-6.7687,-6.7577,-6.7504,-6.7393,-6.7283,-6.743,-6.721,-6.6843,-6.6476,-6.6256,-6.5742,-6.5301,-6.5264,-6.4897,-6.4567,-6.4163,-6.3906,-6.3539,-6.2853,-6.2654,-6.2397,-6.1969,-6.135,-6.0544,-5.9762,-5.8971,-5.8359,-5.794,-5.762,-5.7171,-5.69,-5.6799,-5.6562,-5.6292,-5.6596,-5.6765,-5.6799,-5.7273,-5.7577,-5.7679,-5.7746,-5.7814,-5.7918,-5.7918,-5.7954,-5.8027,-5.8063,-5.8027,-5.7954,-5.7954,-5.8027,-5.8243,-5.8526,-5.9012,-5.9615,-6.0227,-6.0656,-6.1081,-6.1228,-6.1365,-6.1356,-6.134,-6.139,-6.1485,-6.2084,-6.2519,-6.262,-6.2585,-6.2144,-6.2108,-6.2438,-6.2487,-6.2401,-6.2291,-6.212,-6.2083,-6.2071,-6.2071,-6.2034,-6.2401,-6.2658,-6.2707,-6.267,-6.2633,-6.267,-6.2768,-6.278,-6.2817,-6.278,-6.273,-6.2755,-6.2743,-6.2215,-6.1748,-6.159,-6.1432,-6.1371,-6.1259,-6.108,-6.7687,-6.7687,-6.7687,-6.7687,-6.7687,-6.7687,-6.7687,-6.7687,-6.7687,-6.7687,-6.7687,-6.7687,-6.7687,-6.7687,-6.7687,-6.7687,-6.7687,-6.7687,-6.7687,-6.7687,-6.7687,-6.765,-6.754,-6.7393,-6.7247,-6.7063,-6.6549,-6.6109,-6.6072,-6.5778,-6.5338,-6.4897,-6.4383,-6.3649,-6.2975,-6.2679,-6.2475,-6.2185,-6.1684,-6.1081,-6.0446,-5.9648,-5.8978,-5.8526,-5.8135,-5.7749,-5.7476,-5.7442,-5.7239,-5.7002,-5.7374,-5.7408,-5.7442,-5.7848,-5.7848,-5.7881,-5.7918,-5.7954,-5.8063,-5.8207,-5.835,-5.8385,-5.8385,-5.835,-5.8421,-5.8314,-5.8385,-5.8562,-5.8909,-5.9417,-6.0005,-6.0656,-6.1133,-6.1636,-6.1832,-6.1969,-6.2032,-6.2005,-6.2003,-6.2178,-6.2603,-6.2679,-6.2755,-6.278,-6.2548,-6.2438,-6.2658,-6.2732,-6.2622,-6.2658,-6.2585,-6.2585,-6.2622,-6.2695,-6.2805,-6.2805,-6.2805,-6.2768,-6.2768,-6.2768,-6.2805,-6.2805,-6.2805,-6.278,-6.2805,-6.2805,-6.2805,-6.278,-6.2755,-6.2522,-6.2228,-6.2155,-6.2093,-6.2116,-6.2124,-6.7687,-6.7687,-6.7687,-6.7687,-6.7687,-6.7687,-6.7687,-6.7687,-6.7687,-6.7687,-6.7687,-6.7687,-6.7687,-6.7687,-6.7687,-6.7687,-6.7687,-6.7687,-6.7687,-6.7687,-6.7687,-6.7687,-6.7687,-6.7687,-6.7577,-6.7504,-6.7283,-6.6916,-6.6916,-6.6402,-6.6035,-6.5632,-6.4934,-6.442,-6.3734,-6.3254,-6.2603,-6.2344,-6.1906,-6.1401,-6.0722,-5.9972,-5.9148,-5.8667,-5.8209,-5.7848,-5.7881,-5.7881,-5.7881,-5.7918,-5.7918,-5.7918,-5.7918,-5.7918,-5.7881,-5.7881,-5.7991,-5.8135,-5.835,-5.8702,-5.9012,-5.9349,-5.9012,-5.884,-5.8909,-5.884,-5.8875,-5.9046,-5.9351,-5.9908,-6.0538,-6.1098,-6.1592,-6.2078,-6.2291,-6.2397,-6.2449,-6.2397,-6.2423,-6.2603,-6.2654,-6.273,-6.278,-6.278,-6.2732,-6.2768,-6.2805,-6.2805,-6.2805,-6.2805,-6.2805,-6.2805,-6.2805,-6.2805,-6.2805,-6.2805,-6.2805,-6.2805,-6.2805,-6.2805,-6.2805,-6.2805,-6.2805,-6.2805,-6.2805,-6.2805,-6.2805,-6.278,-6.278,-6.278,-6.2707,-6.267,-6.2805,-6.273,-6.2654,-6.7687,-6.7687,-6.7687,-6.7687,-6.7687,-6.7687,-6.7687,-6.7687,-6.7687,-6.7687,-6.7687,-6.7687,-6.7687,-6.7687,-6.7687,-6.7687,-6.7687,-6.7687,-6.7687,-6.7687,-6.7687,-6.7687,-6.7687,-6.7687,-6.7687,-6.7687,-6.754,-6.743,-6.764,-6.732,-6.6953,-6.6476,-6.5742,-6.5301,-6.4725,-6.4002,-6.3218,-6.2892,-6.2204,-6.1672,-6.0986,-6.0033,-5.9317,-5.8737,-5.8243,-5.7954,-5.7881,-5.7881,-5.7918,-5.7918,-5.7918,-5.7918,-5.7918,-5.7952,-5.7918,-5.7954,-5.8099,-5.8385,-5.8771,-5.9182,-5.9744,-6.0097,-5.9776,-5.9516,-5.9418,-5.9417,-5.9417,-5.9615,-5.9908,-6.0472,-6.1075,-6.1564,-6.2068,-6.237,-6.2629,-6.2705,-6.273,-6.273,-6.273,-6.278,-6.2755,-6.278,-6.278,-6.2805,-6.2805,-6.2805,-6.2805,-6.2805,-6.2805,-6.2805,-6.2805,-6.2805,-6.2805,-6.2805,-6.2805,-6.2805,-6.2805,-6.2805,-6.2805,-6.2805,-6.2805,-6.2805,-6.2805,-6.2805,-6.2805,-6.2805,-6.2805,-6.2805,-6.278,-6.2805,-6.2805,-6.2805,-6.2805,-6.2805,-6.2755,-6.7687,-6.7687,-6.7687,-6.7687,-6.7687,-6.7687,-6.7687,-6.7687,-6.7687,-6.7687,-6.7687,-6.7687,-6.7687,-6.7687,-6.7687,-6.7687,-6.7687,-6.7687,-6.7687,-6.7687,-6.7687,-6.7687,-6.7687,-6.7687,-6.7687,-6.7687,-6.7687,-6.7687,-6.765,-6.7687,-6.7677,-6.7247,-6.6512,-6.6219,-6.5815,-6.5118,-6.4395,-6.358,-6.2784,-6.2021,-6.1182,-6.0234,-5.9485,-5.8875,-5.8243,-5.7954,-5.7881,-5.7881,-5.7954,-5.8063,-5.8099,-5.8135,-5.8312,-5.8205,-5.8133,-5.8135,-5.8314,-5.8597,-5.9081,-5.9582,-6.016,-6.0782,-6.0722,-6.06,-6.0415,-6.0164,-6.0036,-6.0164,-6.0446,-6.0956,-6.1422,-6.1906,-6.2318,-6.2552,-6.273,-6.278,-6.2805,-6.2805,-6.2805,-6.2805,-6.2805,-6.2805,-6.2805,-6.2805,-6.2805,-6.2805,-6.2805,-6.2805,-6.2805,-6.2805,-6.2805,-6.2805,-6.2805,-6.2805,-6.2805,-6.2805,-6.2805,-6.2805,-6.2805,-6.2805,-6.2805,-6.2805,-6.2805,-6.2805,-6.2805,-6.2805,-6.2805,-6.2805,-6.2805,-6.2805,-6.2805,-6.2805,-6.2805,-6.2805,-6.2805,-6.7687,-6.7687,-6.7687,-6.7687,-6.7687,-6.7687,-6.7687,-6.7687,-6.7687,-6.7687,-6.7687,-6.7687,-6.7687,-6.7687,-6.7687,-6.7687,-6.7687,-6.7687,-6.7687,-6.7687,-6.776,-6.7687,-6.7687,-6.7724,-6.7687,-6.7687,-6.7687,-6.7687,-6.7687,-6.7687,-6.7677,-6.764,-6.71,-6.7026,-6.6733,-6.6145,-6.5558,-6.4752,-6.3848,-6.2755,-6.1741,-6.0678,-5.9795,-5.9047,-5.8346,-5.8058,-5.7952,-5.7952,-5.7991,-5.8135,-5.8171,-5.8312,-5.8455,-5.8384,-5.8384,-5.8421,-5.8702,-5.9081,-5.9549,-6.0192,-6.0747,-6.1263,-6.1559,-6.1523,-6.1263,-6.0933,-6.0757,-6.0696,-6.0992,-6.1372,-6.1768,-6.2185,-6.2423,-6.2679,-6.273,-6.278,-6.2805,-6.2805,-6.2805,-6.2805,-6.2805,-6.2805,-6.2805,-6.2805,-6.2805,-6.2805,-6.2805,-6.2805,-6.2805,-6.2805,-6.2805,-6.2805,-6.2805,-6.2805,-6.2805,-6.2805,-6.2805,-6.2805,-6.2805,-6.2805,-6.2805,-6.2805,-6.2805,-6.2805,-6.2805,-6.2805,-6.2805,-6.2805,-6.2805,-6.2805,-6.2805,-6.2805,-6.2805,-6.2805,-6.2805,-6.7687,-6.7687,-6.776,-6.7834,-6.7797,-6.7971,-6.7981,-6.7871,-6.8017,-6.7834,-6.7724,-6.7687,-6.7687,-6.7687,-6.7687,-6.7797,-6.7907,-6.7981,-6.8164,-6.7871,-6.8238,-6.8201,-6.7981,-6.7797,-6.7871,-6.776,-6.7687,-6.7687,-6.7687,-6.7687,-6.7687,-6.7687,-6.7614,-6.7504,-6.7357,-6.6916,-6.6476,-6.6213,-6.5186,-6.4101,-6.2755,-6.1545,-6.0321,-5.9426,-5.8728,-5.8189,-5.8087,-5.8056,-5.8058,-5.8169,-5.8278,-5.835,-5.8561,-5.8632,-5.8702,-5.8909,-5.9217,-5.9855,-6.0438,-6.1127,-6.176,-6.2157,-6.2322,-6.2522,-6.2426,-6.1868,-6.1569,-6.1611,-6.1946,-6.2449,-6.2885,-6.3245,-6.3507,-6.361,-6.3661,-6.3686,-6.3686,-6.3649,-6.3539,-6.3466,-6.3282,-6.3209,-6.2805,-6.2805,-6.2805,-6.2805,-6.2805,-6.2805,-6.2879,-6.2879,-6.2879,-6.2879,-6.2805,-6.2805,-6.2805,-6.2805,-6.2805,-6.2805,-6.2805,-6.2805,-6.2805,-6.2805,-6.2805,-6.2805,-6.2805,-6.2805,-6.2805,-6.2805,-6.2805,-6.2805,-6.2805,-6.2805,-6.2805,-6.2805,-6.2805,-6.7687,-6.776,-6.8348,-6.8605,-6.8715,-6.9265,-6.9486,-6.9522,-6.9522,-6.8825,-6.7871,-6.7724,-6.776,-6.7907,-6.7934,-6.8128,-6.8531,-6.8641,-6.9009,-6.9229,-6.9339,-6.8935,-6.8715,-6.8568,-6.8274,-6.7834,-6.7687,-6.7687,-6.7687,-6.7687,-6.7687,-6.7687,-6.7687,-6.7687,-6.7687,-6.7283,-6.7283,-6.7183,-6.649,-6.5236,-6.3765,-6.2592,-6.1464,-6.0773,-6.0206,-5.9358,-5.9115,-5.8801,-5.8645,-5.8484,-5.8561,-5.8771,-5.9081,-5.9217,-5.9385,-5.9584,-6.0086,-6.0811,-6.162,-6.2335,-6.2944,-6.3657,-6.3975,-6.3994,-6.3719,-6.3004,-6.2652,-6.2724,-6.2983,-6.3518,-6.3975,-6.4244,-6.4479,-6.4541,-6.4567,-6.4567,-6.4541,-6.4457,-6.431,-6.409,-6.3833,-6.3503,-6.3135,-6.2915,-6.2805,-6.2805,-6.2805,-6.2842,-6.2989,-6.3025,-6.3062,-6.3025,-6.2842,-6.2805,-6.2805,-6.2805,-6.2805,-6.2805,-6.2805,-6.2805,-6.2805,-6.2805,-6.2805,-6.2805,-6.2805,-6.2805,-6.2805,-6.2805,-6.2805,-6.2805,-6.2805,-6.2805,-6.2805,-6.2805,-6.2805,-6.7907,-6.8311,-6.9082,-6.9412,-6.9522,-6.9926,-7.011,-7.011,-7.011,-6.9633,-6.8825,-6.8752,-6.8752,-6.8752,-6.8779,-6.8862,-6.9376,-6.9449,-6.9596,-6.9963,-7.0183,-6.9779,-6.9559,-6.9412,-6.8898,-6.8385,-6.7834,-6.7687,-6.7724,-6.7687,-6.7687,-6.7687,-6.7687,-6.7687,-6.7687,-6.7687,-6.7687,-6.765,-6.7247,-6.6257,-6.4842,-6.374,-6.2433,-6.1849,-6.0971,-6.033,-6.0004,-5.9655,-5.9528,-5.9518,-5.9631,-5.9838,-6.0141,-6.0373,-6.0806,-6.1341,-6.1832,-6.2271,-6.3069,-6.3724,-6.4148,-6.474,-6.4931,-6.4721,-6.4731,-6.4093,-6.3969,-6.4041,-6.3852,-6.4293,-6.4548,-6.4841,-6.4956,-6.4982,-6.5007,-6.5007,-6.5007,-6.4971,-6.4861,-6.4787,-6.4604,-6.4567,-6.4273,-6.4273,-6.4163,-6.4163,-6.398,-6.3833,-6.3796,-6.3466,-6.3392,-6.3319,-6.3246,-6.2952,-6.2805,-6.2805,-6.2805,-6.2805,-6.2805,-6.2805,-6.2805,-6.2805,-6.2805,-6.2805,-6.2805,-6.2805,-6.2805,-6.2805,-6.2805,-6.2805,-6.2805,-6.2805,-6.2805,-6.2805,-6.2805,-6.8348,-6.9119,-6.9926,-7.0257,-7.0257,-7.0403,-7.0477,-7.0477,-7.044,-7.044,-7.0403,-7.0403,-7.033,-7.011,-7.011,-7.0183,-7.022,-7.0257,-7.033,-7.055,-7.0587,-7.0513,-7.0403,-7.0183,-6.9706,-6.9045,-6.8385,-6.8091,-6.7981,-6.7834,-6.7687,-6.7687,-6.7687,-6.7687,-6.7687,-6.7687,-6.7687,-6.7606,-6.7359,-6.7011,-6.6055,-6.5023,-6.3674,-6.2439,-6.153,-6.1023,-6.0731,-6.0547,-6.0551,-6.0691,-6.0843,-6.121,-6.153,-6.1817,-6.2377,-6.2969,-6.3287,-6.3827,-6.4525,-6.4812,-6.5177,-6.5457,-6.5374,-6.5421,-6.554,-6.5478,-6.533,-6.5294,-6.5104,-6.5113,-6.5404,-6.5563,-6.5616,-6.5705,-6.5705,-6.5668,-6.5668,-6.5668,-6.5595,-6.5558,-6.5448,-6.5411,-6.5301,-6.5301,-6.5338,-6.5338,-6.5375,-6.5338,-6.5118,-6.4567,-6.4237,-6.4127,-6.4016,-6.3613,-6.3025,-6.2952,-6.2989,-6.2805,-6.2805,-6.2805,-6.2805,-6.2805,-6.2805,-6.2805,-6.2805,-6.2805,-6.2805,-6.2805,-6.2805,-6.2805,-6.2805,-6.2805,-6.2805,-6.2805,-6.2805,-6.9155,-6.9926,-7.0734,-7.1064,-7.1174,-7.1725,-7.2055,-7.2055,-7.1982,-7.2055,-7.1908,-7.1872,-7.1431,-7.011,-7.011,-7.0367,-7.1064,-7.1101,-7.1578,-7.1982,-7.1725,-7.1468,-7.1211,-7.0881,-7.0513,-6.9853,-6.9119,-6.8752,-6.8605,-6.8128,-6.7724,-6.776,-6.776,-6.7724,-6.7687,-6.7687,-6.7687,-6.7606,-6.7524,-6.7275,-6.6831,-6.5956,-6.5166,-6.425,-6.3623,-6.281,-6.2061,-6.1518,-6.122,-6.132,-6.1879,-6.2467,-6.2942,-6.331,-6.3853,-6.4347,-6.4664,-6.5109,-6.5606,-6.5888,-6.617,-6.6726,-6.6736,-6.6728,-6.6774,-6.6729,-6.6682,-6.6738,-6.6656,-6.6656,-6.6856,-6.6936,-6.699,-6.699,-6.699,-6.699,-6.699,-6.688,-6.6806,-6.6549,-6.6256,-6.5999,-6.5595,-6.5595,-6.5632,-6.5632,-6.5668,-6.5668,-6.5742,-6.5411,-6.5081,-6.4934,-6.4787,-6.3906,-6.3135,-6.3184,-6.3184,-6.2989,-6.2842,-6.2952,-6.2915,-6.2842,-6.2805,-6.2805,-6.2805,-6.2805,-6.2805,-6.2805,-6.2805,-6.2805,-6.2805,-6.2805,-6.2805,-6.2805,-6.2805]},{"header":{"parameterUnit":"m.s-1","parameterCategory":1,"la1":31.0,"la2":29.5877,"lo1":-88.7671,"lo2":-86.6584,"dy":0.0162,"dx":0.0185,"nx":115,"ny":88,"refTime":"2025-03-13T18:00:00:Z","depth":0,"parameterNumber":3,"parameterNumberName":"V-component_of_WINDS"},"data":[0.0,0.0,0.0,0.0,0.0,0.0,0.0,0.0,0.0,0.0,0.0,0.0,0.0,0.0,0.0,0.0,0.0,0.0,0.0,0.0,0.0,0.0,0.0,0.0,0.0,0.0,0.0,0.0,0.0,0.0,0.0,0.0,0.0,0.0,0.0,0.0,0.0,0.0,0.0,0.0,0.0,0.0,0.0,0.0,0.0,0.0,0.0,0.0,0.0,0.0,0.0,0.0,0.0,0.0,0.0,0.0,0.0,0.0,0.0,0.0,0.0,0.0,0.0,0.0,0.0,0.0,0.0,0.0,0.0,0.0,0.0,0.0,0.0,0.0,0.0,0.0,0.0,0.0,0.0,0.0,0.0,0.0,0.0,0.0,0.0,0.0,0.0,0.0,0.0,0.0,0.0,0.0,0.0,0.0,0.0,0.0,0.0,0.0,0.0,0.0,0.0,0.0,0.0,0.0,0.0,0.0,0.0,0.0,0.0,0.0,0.0,0.0,0.0,0.0,0.0,0.0,0.0,0.0,0.0,0.0,0.0,0.0,0.0,0.0,0.0,0.0,0.0,0.0,0.0,0.0,0.0,0.0,0.0,0.0,0.0,0.0,0.0,0.0,0.0,0.0,0.0,0.0,0.0,0.0,0.0,0.0,0.0,0.0,0.0,0.0,0.0,0.0,0.0,0.0,0.0,0.0,0.0,0.0,0.0,0.0,0.0,0.0,0.0,0.0,0.0,0.0,0.0,0.0,0.0,0.0,0.0,0.0,0.0,0.0,0.0,0.0,0.0,0.0,0.0,0.0,0.0,0.0,0.0,0.0,0.0,0.0,0.0,0.0,0.0,0.0,0.0,0.0,0.0,0.0,0.0,0.0,0.0,0.0,0.0,0.0,0.0,0.0,0.0,0.0,0.0,0.0,0.0,0.0,0.0,0.0,0.0,0.0,0.0,0.0,0.0,0.0,0.0,0.0,0.0,0.0,0.0,0.0,0.0,0.0,0.0,0.0,0.0,0.0,0.0,0.0,0.0,0.0,0.0,0.0,0.0,0.0,0.0,0.0,0.0,0.0,0.0,0.0,0.0,0.0,0.0,0.0,0.0,0.0,0.0,0.0,0.0,0.0,0.0,0.0,0.0,0.0,0.0,0.0,0.0,0.0,0.0,0.0,0.0,0.0,0.0,0.0,0.0,0.0,0.0,0.0,0.0,0.0,0.0,0.0,0.0,0.0,0.0,0.0,0.0,0.0,0.0,0.0,0.0,0.0,0.0,0.0,0.0,0.0,0.0,0.0,0.0,0.0,0.0,0.0,0.0,0.0,0.0,0.0,0.0,0.0,0.0,0.0,0.0,0.0,0.0,0.0,0.0,0.0,0.0,0.0,0.0,0.0,0.0,0.0,0.0,0.0,0.0,0.0,0.0,0.0,0.0,0.0,0.0,0.0,0.0,0.0,0.0,0.0,0.0,0.0,0.0,0.0,0.0,0.0,0.0,0.0,0.0,0.0,0.0,0.0,0.0,0.0,0.0,0.0,0.0,0.0,0.0,0.0,0.0,0.0,0.0,0.0,0.0,0.0,0.0,0.0,0.0,0.0,0.0,0.0,0.0,0.0,0.0,0.0,0.0,0.0,0.0,0.0,0.0,0.0,0.0,0.0,0.0,0.0,0.0,0.0,0.0,0.0,0.0,0.0,0.0,0.0,0.0,0.0,0.0,0.0,0.0,0.0,0.0,0.0,0.0,0.0,0.0,0.0,0.0,0.0,0.0,0.0,0.0,0.0,0.0,0.0,0.0,0.0,0.0,0.0,0.0,0.0,0.0,0.0,0.0,0.0,0.0,0.0,0.0,0.0,0.0,0.0,0.0,0.0,0.0,0.0,0.0,0.0,0.0,0.0,0.0,0.0,0.0,0.0,0.0,0.0,0.0,0.0,0.0,0.0,0.0,0.0,0.0,0.0,0.0,0.0,0.0,0.0,0.0,0.0,0.0,0.0,0.0,0.0,0.0,0.0,0.0,0.0,0.0,0.0,0.0,0.0,0.0,0.0,0.0,0.0,0.0,0.0,0.0,0.0,0.0,0.0,0.0,0.0,0.0,0.0,0.0,0.0,0.0,0.0,0.0,0.0,0.0,0.0,0.0,0.0,0.0,0.0,0.0,0.0,0.0,0.0,0.0,0.0,0.0,0.0,0.0,0.0,0.0,0.0,0.0,0.0,0.0,0.0,0.0,0.0,0.0,0.0,0.0,0.0,0.0,0.0,0.0,0.0,0.0,0.0,0.0,0.0,0.0,0.0,0.0,0.0,0.0,0.0,0.0,0.0,0.0,0.0,0.0,0.0,0.0,0.0,0.0,0.0,0.0,0.0,0.0,0.0,0.0,0.0,0.0,0.0,0.0,0.0,0.0,0.0,0.0,0.0,0.0,0.0,0.0,0.0,0.0,0.0,0.0,0.0,0.0,0.0,0.0,0.0,0.0,0.0,0.0,0.0,0.0,0.0,0.0,0.0,0.0,0.0,0.0,0.0,0.0,0.0,0.0,0.0,0.0,0.0,0.0,0.0,0.0,0.0,0.0,0.0,0.0,0.0,0.0,0.0,0.0,0.0,0.0,0.0,0.0,0.0,0.0,0.0,0.0,0.0,0.0,0.0,0.0,0.0,0.0,0.0,0.0,0.0,0.0,0.0,0.0,0.0,0.0,0.0,0.0,0.0,0.0,0.0,0.0,0.0,0.0,0.0,0.0,0.0,0.0,0.0,0.0,0.0,0.0,0.0,0.0,0.0,0.0,0.0,0.0,0.0,0.0,0.0,0.0,0.0,0.0,0.0,0.0,0.0,0.0,0.0,0.0,0.0,0.0,0.0,0.0,0.0,0.0,0.0,0.0,0.0,0.0,0.0,0.0,0.0,0.0,0.0,0.0,0.0,0.0,0.0,0.0,0.0,0.0,0.0,0.0,0.0,0.0,0.0,0.0,0.0,0.0,0.0,0.0,0.0,0.0,0.0,0.0,0.0,0.0,0.0,0.0,0.0,0.0,0.0,0.0,0.0,0.0,0.0,0.0,0.0,0.0,0.0,0.0,0.0,0.0,0.0,0.0,0.0,0.0,0.0,0.0,0.0,0.0,0.0,0.0,0.0,0.0,0.0,0.0,0.0,0.0,0.0,0.0,0.0,0.0,0.0,0.0,0.0,0.0,0.0,0.0,0.0,0.0,0.0,0.0,0.0,0.0,0.0,0.0,0.0,0.0,0.0,0.0,0.0,0.0,0.0,0.0,0.0,0.0,0.0,0.0,0.0,0.0,0.0,0.0,0.0,0.0,0.0,0.0,0.0,0.0,0.0,0.0,0.0,0.0,0.0,0.0,0.0,0.0,0.0,0.0,0.0,0.0,0.0,0.0,0.0,0.0,0.0,0.0,0.0,0.0,0.0,0.0,0.0,0.0,0.0,0.0,0.0,0.0,0.0,0.0,0.0,0.0,0.0,0.0,0.0,0.0,0.0,0.0,0.0,0.0,0.0,0.0,0.0,0.0,0.0,0.0,0.0,0.0,0.0,0.0,0.0,0.0,0.0,0.0,0.0,0.0,0.0,0.0,0.0,0.0,0.0,0.0,0.0,0.0,0.0,0.0,0.0,0.0,0.0,0.0,0.0,0.0,0.0,0.0,0.0,0.0,0.0,0.0,0.0,0.0,0.0,0.0,0.0,0.0,0.0,0.0,0.0,0.0,0.0,0.0,0.0,0.0,0.0,0.0,0.0,0.0,0.0,0.0,0.0,0.0,0.0,0.0,0.0,0.0,0.0,0.0,0.0,0.0,0.0,0.0,0.0,0.0,0.0,0.0,0.0,0.0,0.0,0.0,0.0,0.0,0.0,0.0,0.0,0.0,0.0,0.0,0.0,0.0,0.0,0.0,0.0,0.0,0.0,0.0,0.0,0.0,0.0,0.0,0.0,0.0,0.0,0.0,0.0,0.0,0.0,0.0,0.0,0.0,0.0,0.0,0.0,0.0,0.0,0.0,0.0,0.0,0.0,0.0,0.0,0.0,0.0,0.0,0.0,0.0,0.0,0.0,0.0,0.0,0.0,0.0,0.0,0.0,0.0,0.0,0.0,0.0,0.0,0.0,0.0,0.0,0.0,0.0,0.0,0.0,0.0,0.0,0.0,0.0,0.0,0.0,0.0,0.0,0.0,0.0,0.0,0.0,0.0,0.0,0.0,0.0,0.0,0.0,0.0,0.0,0.0,0.0,0.0,0.0,0.0,0.0,0.0,0.0,0.0,0.0,0.0,0.0,0.0,0.0,0.0,0.0,0.0,0.0,0.0,0.0,0.0,0.0,0.0,0.0,0.0,0.0,0.0,0.0,0.0,0.0,0.0,0.0,0.0,0.0,0.0,0.0,0.0,0.0,0.0,0.0,0.0,0.0,0.0,0.0,0.0,0.0,0.0,0.0,0.0,0.0,0.0,0.0,0.0,0.0,0.0,0.0,0.0,0.0,0.0,0.0,0.0,0.0,0.0,0.0,0.0,0.0,0.0,0.0,0.0,0.0,0.0,0.0,0.0,0.0,0.0,0.0,0.0,0.0,0.0,0.0,0.0,0.0,0.0,0.0,0.0,0.0,0.0,0.0,0.0,0.0,0.0,0.0,0.0,0.0,0.0,0.0,0.0,0.0,0.0,0.0,0.0,0.0,0.0,0.0,0.0,0.0,0.0,0.0,0.0,0.0,0.0,0.0,0.0,0.0,0.0,0.0,0.0,0.0,0.0,0.0,0.0,0.0,0.4547,0.2902,0.161,0.0681,0.0076,0.0,0.0,0.0,0.0,0.0,0.0,0.0,0.0,0.0,0.0,0.0,0.0,0.0,0.0,0.0,0.0,0.0,0.0,0.0,0.0,0.0,0.0,0.0,0.0,0.0,0.0,0.0,0.0,0.0,0.0,0.0,0.0,0.0,0.0,0.0,0.0,0.0,0.0,0.0,0.0,0.0,0.0,0.0,0.0,0.0,0.0,0.0,0.0,0.0,0.0,0.0,0.0,0.0,0.0,0.0,0.0,0.0,0.0,0.0,0.0,0.0,0.0,0.0,0.0,0.0,0.0,0.0,0.0,0.0,0.0,0.0,0.0,0.0,0.0,0.0,0.0,0.0,0.0,0.0,0.0,0.0,0.0,0.0,0.0,0.0,0.0,0.0,0.0,0.0,0.0,0.0,0.0,0.0,0.0,0.0,0.0,0.0,0.0,0.0,0.0,0.0,0.0,0.0,0.0,0.0,0.0,0.0,0.0,0.0,0.0,0.0,0.0,0.2071,0.1054,0.0223,0.0,0.0,0.0,0.0,0.0,0.0,0.0,0.0,0.0,0.0,0.0,0.0,0.0,0.0,0.0,0.0,0.0,0.0,0.0,0.0,0.0,0.0,0.0,0.0,0.0,0.0,0.0,0.0,0.0,0.0,0.0,0.0,0.0,0.0,0.0,0.0,0.0,0.0,0.0,0.0,0.0,0.0,0.0,0.0,0.0,0.0,0.0,0.0,0.0,0.0,0.0,0.0,0.0,0.0,0.0,0.0,0.0,0.0,0.0,0.0,0.0,0.0,0.0,0.0,0.0,0.0,0.0,0.0,0.0,0.0,0.0,0.0,0.0,0.0,0.0,0.0,0.0,0.0,0.0,0.0,0.0,0.0,0.0,0.0,0.0,0.0,0.0,0.0,0.0,0.0,0.0,0.0,0.0,0.0,0.0,0.0,0.0,0.0,0.0,0.0,0.0,0.0,0.0,0.0,0.0,0.0,0.0,0.0,0.0,0.0,0.5799,0.3766,0.2531,0.0,0.0638,0.0,0.0,0.0,0.0,0.0,0.0,0.0,0.0,0.0,0.0,0.0,0.0,0.0,0.0,0.0,0.0,0.0,0.0,0.0,0.0,0.0,0.0,0.0,0.0,0.0,0.0,0.0,0.0,0.0,0.0,0.0,0.0,0.0,0.0,0.0,0.0,0.0,0.0,0.0,0.0,0.0,0.0,0.0,0.0,0.0,0.0,0.0,0.0,0.0,0.0,0.0,0.0,0.0,0.0,0.0,0.0,0.0,0.0,0.0,0.0,0.0,0.0,0.0,0.0,0.0,0.0,0.0,0.0,0.0,0.0,0.0,0.0,0.0,0.0,0.0,0.0,0.0,0.0,0.0,0.0,0.0,0.0,0.0,0.0,0.0,0.0,0.0,0.0,0.0,0.0,0.0,0.0,0.0,0.0,0.0,0.0,0.0,0.0,0.0,0.0,0.0,0.0,0.0,0.0,0.0,0.0,0.0,0.0,0.0,0.0,0.626,0.4455,0.2267,0.1028,0.0,0.0,0.0,0.0,0.0,0.0,0.0,0.0,0.0,0.0,0.0,0.0,0.0,0.0,0.0,0.0,0.0,0.0,0.0,0.0,0.0,0.0,0.0,0.0,0.0,0.0,0.0,0.0,0.0,0.0,0.0,0.0,0.0,0.0,0.0,0.0,0.0,0.0,0.0,0.0,0.0,0.0,0.0,0.0,0.0,0.0,0.0,0.0,0.0,0.0,0.0,0.0,0.0,0.0,0.0,0.0,0.0,0.0,0.0,0.0,0.0,0.0,0.0,0.0,0.0,0.0,0.0,0.0,0.0,0.0,0.0,0.0,0.0,0.0,0.0,0.0,0.0,0.0,0.0,0.0,0.0,0.0,0.0,0.0,0.0,0.0,0.0,0.0,0.0,0.0,0.0,0.0,0.0,0.0,0.0,0.0,0.0,0.0,0.0,0.0,0.0,0.0,0.0,0.0,0.0,0.0,0.0,0.0,0.0,0.0,0.8517,0.6546,0.4364,0.201,0.0873,0.1123,0.0,0.0,0.0,0.0,0.0,0.0,0.0,0.0,0.0,0.0,0.0,0.0,0.0,0.0,0.0,0.0,0.0,0.0,0.0,0.0,0.0,0.0,0.0,0.0,0.0,0.0,0.0,0.0,0.0,0.0,0.0,0.0,0.0,0.0,0.0,0.0,0.0,0.0,0.0,0.0,0.0,0.0,0.0,0.0,0.0,0.0,0.0,0.0,0.0,0.0,0.0,0.0,0.0,0.0,0.0,0.0,0.0,0.0,0.0,0.0,0.0,0.0,0.0,0.0,0.0,0.0,0.0,0.0,0.0,0.0,0.0,0.0,0.0,0.0,0.0,0.0,0.0,0.0,0.0,0.0,0.0,0.0,0.0,0.0,0.0,0.0,0.0,0.0,0.0,0.0,0.0,0.0,0.0,0.0,0.0,0.0,0.0,0.0,0.0,0.0,0.0,0.0,0.0,0.0,0.0,0.0,0.0,0.0,0.0,0.8935,0.6612,0.327,0.1836,0.1154,0.0,0.0,0.0,0.0,0.0,0.0,0.0,0.0,0.0,0.0,0.0,0.0,0.0,0.0,0.0,0.0,0.0,0.0,0.0,0.0,0.0,0.0,0.0,0.0,0.0,0.0,0.0,0.0,0.0,0.0,0.0,0.0,0.0,0.0,0.0,0.0,0.0,0.0,0.0,0.0,0.0,0.0,0.0,0.0,0.0,0.0,0.0,0.0,0.0,0.0,0.0,0.0,0.0,0.0,0.0,0.0,0.0,0.0,0.0,0.0,0.0,0.0,0.0,0.0,0.0,0.0,0.0,0.0,0.0,0.0,0.0,0.0,0.0,0.0,0.0,0.0,0.0,0.0,0.0,0.0,0.0,0.0,0.0,0.0,0.0,0.0,0.0,0.0,0.0,0.0,0.0,0.0,0.0,0.0,0.0,0.0,0.0,0.0,0.0,0.0,0.0,0.0,0.0,0.0,0.0,0.0,0.0,0.0,0.0,1.0607,0.8601,0.6279,0.3853,0.2547,0.1785,0.0,0.0,0.0,0.0,0.0,0.0,0.0,0.0,0.0,0.0,0.0,0.0,0.0,0.0,0.0,0.0,0.0,0.0,0.0,0.0,0.0,0.0,0.0,0.0,0.0,0.0,0.0,0.0,0.0,0.0,0.0,0.0,0.0,0.0,0.0,0.0,0.0,0.0,0.0,0.0,0.0,0.0,0.0,0.0,0.0,0.0,0.0,0.0,0.0,0.0,0.0,0.0,0.0,0.0,0.0,0.0,0.0,0.0,0.0,0.0,0.0,0.0,0.0,0.0,0.0,0.0,0.0,0.0,0.0,0.0,0.0,0.0,0.0,0.0,0.0,0.0,0.0,0.0,0.0,0.0,0.0,0.0,0.0,0.0,0.0,0.0,0.0,0.0,0.0,0.0,0.0,0.0,0.0,0.0,0.0,0.0,0.0,0.0,0.0,0.0,0.0,0.0,0.0,0.0,0.0,0.0,0.0,0.0,0.0,1.0606,0.0,0.6268,0.4389,0.316,0.2255,0.0,0.0,0.0,0.0,0.0,0.0,0.0,0.0,0.0,0.0,0.0,0.0,0.0,0.0,0.0,0.0,0.0,0.0,0.0,0.0,0.0,0.0,0.0,0.0,0.0,0.0,0.0,0.0,0.0,0.0,0.0,0.0,0.0,0.0,0.0,0.0,0.0,0.0,0.0,0.0,0.0,0.0,0.0,0.0,0.0,0.0,0.0,0.0,0.0,0.0,0.0,0.0,0.0,0.0,0.0,0.0,0.0,0.0,0.0,0.0,0.0,0.0,0.0,0.0,0.0,0.0,0.0,0.0,0.0,0.0,0.0,0.0,0.0,0.0,0.0,0.0,0.0,0.0,0.0,0.0,0.0,0.0,0.0,0.0,0.0,0.0,0.0,0.0,0.0,0.0,0.0,0.0,0.0,0.0,0.0,0.0,0.0,0.0,0.0,0.0,0.0,0.0,0.0,0.0,0.0,0.0,0.0,0.0,1.096,0.9939,0.8435,0.6729,0.4712,0.3601,0.2701,0.0,0.0,0.0,0.0,0.0,0.0,0.0,0.0,0.0,0.0,0.0,0.0,0.0,0.0,0.0,0.0,0.0,0.0,0.0,0.0,0.0,0.0,0.0,0.0,0.0,0.0,0.0,0.0,0.0,0.0,0.0,0.0,0.0,0.0,0.0,0.0,0.0,0.0,0.0,0.0,0.0,0.0,0.0,0.0,0.0,0.0,0.0,0.0,0.0,0.0,0.0,0.0,0.0,0.0,0.0,0.0,0.0,0.0,0.0,0.0,0.0,0.0,0.0,0.0,0.0,0.0,0.0,0.0,0.0,0.0,0.0,0.0,0.0,0.0,0.0,0.0,0.0,0.0,0.0,0.0,0.0,0.0,0.0,0.0,0.0,0.0,0.0,0.0,0.0,0.0,0.0,0.0,0.0,0.0,0.0,0.0,0.0,0.0,0.0,0.0,0.0,0.0,0.0,0.0,0.0,0.0,0.0,0.0,0.0,1.0534,0.9407,0.7982,0.6285,0.5029,0.3978,0.0,0.0,0.0,0.0,0.0,0.0,0.0,0.0,0.0,0.0,0.0,0.0,0.0,0.0,0.0,0.0,0.0,0.0,0.0,0.0,0.0,0.0,0.0,0.0,0.0,0.0,0.0,0.0,0.0,0.0,0.0,0.0,0.0,0.0,0.0,0.0,0.0,0.0,0.0,0.0,0.0,0.0,0.0,0.0,0.0,0.0,0.0,0.0,0.0,0.0,0.0,0.0,0.0,0.0,0.0,0.0,0.0,0.0,0.0,0.0,0.0,0.0,0.0,0.0,0.0,0.0,0.0,0.0,0.0,0.0,0.0,0.0,0.0,0.0,0.0,0.0,0.0,0.0,0.0,0.0,0.0,0.0,0.0,0.0,0.0,0.0,0.0,0.0,0.0,0.0,0.0,0.0,0.0,0.0,0.0,0.0,0.0,0.0,0.0,0.0,0.0,0.0,0.0,0.0,0.0,0.0,0.0,0.0,0.0,1.1264,1.0179,0.8837,0.7272,0.6129,0.5045,0.4003,0.0,0.0,0.0,0.0,0.0,0.0,0.0,0.0,0.0,0.0,0.0,0.0,0.0,0.0,0.0,0.0,0.0,0.0,0.0,0.0,0.0,0.0,0.0,0.0,0.0,0.0,0.0,0.0,0.0,0.0,0.0,0.0,0.0,0.0,0.0,0.0,0.0,0.0,0.0,0.0,0.0,0.0,0.0,0.0,0.0,0.0,0.0,0.0,0.0,0.0,0.0,0.0,0.0,0.0,0.0,0.0,0.0,0.0,0.0,0.0,0.0,0.0,0.0,0.0,0.0,0.0,0.0,0.0,0.0,0.0,0.0,0.0,0.0,0.0,0.0,0.0,0.0,0.0,0.0,0.0,0.0,0.0,0.0,0.0,0.0,0.0,0.0,0.0,0.0,0.0,0.0,0.0,0.0,0.0,0.0,0.0,0.0,0.0,0.0,0.0,0.0,0.0,0.0,0.0,0.0,0.0,0.0,0.0,1.2302,1.0986,0.9438,0.7856,0.6972,0.6034,0.0,0.0,0.0,0.0,0.0,0.0,0.0,0.0,0.0,0.0,0.0,0.0,0.0,0.0,0.0,0.0,0.0,0.0,0.0,0.0,0.0,0.0,0.0,0.0,0.0,0.0,0.0,0.0,0.0,0.0,0.0,0.0,0.0,0.0,0.0,0.0,0.0,0.0,0.0,0.0,0.0,0.0,0.0,0.0,0.0,0.0,0.0,0.0,0.0,0.0,0.0,0.0,0.0,0.0,0.0,0.0,0.0,0.0,0.0,0.0,0.0,0.0,0.0,0.0,0.0,0.0,0.0,0.0,0.0,0.0,0.0,0.0,0.0,0.0,0.0,0.0,0.0,0.0,0.0,0.0,0.0,0.0,0.0,0.0,0.0,0.0,0.0,0.0,0.0,0.0,0.0,0.0,0.0,0.0,0.0,0.0,0.0,0.0,0.0,0.0,0.0,0.0,0.0,0.0,0.0,0.0,0.0,0.0,0.0,1.3862,1.251,1.084,0.9066,0.8517,0.7633,0.0,0.0,0.0,0.0,0.0,0.0,0.0,0.0,0.0,0.0,0.0,0.0,0.0,0.0,0.0,0.0,0.0,0.0,0.0,0.0,0.0,0.0,0.0,0.0,0.0,0.0,0.0,0.0,0.0,0.0,0.0,0.0,0.0,0.0,0.0,0.0,0.0,0.0,0.0,0.0,0.0,0.0,0.0,0.0,0.0,0.0,0.0,0.0,0.0,0.0,0.0,0.0,0.0,0.0,0.0,0.0,0.0,0.0,0.0,0.0,0.0,0.0,0.0,0.0,0.0,0.0,0.0,0.0,0.0,0.0,0.0,0.0,0.0,0.0,0.0,0.0,0.0,0.0,0.0,0.0,0.0,0.0,0.0,0.0,0.0,0.0,0.0,0.0,0.0,0.0,0.0,0.0,0.0,0.0,0.0,0.0,0.0,0.0,0.0,0.0,0.0,0.0,0.0,0.0,0.0,0.0,0.0,0.0,1.494,1.5234,1.4044,1.2629,1.0971,0.9973,0.8904,0.0,0.0,0.0,0.0,0.0,0.0,0.0,0.0,0.0,0.0,0.0,0.0,0.0,0.0,0.0,0.0,0.0,0.0,0.0,0.0,0.0,0.0,0.0,0.0,0.0,0.0,0.0,0.0,0.0,0.0,0.0,0.0,0.0,0.0,0.0,0.0,0.0,0.0,0.0,0.0,0.0,0.0,0.0,0.0,0.0,0.0,0.0,0.0,0.0,0.0,0.0,0.0,0.0,0.0,0.0,0.0,0.0,0.0,0.0,0.0,0.0,0.0,0.0,0.0,0.0,0.0,0.0,0.0,0.0,0.0,0.0,0.0,0.0,0.0,0.0,0.0,0.0,0.0,0.0,0.0,0.0,0.0,0.0,0.0,0.0,0.0,0.0,0.0,0.0,0.0,0.0,0.0,0.0,0.0,0.0,0.0,0.0,0.0,0.0,0.0,0.0,0.0,0.0,0.0,0.0,0.0,0.0,0.0,1.6648,1.6453,1.5623,1.4512,1.3232,1.135,0.9966,0.0,0.0,0.0,0.0,0.0,0.0,0.0,0.0,0.0,0.0,0.0,0.0,0.0,0.0,0.0,0.0,0.0,0.0,0.0,0.0,0.0,0.0,0.0,0.0,0.0,0.0,0.0,0.0,0.0,0.0,0.0,0.0,0.0,0.0,0.0,0.0,0.0,0.0,0.0,0.0,0.0,0.0,0.0,0.0,0.0,0.0,0.0,0.0,0.0,0.0,0.0,0.0,0.0,0.0,0.0,0.0,0.0,0.0,0.0,0.0,0.0,0.0,0.0,0.0,0.0,0.0,0.0,0.0,0.0,0.0,0.0,0.0,0.0,0.0,0.0,0.0,0.0,0.0,0.0,0.0,0.0,0.0,0.0,0.0,0.0,0.0,0.0,0.0,0.0,0.0,0.0,0.0,0.0,0.0,0.0,0.0,0.0,0.0,0.0,0.0,0.0,0.0,0.0,0.0,0.0,0.0,0.0,0.0,1.8321,1.8579,1.719,1.6,1.5184,1.2903,1.1158,0.0,0.0,0.0,0.0,0.0,0.0,0.0,0.0,0.0,0.0,0.0,0.0,0.0,0.0,0.0,0.0,0.0,0.0,0.0,0.0,0.0,0.0,0.0,0.0,0.0,0.0,0.0,0.0,0.0,0.0,0.0,0.0,0.0,0.0,0.0,0.0,0.0,0.0,0.0,0.0,0.0,0.0,0.0,0.0,0.0,0.0,0.0,0.0,1.0717,0.0,0.0,0.0,0.0,0.0,0.0,0.0,0.0,0.0,0.0,0.0,0.0,0.0,0.0,0.0,0.0,0.0,0.0,0.0,0.0,0.0,0.0,0.0,0.0,0.0,0.0,0.0,0.0,0.0,0.0,0.0,0.0,0.0,0.0,0.0,0.0,0.0,0.0,0.0,0.0,0.0,0.0,0.0,0.0,0.0,0.0,0.0,0.0,0.0,0.0,0.0,0.0,0.0,0.0,0.0,0.0,0.0,0.0,0.0,2.0066,2.0132,1.8867,1.755,1.6109,1.4243,1.2611,0.0,0.0,0.0,0.0,0.0,0.0,0.0,0.0,0.0,0.0,0.0,0.0,0.0,0.0,0.0,0.0,0.0,0.0,0.0,0.0,0.0,0.0,0.0,0.0,0.0,0.0,0.0,0.0,0.0,0.0,0.0,0.0,0.0,0.0,0.0,0.0,0.0,0.0,0.0,0.0,0.0,0.0,0.0,0.0,0.0,0.0,0.0,0.0,0.0,0.0,0.0,0.0,0.0,0.0,0.0,0.0,0.0,0.0,0.0,0.0,0.0,0.0,0.0,0.0,0.0,0.0,0.0,0.0,0.0,0.0,0.0,0.0,0.0,0.0,0.0,0.0,0.0,0.0,0.0,0.0,0.0,0.0,0.0,0.0,0.0,0.0,0.0,0.0,0.0,0.0,0.0,0.0,0.0,0.0,0.0,0.0,0.0,0.0,0.0,0.0,0.0,0.0,0.0,0.0,0.0,0.0,0.0,2.104,2.1571,2.1469,2.0516,1.9103,1.702,1.5563,1.4107,1.258,0.0,0.0,0.0,0.0,0.0,0.0,0.0,0.0,0.0,0.0,0.0,0.0,0.0,0.0,0.0,0.0,0.0,0.0,0.0,0.0,0.0,0.0,0.0,0.0,0.0,0.0,0.0,0.0,0.0,0.0,0.0,0.0,0.0,0.0,0.0,0.0,0.0,0.0,2.0278,1.9385,0.0,0.0,0.0,0.0,0.0,0.0,0.0,0.0,1.1061,0.0,0.0,0.0,0.0,0.0,0.0,0.0,0.0,0.0,0.0,0.0,0.0,0.0,0.0,0.0,0.0,0.0,0.0,0.0,0.0,0.0,0.0,0.0,0.0,0.0,0.0,0.0,0.0,0.0,0.0,0.0,0.0,0.0,0.0,0.0,0.0,0.0,0.0,0.0,0.0,0.0,0.0,0.0,0.0,0.0,0.0,0.0,0.0,0.0,0.0,0.0,0.0,0.0,0.0,0.0,0.0,2.0255,2.1393,2.2221,2.2654,2.1793,2.0527,1.9033,1.7035,1.5351,1.3904,0.0,0.0,0.0,0.0,0.0,0.0,0.0,0.0,0.0,0.0,0.0,0.0,0.0,0.0,0.0,0.0,0.0,0.0,0.0,0.0,0.0,0.0,0.0,0.0,0.0,0.0,0.0,0.0,0.0,0.0,0.0,0.0,0.0,0.0,0.0,0.0,0.0,0.0,0.0,2.0083,1.9312,0.0,0.0,0.0,0.0,0.0,0.0,0.0,0.0,1.1805,0.0,0.0,0.0,0.0,0.0,0.0,0.0,0.0,0.0,0.0,0.0,0.0,0.0,0.0,0.0,0.0,0.0,0.0,0.0,0.0,0.0,0.0,0.0,0.0,0.0,0.0,0.0,0.0,0.0,0.0,0.0,0.0,0.0,0.0,0.0,0.0,0.0,0.0,0.0,0.0,0.0,0.0,0.0,0.0,0.0,0.0,0.0,0.0,0.0,0.0,0.0,0.0,0.0,0.0,0.0,2.0517,2.182,2.2743,2.3443,2.2547,2.1381,1.9943,1.7774,1.5806,0.0,0.0,0.0,0.0,0.0,0.0,0.0,0.0,0.0,0.0,0.0,0.0,0.0,0.0,0.0,0.0,0.0,0.0,0.0,0.0,0.0,0.0,0.0,0.0,0.0,0.0,0.0,0.0,0.0,0.0,0.0,0.0,0.0,0.0,0.0,0.0,0.0,0.0,0.0,0.0,2.086,2.0632,1.921,0.0,0.0,0.0,0.0,0.0,0.0,1.3508,1.3295,0.0,0.0,0.0,0.0,0.0,0.0,0.0,0.0,0.0,0.0,0.0,0.0,0.0,0.0,0.0,0.0,0.0,0.0,0.0,0.0,0.0,0.0,0.0,0.0,0.0,0.0,0.0,0.0,0.0,0.0,0.0,0.0,0.0,0.0,0.0,0.0,0.0,0.0,0.0,0.0,0.0,0.0,0.0,0.0,0.0,0.0,0.0,0.0,0.0,0.0,0.0,0.0,0.0,0.0,0.0,2.0768,2.2024,2.313,2.3914,2.3133,2.2043,2.0791,1.8545,1.655,0.0,0.0,0.0,0.0,0.0,0.0,0.0,0.0,0.0,0.0,0.0,0.0,0.0,0.0,0.0,0.0,0.0,0.0,0.0,0.0,0.0,0.0,0.0,0.0,0.0,0.0,0.0,0.0,0.0,0.0,0.0,0.0,0.0,0.0,0.0,0.0,0.0,0.0,0.0,0.0,0.0,2.1742,2.0472,1.9785,0.0,0.0,0.0,0.0,1.5475,1.5381,0.0,0.0,0.0,0.0,0.0,0.0,0.0,0.0,0.0,0.0,0.0,0.0,0.0,0.0,0.0,0.0,0.0,0.0,0.0,0.0,0.0,0.0,0.0,0.0,0.0,0.0,0.0,0.0,0.0,0.0,0.0,0.0,0.0,0.0,0.0,0.0,0.0,0.0,0.0,0.0,0.0,0.0,0.0,0.0,0.0,0.0,0.0,0.0,0.0,0.0,0.0,0.0,0.0,0.0,0.0,0.0,2.0756,2.2024,2.3112,2.409,2.37,2.2993,2.2031,2.0169,1.8421,0.0,0.0,0.0,0.0,0.0,0.0,0.0,0.0,0.0,0.0,0.0,0.0,0.0,0.0,0.0,0.0,0.0,0.0,0.0,0.0,0.0,0.0,0.0,0.0,0.0,0.0,0.0,0.0,0.0,0.0,0.0,0.0,0.0,0.0,0.0,0.0,0.0,0.0,0.0,0.0,0.0,2.222,2.1982,2.1204,2.0409,0.0,0.0,1.8251,1.815,1.7692,0.0,0.0,0.0,0.0,0.0,0.0,0.0,0.0,0.0,0.0,0.0,0.0,0.0,0.0,0.0,0.0,0.0,0.0,0.0,0.0,0.0,0.0,0.0,0.0,0.0,0.0,0.0,0.0,0.0,0.0,0.0,0.0,0.0,0.0,0.0,0.0,0.0,0.0,0.0,0.0,0.0,0.0,0.0,0.0,0.0,0.0,0.0,0.0,0.0,0.0,0.0,0.0,0.0,0.0,0.0,1.812,2.0318,2.171,2.2924,2.3941,2.3424,2.293,2.253,2.0496,1.8889,0.0,0.0,0.0,0.0,0.0,0.0,0.0,0.0,0.0,0.0,0.0,0.0,0.0,0.0,0.0,0.0,0.0,0.0,0.0,0.0,0.0,0.0,0.0,0.0,0.0,0.0,0.0,0.0,0.0,0.0,0.0,0.0,0.0,0.0,0.0,0.0,0.0,0.0,0.0,0.0,0.0,0.0,2.2587,2.2415,0.0,0.0,0.0,2.0509,2.0286,0.0,0.0,0.0,0.0,0.0,0.0,0.0,0.0,0.0,0.0,0.0,0.0,0.0,0.0,0.0,0.0,0.0,0.0,0.0,0.0,0.0,0.0,0.0,0.0,0.0,0.0,0.0,0.0,0.0,0.0,0.0,0.0,0.0,0.0,0.0,0.0,0.0,0.0,0.0,0.0,0.0,0.0,0.0,0.0,0.0,0.0,0.0,0.0,0.0,0.0,0.0,0.0,0.0,0.0,0.0,0.0,0.0,1.999,2.1477,2.2709,2.3634,2.3223,2.2924,2.2763,2.0921,0.0,0.0,0.0,0.0,0.0,0.0,0.0,0.0,0.0,0.0,0.0,0.0,0.0,0.0,0.0,0.0,0.0,0.0,0.0,0.0,0.0,0.0,0.0,0.0,0.0,0.0,0.0,0.9096,0.0,0.0,0.0,0.0,0.0,0.0,0.0,0.0,0.0,0.0,0.0,0.0,0.0,0.0,2.319,2.3043,2.3432,2.3463,0.0,0.0,2.2359,2.201,2.1632,2.1123,0.0,0.0,0.0,0.0,0.0,0.0,0.0,0.0,0.0,0.0,0.0,0.0,0.0,0.0,0.0,0.0,0.0,0.0,0.0,0.0,0.0,0.0,0.0,0.0,0.0,0.0,0.0,0.0,0.0,0.0,0.0,0.0,0.0,0.0,0.0,0.0,0.0,0.0,0.0,0.0,0.0,0.0,0.0,0.0,0.0,0.0,0.0,0.0,0.0,0.0,0.0,0.0,0.0,0.0,0.0,1.9978,2.1493,2.2618,2.327,2.3257,2.311,2.2886,2.191,2.0666,0.0,0.0,0.0,0.0,0.0,0.0,0.0,0.0,0.0,0.0,0.0,0.0,0.0,0.0,0.0,0.0,0.0,0.0,0.0,0.0,0.0,0.0,0.0,0.0,0.0,0.0,0.0,0.0,0.0,0.0,0.0,0.0,0.0,0.0,0.0,0.0,0.0,0.0,0.0,0.0,0.0,2.31,2.3661,2.4008,2.4123,0.0,2.387,2.3532,2.3196,2.2614,2.2073,2.1447,0.0,0.0,0.0,0.0,0.0,0.0,0.0,0.0,0.0,0.0,0.0,0.0,0.0,0.0,0.0,0.0,0.0,0.0,0.0,0.0,0.0,0.0,0.0,0.0,0.0,0.0,0.0,0.0,0.0,0.0,0.0,0.0,0.0,0.0,0.0,0.0,0.0,0.0,0.0,0.0,0.0,0.0,0.0,0.0,0.0,0.0,0.0,0.0,0.0,0.0,0.0,0.0,0.0,1.7785,1.9829,2.127,2.2398,2.302,2.3033,2.2899,2.2592,2.1871,2.0981,0.0,0.0,0.0,0.0,0.0,0.0,0.0,0.0,0.0,0.0,0.0,0.0,0.0,0.0,0.0,0.0,0.0,0.0,0.0,0.0,0.0,0.0,0.0,0.0,0.0,0.0,0.0,0.0,1.0097,1.0617,1.1522,0.0,0.0,0.0,0.0,0.0,0.0,0.0,0.0,0.0,0.0,2.2873,2.3661,2.3861,0.0,0.0,2.3968,2.3812,2.389,2.3402,2.3011,2.3045,2.2153,0.0,0.0,0.0,0.0,0.0,0.0,0.0,0.0,0.0,0.0,0.0,0.0,0.0,0.0,0.0,0.0,0.0,0.0,0.0,0.0,0.0,0.0,0.0,0.0,0.0,0.0,0.0,0.0,0.0,0.0,0.0,0.0,0.0,0.0,0.0,0.0,0.0,0.0,0.0,0.0,0.0,0.0,0.0,0.0,0.0,0.0,0.0,0.0,0.0,0.0,0.0,0.0,1.7763,1.9647,2.1174,2.2202,2.2928,2.2859,2.2712,2.2418,2.1872,2.1188,0.0,0.0,0.0,0.0,0.0,0.0,0.0,0.0,0.0,0.0,0.0,0.0,0.0,0.0,0.0,0.0,0.0,0.0,0.0,0.0,0.0,0.0,0.0,0.0,0.0,0.0,0.0,0.0,1.1151,1.171,1.2836,0.0,0.0,0.0,0.0,0.0,0.0,0.0,0.0,0.0,0.0,2.2712,2.3527,2.3714,2.3848,2.4048,2.3973,2.4025,2.4284,2.397,2.3863,2.4254,0.0,0.0,0.0,0.0,0.0,0.0,0.0,0.0,0.0,0.0,0.0,0.0,0.0,0.0,0.0,0.0,0.0,0.0,0.0,0.0,0.0,0.0,0.0,0.0,0.0,0.0,0.0,1.3267,0.0,0.0,1.2588,0.0,0.0,0.0,0.0,0.0,0.0,0.0,0.0,0.0,0.0,0.0,0.0,0.0,0.0,0.0,0.0,0.0,0.0,0.0,0.0,0.0,0.0,1.7998,1.9699,2.1176,2.2285,2.2846,2.2859,2.2712,2.2418,2.2138,2.1447,2.026,0.0,0.0,0.0,0.0,0.0,0.0,0.0,0.0,0.0,0.0,0.0,0.0,0.0,0.0,0.0,0.0,0.0,0.0,0.0,0.0,0.0,0.0,0.0,0.0,0.0,0.0,1.234,1.2757,1.3317,0.0,0.0,0.0,0.0,0.0,0.0,0.0,0.0,0.0,0.0,2.1871,2.2632,2.3247,2.3581,2.3754,2.3781,2.411,2.4284,2.44,2.4452,2.4584,0.0,0.0,0.0,0.0,0.0,0.0,0.0,0.0,0.0,0.0,0.0,0.0,0.0,0.0,0.0,0.0,0.0,0.0,0.0,0.0,0.0,0.0,0.0,0.0,0.0,0.0,0.0,1.5889,1.5664,0.0,0.0,0.0,0.0,0.0,0.0,0.0,0.0,0.0,0.0,0.0,2.1812,2.2074,0.0,0.0,0.0,0.0,0.0,0.0,0.0,0.0,0.0,0.0,0.0,0.0,1.8593,2.0259,2.1437,2.2271,2.2901,2.2672,2.2432,2.2138,2.1857,2.1253,2.0301,0.0,0.0,0.0,0.0,0.0,0.0,0.0,0.0,0.0,0.0,0.0,0.0,0.0,0.0,0.0,0.0,0.0,0.0,0.0,0.0,0.0,0.0,0.0,0.0,0.0,1.3655,0.0,0.0,0.0,0.0,0.0,0.0,0.0,0.0,0.0,0.0,0.0,2.0454,2.1029,2.1697,2.2352,2.2939,2.31,2.3372,0.0,0.0,0.0,0.0,0.0,0.0,0.0,0.0,0.0,0.0,0.0,0.0,0.0,0.0,2.6719,2.4525,2.4292,2.4425,2.4483,0.0,0.0,0.0,0.0,0.0,0.0,0.0,0.0,0.0,0.0,0.0,0.0,0.0,0.0,1.8454,0.0,1.7422,0.0,0.0,0.0,0.0,0.0,0.0,0.0,0.0,2.4115,2.4635,2.4903,2.5205,2.5242,0.0,2.388,2.2019,0.0,0.0,0.0,0.0,0.0,0.0,0.0,0.0,1.9481,2.0823,2.1859,2.2533,2.2714,2.2566,2.2257,2.1909,2.1585,2.1154,2.0452,1.9816,1.8892,0.0,0.0,0.0,0.0,0.0,0.0,0.0,0.0,0.0,0.0,0.0,0.0,0.0,0.0,0.0,0.0,0.0,0.0,0.0,0.0,0.0,0.0,0.0,1.4912,0.0,0.0,0.0,0.0,0.0,0.0,0.0,0.0,0.0,1.9345,2.0174,2.0867,2.1245,2.1957,2.2671,2.3066,0.0,0.0,0.0,0.0,0.0,0.0,0.0,2.7539,2.8764,2.9042,2.9297,2.9733,2.9875,2.9919,2.9795,0.0,0.0,2.6994,2.6786,2.6964,2.6964,2.7529,2.8039,2.8301,2.8895,2.9499,0.0,0.0,0.0,0.0,0.0,0.0,0.0,0.0,2.1407,2.1256,0.0,2.0569,0.0,0.0,0.0,0.0,0.0,2.3411,0.0,0.0,2.7142,2.8182,2.8807,2.9155,2.8905,2.8157,2.7486,2.6474,2.4953,2.0654,0.0,0.0,0.0,0.0,0.0,0.0,2.0741,2.1314,2.2539,2.2928,2.2569,2.2569,2.2223,2.1601,2.1366,2.1053,2.0725,2.0444,1.9709,1.8293,1.7662,0.0,0.0,0.0,0.0,0.0,0.0,0.0,0.0,0.0,0.0,0.0,0.0,0.0,0.0,0.0,0.0,0.0,0.0,0.0,0.0,1.6229,0.0,0.0,0.0,0.0,0.0,0.0,0.0,0.0,0.0,0.0,1.9524,2.072,2.1691,2.1642,0.0,0.0,0.0,0.0,2.417,2.4578,2.5427,2.6435,2.7169,2.8372,2.9502,3.0221,0.0,0.0,3.0797,3.1025,3.1167,3.084,3.1063,3.0893,2.9587,2.9501,2.9646,2.9646,2.9683,2.9971,3.0587,3.0723,3.0964,2.6757,0.0,0.0,0.0,0.0,2.4232,2.4483,2.4894,2.4547,2.4235,2.3944,2.3325,0.0,0.0,0.0,0.0,0.0,0.0,2.7392,2.8632,2.9493,2.9958,3.0185,3.0523,3.0414,2.9897,2.9163,2.8387,2.7378,2.5222,2.272,2.0061,0.0,0.0,0.0,0.0,2.2195,2.3239,2.3558,2.3685,2.3616,2.3142,2.2502,2.1624,2.151,2.1341,2.0978,2.0958,2.043,1.9396,1.8386,0.0,0.0,0.0,0.0,0.0,0.0,0.0,0.0,0.0,0.0,0.0,0.0,0.0,0.0,0.0,0.0,0.0,0.0,0.0,1.7134,1.7184,1.7259,0.0,0.0,0.0,0.0,0.0,0.0,0.0,0.0,0.0,2.0588,2.1271,2.1969,0.0,0.0,2.4289,2.4289,2.4966,2.5629,2.595,2.6886,0.0,2.8888,3.0042,3.1002,3.166,3.2264,3.2609,3.2609,3.2734,3.2734,3.2609,3.2671,3.2633,3.2248,3.1361,3.0837,3.0799,3.1148,3.1579,3.1794,3.221,3.2671,3.0707,2.8485,2.7487,2.7177,2.7369,2.7369,2.7596,2.7905,2.7499,2.7253,2.6958,2.6471,2.6048,2.5704,2.5791,0.0,0.0,0.0,2.9476,3.0593,3.1164,3.149,3.1745,3.2036,3.1932,3.1466,3.0743,3.0087,2.9399,2.8086,2.6278,2.3949,0.0,0.0,2.2409,2.3414,2.4136,2.4666,2.5013,2.4921,2.4441,2.3549,2.268,2.1866,2.1803,2.1644,2.1341,2.136,2.0902,2.0014,1.9357,1.8537,0.0,0.0,0.0,0.0,0.0,0.0,0.0,0.0,0.0,0.0,0.0,1.6626,1.7015,0.0,0.0,0.0,1.7264,1.7634,1.8263,1.8465,0.0,0.0,0.0,0.0,0.0,0.0,0.0,1.984,2.0454,2.1002,2.1403,2.2015,2.2632,2.321,2.4518,2.5417,2.5429,0.0,2.702,2.7419,2.8345,2.933,3.0148,3.1249,3.2147,3.274,3.3102,3.3355,3.3418,3.3418,3.3418,3.3418,3.3418,3.3418,3.3418,3.2676,3.208,3.2099,3.2416,3.2715,3.2734,3.3073,3.3418,3.3849,3.3558,3.1249,3.0265,3.0201,3.0183,3.0345,3.0567,3.0309,3.0048,2.9958,2.9619,2.9305,2.9008,2.9252,0.0,2.9507,3.0445,3.1251,3.1941,3.221,3.2734,3.3418,3.3355,3.3203,3.2773,3.2076,3.151,3.0969,2.9674,2.8716,2.8097,2.6341,2.5085,2.4424,2.5797,2.6355,2.587,2.667,2.6537,2.5256,2.3899,2.2918,2.223,2.2167,2.1978,2.1664,2.1652,2.1221,2.0401,2.0364,1.971,1.8273,0.0,0.0,0.0,0.0,0.0,0.0,0.0,0.0,0.0,0.0,0.0,0.0,0.0,0.0,0.0,1.8331,0.0,1.9574,1.9917,0.0,0.0,0.0,2.043,2.0364,2.0388,2.0441,2.0676,0.0,0.0,2.1924,2.2857,2.3567,2.3679,2.5402,2.6659,2.6789,2.767,2.8477,2.8888,2.9805,3.0584,3.1055,3.2083,3.2994,3.3292,3.3418,3.3418,3.3418,3.3418,3.3418,3.3418,3.3418,3.3418,3.3418,3.3316,3.3418,3.3316,3.3335,3.3335,3.3335,3.3335,3.3418,3.5075,3.4425,3.377,3.3263,3.2787,3.2487,3.2412,3.2487,3.2394,3.1982,3.132,3.1227,3.1028,3.0635,3.0696,3.1006,3.1575,3.1794,3.231,3.301,3.3092,3.3194,3.3418,3.3418,3.3203,3.2793,3.2302,3.1832,3.1385,3.0488,2.9829,2.9458,2.8954,2.7912,2.6395,2.6953,2.7441,2.78,2.8009,2.7504,2.6216,2.4871,2.3899,2.323,2.2731,2.2292,2.1978,2.1971,2.165,2.105,2.0965,2.0501,1.945,1.9204,0.0,0.0,0.0,0.0,0.0,0.0,0.0,0.0,0.0,1.8063,1.8943,0.0,1.9106,0.0,2.0008,2.0734,2.1825,2.1739,0.0,0.0,2.2097,2.1566,2.1068,2.0989,2.089,2.0717,2.1323,2.183,2.1964,2.2835,2.3609,2.4228,2.5889,2.7286,2.7867,2.9034,2.9952,3.0343,3.1249,3.2019,3.2339,3.2912,3.3272,3.3355,3.3418,3.3418,3.3418,3.3418,3.3418,3.3418,3.3418,3.3418,3.3418,3.3418,3.3418,3.3418,3.3418,3.3418,3.3418,3.3418,3.3418,3.5449,3.498,3.459,3.4335,3.4162,3.3739,3.3566,3.3566,3.3566,3.3181,3.2502,3.2483,3.2368,3.2219,3.2157,3.2416,3.2753,3.2773,3.3015,3.3418,3.3418,3.3418,3.3418,3.3418,3.3203,3.2773,3.2363,3.1934,3.1504,3.0898,3.045,3.0098,3.0098,2.9496,2.8333,2.8627,2.8913,2.9135,2.8957,2.8403,2.7426,2.6277,2.5256,2.427,2.3454,2.2839,2.2343,2.2215,2.1854,2.1415,2.1642,2.1463,2.0843,2.075,2.0456,0.0,0.0,0.0,0.0,0.0,0.0,0.0,0.0,0.0,0.0,0.0,2.0725,2.148,2.1869,2.2569,2.3811,2.3739,2.3847,2.4198,2.3665,2.2901,2.1954,2.1692,2.143,2.0931,2.1416,2.1856,2.2065,2.2832,2.3742,2.4497,2.5956,2.74,2.8461,2.9709,3.075,3.1267,3.2102,3.274,3.3038,3.3136,3.3144,3.3125,3.2988,3.291,3.3105,3.3144,3.3203,3.3379,3.3418,3.3418,3.3418,3.3418,3.3418,3.3418,3.3418,3.3418,3.3418,3.3418,3.3418,3.5332,3.5156,3.4394,3.4258,3.4512,3.4141,3.4023,3.4062,3.4062,3.3828,3.3418,3.3418,3.3418,3.3418,3.3418,3.3418,3.3418,3.3418,3.3418,3.3418,3.3418,3.3418,3.3418,3.3418,3.3203,3.2793,3.2424,3.1953,3.1504,3.1094,3.0762,3.045,3.045,3.0333,3.0039,3.0333,3.0333,3.0039,2.9726,2.9235,2.8719,2.7744,2.6658,2.5423,2.4434,2.3596,2.2913,2.2556,2.2231,2.1964,2.2473,2.2684,2.2387,2.256,2.2409,0.0,2.1711,0.0,0.0,0.0,0.0,0.0,0.0,0.0,0.0,2.1876,2.265,2.3547,2.3933,2.4603,2.5826,2.5887,2.578,2.5701,2.5108,2.4207,2.2889,2.2418,2.1915,2.1299,2.1504,2.1808,2.2158,2.2887,2.3634,2.4465,2.5604,2.6972,2.8493,2.9952,3.1138,3.1846,3.2492,3.2922,3.3136,3.2969,3.2715,3.2614,3.24,3.2244,3.2533,3.2649,3.2867,3.3179,3.3257,3.332,3.334,3.3281,3.3262,3.3301,3.3301,3.332,3.3398,3.3418,3.3418,3.498,3.4316,3.4141,3.3906,3.3652,3.3574,3.375,3.4062,3.4062,3.3828,3.3418,3.3418,3.3418,3.3418,3.3418,3.3418,3.3418,3.3418,3.3418,3.3418,3.3418,3.3418,3.3418,3.3418,3.3203,3.2793,3.2363,3.1953,3.1504,3.1094,3.0898,3.082,3.082,3.0782,3.0704,0.0,0.0,0.0,3.0392,3.0039,2.9627,2.8975,2.8122,2.7082,2.6064,0.0,2.4547,2.417,2.3805,2.353,2.4016,0.0,0.0,0.0,0.0,0.0,0.0,0.0,0.0,0.0,0.0,0.0,2.5426,2.5113,2.4242,2.5216,2.6066,2.6551,2.6622,2.7122,2.8152,2.7741,2.7352,2.7125,2.6073,2.4885,2.3604,2.2856,2.2355,2.1992,2.1938,2.213,2.2465,2.2641,2.3078,2.4018,2.4878,2.6156,2.8032,2.9705,3.112,3.2147,3.256,3.2805,3.291,3.2559,3.2224,3.196,3.188,3.17,3.1593,3.2003,3.2339,3.2474,3.2723,3.291,3.291,3.2637,3.2559,3.2851,3.293,3.3008,3.334,3.3418,3.3418,3.4473,0.0,3.3848,3.3633,0.0,3.3418,3.3555,3.375,3.375,3.3633,3.3418,3.3418,3.3418,3.3418,3.3418,3.3418,3.3418,3.3418,3.3418,3.3418,3.3418,3.3418,3.3418,3.3418,3.3086,3.248,3.2266,3.1836,3.123,3.0996,3.0898,3.0898,3.0898,3.0898,3.0898,3.0898,3.0898,3.0898,3.0704,3.045,3.0157,2.9686,2.9035,2.8241,2.7199,0.0,0.0,0.0,0.0,0.0,0.0,0.0,0.0,0.0,0.0,2.5824,2.5748,2.5874,2.6134,2.648,2.6829,2.7234,2.7921,2.7807,2.6657,2.7225,2.7781,2.8309,2.8346,2.8685,2.9504,2.9074,2.8501,2.7966,2.6719,2.5333,2.4038,2.3106,2.248,2.2118,2.1928,2.2024,2.2546,2.2608,2.2911,2.3666,2.4559,2.5689,2.7393,2.9146,3.0692,3.2041,3.2409,3.248,3.2441,3.2129,3.1715,3.1414,3.106,3.0781,3.0691,3.0959,3.129,3.1665,3.205,3.2296,3.248,3.2305,3.2287,3.2441,3.2656,3.2832,3.3086,3.3281,3.3418,3.3895,3.3862,3.3511,3.3355,3.3418,3.3418,3.3418,3.3418,0.0,0.0,0.0,3.3418,3.3418,3.3418,3.3418,3.3418,3.3418,3.3418,3.3418,3.3418,3.3418,3.3418,3.3418,3.334,3.291,3.2187,3.209,3.1641,3.0918,3.0898,3.0898,3.0898,3.0898,3.0898,3.0898,3.0898,3.0898,3.0898,3.0898,3.0762,3.0509,3.0216,2.9804,2.9272,2.8242,2.7495,2.719,2.6527,2.6168,2.6168,2.6426,2.6683,2.6957,2.6877,2.7074,2.7503,2.7435,2.7603,2.7993,2.8292,2.8668,2.9088,2.968,2.9585,2.8634,2.8672,2.8975,2.9546,2.9565,2.9833,3.0412,2.9981,2.9372,2.8659,2.722,2.5762,2.4409,2.3355,2.2668,2.2292,2.1992,2.1929,2.2509,2.2469,2.2652,2.3362,2.4238,2.5593,2.7154,2.8944,3.0633,3.1938,3.2148,3.2051,3.1992,3.1699,3.1247,3.0713,3.0149,2.9758,2.9661,2.9749,3.0116,3.0677,3.118,3.1565,3.193,3.1953,3.1973,3.2092,3.2324,3.2617,3.2793,3.3066,3.3301,3.3161,3.3071,3.3013,3.3102,3.3418,3.3418,3.3418,3.3418,3.3418,3.3418,3.3418,3.3418,3.3418,3.3418,3.3418,3.3418,3.3418,3.3418,3.3418,3.3418,3.3418,3.3418,3.3398,3.3047,3.2637,3.2229,3.1797,3.1367,3.0937,3.0898,3.0898,3.0898,3.0898,3.0898,3.0898,3.0898,3.0898,3.0898,3.0898,3.0879,3.082,3.0782,3.0587,3.0197,2.9506,2.8914,2.8626,2.8162,2.792,2.792,2.8202,2.8426,2.8706,2.8705,2.8891,2.9208,2.9225,2.9244,2.9305,2.9692,3.0101,3.0529,3.0704,3.0432,2.968,3.02,3.0548,3.0665,3.0587,3.0704,3.082,3.045,2.9863,2.8975,2.7684,2.6338,2.5071,2.4038,2.3293,2.2918,2.2418,2.2104,2.2432,2.2097,2.2046,2.2688,2.3873,2.5297,2.7768,2.9861,3.121,3.1947,3.1836,3.1641,3.1562,3.1269,3.0683,2.9742,2.9387,2.8874,2.8108,2.8417,2.8918,2.9313,3.0139,3.0762,3.1163,3.1111,3.1249,3.1543,3.1719,3.1973,3.2559,3.2793,3.2988,3.2509,3.2676,3.2867,3.3102,3.3418,3.3418,3.3418,3.3418,3.3418,3.3418,3.3418,3.3418,3.3418,3.3418,3.3418,3.3418,3.3418,3.3418,3.3418,3.3418,3.3418,3.3301,3.3086,3.2891,3.2441,3.1836,3.1621,3.1309,3.0918,3.0898,3.0898,3.0898,3.0898,3.0898,3.0898,3.0898,3.0898,3.0898,3.0898,3.0898,3.0898,3.0898,3.082,3.0626,3.0142,2.9757,2.9623,2.924,2.901,2.8991,2.9122,2.9234,2.9346,2.9346,2.9556,2.9883,2.9902,3.0019,3.0273,3.0469,3.0664,3.0879,3.0898,3.0762,3.0432,3.0704,3.0898,3.0898,3.0898,3.0898,3.0898,3.0567,3.0079,2.9331,2.8044,2.6779,2.5501,2.4286,2.3417,2.2856,2.223,2.1992,2.2306,2.1915,2.1831,2.2553,2.4016,2.5928,2.7947,2.9517,3.0749,3.1326,3.1309,3.1191,3.1172,3.1035,3.047,2.9549,2.9016,2.8319,2.728,2.7349,2.7705,2.8207,2.907,2.9908,3.0503,3.084,3.0957,3.1113,3.1387,3.1699,3.2031,3.2266,3.2676,3.1827,3.2294,3.2676,3.3038,3.3355,3.3418,3.3418,3.3418,3.3418,3.3418,3.3418,3.3418,3.3418,3.3418,3.3418,3.3418,3.3418,3.3418,3.3418,3.3418,3.332,3.3105,3.2793,3.2617,3.2148,3.1562,3.1426,3.1211,3.0918,3.0898,3.0898,3.0898,3.0898,3.0898,3.0898,3.0898,3.0898,3.0898,3.0898,3.0898,3.0898,3.0898,3.0898,3.0859,3.0547,3.0351,3.0332,3.0039,2.9863,2.9863,2.992,2.9863,2.9863,2.9863,3.0019,3.0312,3.0351,3.0508,3.084,3.0898,3.0898,3.0898,3.0898,3.0898,3.0898,3.0898,3.0898,3.0898,3.0898,3.0898,3.0898,3.0704,3.0274,2.9667,2.8462,2.7263,2.605,2.4702,2.3542,2.2918,2.2167,2.1803,2.1978,2.174,2.1866,2.2808,2.4595,2.6311,2.7684,2.8957,2.9981,3.0587,3.082,3.0918,3.0898,3.0898,3.047,2.9549,2.882,2.7882,2.6935,2.6449,2.6571,2.7194,2.8157,2.9131,2.9981,3.0587,3.084,3.0957,3.1152,3.1387,3.1562,3.1914,3.2324,3.1055,3.1955,3.2275,3.2804,3.3355,3.3418,3.3418,3.3418,3.3418,3.3418,3.3418,3.3418,3.3418,3.3418,3.3418,3.3418,3.3418,3.3418,3.3418,3.3359,3.3027,3.2832,3.2676,3.2012,3.1601,3.1465,3.1133,3.0957,3.0898,3.0898,3.0898,3.0898,3.0898,3.0898,3.0898,3.0898,3.0898,3.0898,3.0898,3.0898,3.0898,3.0898,3.0898,3.0879,3.0859,3.082,3.0801,3.0781,3.0762,3.0781,3.0742,3.0762,3.0742,3.0762,3.0781,3.082,3.082,3.0859,3.0879,3.0898,3.0898,3.0898,3.0898,3.0898,3.0898,3.0898,3.0898,3.0898,3.0898,3.0898,3.0898,3.0898,3.0645,3.0274,2.9135,2.7984,2.69,2.5456,2.4239,2.3542,2.2668,2.2041,2.2041,2.1614,2.174,2.2856,2.4332,2.5928,2.7383,2.8701,2.9726,3.0333,3.0704,3.0898,3.0898,3.0898,3.047,2.9549,2.8641,2.7624,2.6614,2.59,2.5839,2.6432,2.7521,2.8659,2.949,3.0216,3.0879,3.0898,3.0976,3.1074,3.1445,3.1797,3.2129,3.0278,3.1295,3.2083,3.2804,3.3355,3.3418,3.3418,3.3418,3.3418,3.3418,3.3418,3.3418,3.3418,3.3418,3.3418,3.3418,3.3418,3.3418,3.3281,3.3047,3.2871,3.2539,3.2031,3.1719,3.1387,3.1152,3.0976,3.0898,3.0898,3.0898,3.0898,3.0898,3.0898,3.0898,3.0898,3.0898,3.0898,3.0898,3.0898,3.0898,3.0898,3.0898,3.0898,3.0898,3.0898,3.0898,3.0898,3.0898,3.0898,3.0898,3.0898,3.0898,3.0898,3.0898,3.0898,3.0898,3.0898,3.0898,3.0898,3.0898,3.0898,3.0898,3.0898,3.0898,3.0898,3.0898,3.0898,3.0898,3.0898,3.0898,3.0898,3.0898,3.0762,3.0333,2.9549,2.8582,2.7383,2.605,2.4841,2.3976,2.2981,2.2292,2.2104,2.1866,2.2104,2.3106,2.4394,2.5867,2.7263,2.8582,2.9608,3.0274,3.0704,3.0898,3.0898,3.0898,3.047,2.9608,2.882,2.7804,2.625,2.5533,2.541,2.5762,2.69,2.8104,2.9235,2.9962,3.0645,3.0762,3.0898,3.0957,3.1113,3.1289,3.1406,2.9691,3.0779,3.2019,3.2785,3.3228,3.3292,3.3228,3.3146,3.3112,3.3116,3.3116,3.3179,3.3262,3.3262,3.3359,3.3418,3.3418,3.3418,3.314,3.2688,3.2552,3.2044,3.1324,3.1209,3.1054,3.0801,3.0879,3.0898,3.0898,3.0898,3.0898,3.0898,3.0898,3.0898,3.0898,3.0898,3.0898,3.0898,3.0898,3.0898,3.0898,3.0898,3.0898,3.0898,3.0898,3.0898,3.0898,3.0898,3.0898,3.0898,3.0898,3.0898,3.0898,3.0898,3.0898,3.0898,3.0898,3.0898,3.0898,3.0898,3.0898,3.0898,3.0898,3.0898,3.0898,3.0898,3.0898,3.0898,3.0898,3.0898,3.0898,3.0898,3.0762,3.0528,2.9844,2.8957,2.8002,2.6796,2.5639,2.4718,2.3837,2.2856,2.2292,2.2167,2.2418,2.2981,2.4394,2.5823,2.7039,2.8301,2.949,3.002,3.0509,3.0898,3.0898,3.0898,3.047,2.9863,2.9076,2.7924,2.6233,2.5639,2.5103,2.5517,2.6355,2.7444,2.876,2.9667,3.0509,3.0762,3.0898,3.0898,3.0937,3.0918,3.0918,2.902,3.0502,3.2147,3.2867,3.2912,3.2912,3.2721,3.2409,3.2382,3.2334,3.2397,3.2688,3.2832,3.2809,3.316,3.3418,3.3418,3.3418,3.2995,3.232,3.1954,3.1347,3.0667,3.0504,3.0411,3.045,3.0704,3.0898,3.0898,3.0898,3.0898,3.0898,3.0898,3.0898,3.0898,3.0898,3.0898,3.0898,3.0898,3.0898,3.0898,3.0898,3.0898,3.0898,3.0898,3.0898,3.0898,3.0898,3.0898,3.0898,3.0898,3.0898,3.0898,3.0898,3.0898,3.0898,3.0898,3.0898,3.0898,3.0898,3.0898,3.0898,3.0898,3.0898,3.0898,3.0898,3.0898,3.0898,3.0898,3.0898,3.0898,3.0898,3.0898,3.0762,2.9981,2.9313,2.8975,2.7762,2.6779,2.6006,2.501,2.3713,2.2355,2.2355,2.248,2.2856,2.4023,2.5378,2.625,2.7822,2.8957,2.9549,3.0216,3.0879,3.0898,3.0898,3.0762,3.0157,2.9253,2.8164,2.7021,2.6067,2.5533,2.5288,2.605,2.7082,2.8283,2.9372,3.0333,3.0762,3.0898,3.0898,3.0898,3.0898,3.0898,2.8674,3.1037,3.2147,3.2613,3.2549,3.2339,3.1933,3.1455,3.154,3.1502,3.1437,3.1831,3.2108,3.2171,3.2512,3.2913,3.3335,3.3418,3.2859,3.195,3.1554,3.0812,2.993,2.9783,2.9903,3.0098,3.0392,3.0704,3.0898,3.0898,3.0898,3.0898,3.0898,3.0898,3.0898,3.0898,3.0898,3.0898,3.0898,3.0898,3.0898,3.0898,3.0898,3.0898,3.0898,3.0898,3.0898,3.0898,3.0898,3.0898,3.0898,3.0898,3.0898,3.0898,3.0898,3.0898,3.0898,3.0898,3.0898,3.0898,3.0898,3.0898,3.0898,3.0898,3.0898,3.0898,3.0898,3.0898,3.0898,3.0898,3.0898,3.0898,3.0898,3.084,3.0392,2.9903,2.9509,2.8797,2.8002,2.722,2.5806,2.4023,2.2856,2.2355,2.2292,2.2418,2.3355,2.4517,2.57,2.7099,2.8361,2.9253,3.002,3.0645,3.0879,3.0898,3.0762,3.0274,2.949,2.8343,2.7263,2.5823,2.5042,2.4919,2.5639,2.6598,2.7744,2.9372,3.0274,3.0762,3.0879,3.0898,3.0898,3.0898,3.0898,2.8477,3.0779,3.1653,3.191,3.1827,3.1442,3.0755,3.0076,3.0311,3.0288,3.0223,3.086,3.1195,3.1318,3.1656,3.2066,3.2574,3.2835,3.2406,3.129,3.0864,3.005,2.9007,2.8897,2.9135,2.949,3.0157,3.0567,3.0898,3.0898,3.0898,3.0898,3.0898,3.0898,3.0898,3.0898,3.0898,3.0898,3.0898,3.0898,3.0898,3.0898,3.0898,3.0898,3.0898,3.0898,3.0898,3.0898,3.0898,3.0898,3.0898,3.0898,3.0898,3.0898,3.0898,3.0898,3.0898,3.0898,3.0898,3.0898,3.0898,3.0898,3.0898,3.0898,3.0898,3.0898,3.0898,3.0898,3.0898,3.0898,3.0898,3.0898,3.0898,3.0898,3.0645,3.0333,3.0039,2.9627,2.8856,2.7762,2.6111,2.4456,2.3043,2.2543,2.223,2.1978,2.2793,2.3914,2.4964,2.6415,2.7744,2.8879,2.9844,3.045,3.082,3.0898,3.0898,3.047,2.9726,2.86,2.7383,2.5945,2.4857,2.4734,2.5149,2.6111,2.7444,2.9135,3.0039,3.0587,3.082,3.0898,3.0898,3.0898,3.0898,2.8493,2.9805,3.0555,3.0879,3.0732,3.0065,2.9206,2.8443,2.853,2.8622,2.8755,2.9623,3.0083,3.0176,3.0469,3.0717,3.0909,3.1623,3.1444,3.0339,2.9875,2.8967,2.7669,2.784,2.8259,2.8719,2.9844,3.0587,3.0879,3.0898,3.0898,3.0898,3.0898,3.0898,3.0898,3.0898,3.0898,3.0898,3.0898,3.0898,3.0898,3.0898,3.0898,3.0898,3.0898,3.0898,3.0898,3.0898,3.0898,3.0898,3.0898,3.0898,3.0898,3.0898,3.0898,3.0898,3.0898,3.0898,3.0898,3.0898,3.0898,3.0898,3.0898,3.0898,3.0898,3.0898,3.0898,3.0898,3.0898,3.0898,3.0898,3.0898,3.0898,3.0898,3.0645,3.045,3.0333,3.0098,2.9272,2.7744,2.6294,2.4887,2.3542,2.2668,2.2167,2.1915,2.2355,2.3293,2.4162,2.5684,2.7203,2.8421,2.949,3.0274,3.0645,3.0898,3.0898,3.0762,2.9922,2.8938,2.7864,2.6476,2.5087,2.4718,2.4718,2.5684,2.7383,2.8957,2.9745,3.0294,3.0528,3.0762,3.0645,3.0645,3.0762,2.7618,2.8757,2.9495,2.9626,2.9364,2.8691,2.7769,2.6889,2.7113,2.7194,2.7401,2.8467,2.8865,2.8814,2.9115,2.9199,2.902,2.9141,2.9392,2.9608,2.9028,2.8019,2.7036,2.6732,2.7478,2.8797,2.9903,3.0587,3.084,3.0898,3.0898,3.0898,3.0898,3.0898,3.0898,3.0898,3.0898,3.0898,3.0898,3.0898,3.0898,3.0898,3.0898,3.0898,3.0898,3.0898,3.0898,3.0898,3.0898,3.0898,3.0898,3.0898,3.0898,3.0898,3.0898,3.0898,3.0898,3.0898,3.0898,3.0898,3.0898,3.0898,3.0898,3.0898,3.0898,3.0898,3.0898,3.0898,3.0898,3.0898,3.0898,3.0898,3.0898,3.0898,3.082,3.0704,3.0645,3.0039,2.9076,2.7924,2.6355,2.4702,2.3355,2.248,2.1803,2.1425,2.179,2.248,2.3666,2.4887,2.6476,2.8122,2.9135,3.0039,3.0528,3.0762,3.0782,3.0704,3.0098,2.9253,2.8164,2.6961,2.5623,2.4595,2.4641,2.5439,2.7203,2.848,2.9213,2.9863,3.0235,3.0294,3.0216,3.0216,3.0294,2.6553,2.7485,2.8246,2.8312,2.7899,2.7235,2.6382,2.5677,2.6049,2.6376,2.6935,2.7877,2.8386,2.8288,2.8182,2.7882,2.7587,2.7084,2.7344,2.8027,2.7594,2.6769,2.5971,2.5941,2.6736,2.8319,2.939,3.0098,3.0528,3.0528,3.0587,3.0704,3.0704,3.0762,3.0898,3.0898,3.0898,3.0898,3.0898,3.0898,3.0898,3.0898,3.0898,3.0898,3.0898,3.0898,3.0898,3.0898,3.0898,3.0898,3.0898,3.0898,3.0898,3.0898,3.0898,3.0898,3.0898,3.0898,3.0898,3.0898,3.0898,3.0898,3.0898,3.0898,3.0898,3.0898,3.0898,3.0898,3.0898,3.0898,3.0898,3.0898,3.0898,3.0898,3.0898,3.0898,3.0782,3.0098,2.9116,2.7984,2.6537,2.4887,2.3417,2.2355,2.1614,2.1299,2.1425,2.1915,2.3106,2.4224,2.5928,2.7444,2.848,2.9431,3.045,3.0645,3.0587,3.047,3.0216,2.9431,2.854,2.7263,2.5867,2.4533,2.41,2.4764,2.6355,2.7581,2.854,2.9153,2.9804,2.9863,2.9785,2.9627,2.9627,2.5375,2.6048,2.68,2.6835,2.6419,2.5816,2.5212,2.476,2.5201,2.6049,2.6999,2.7832,2.8306,2.834,2.7533,2.6921,2.6417,2.5727,2.5499,2.5677,2.5524,2.5209,2.4807,2.5343,2.6388,2.7618,2.8643,2.9383,2.9917,2.9957,3.0,3.0274,3.0333,3.0509,3.0762,3.0898,3.0898,3.0898,3.0898,3.0898,3.0898,3.0898,3.0898,3.0898,3.0898,3.0898,3.0898,3.0898,3.0898,3.0898,3.0898,3.0898,3.0898,3.0898,3.0898,3.0898,3.0898,3.0898,3.0898,3.0898,3.0898,3.0898,3.0898,3.0898,3.0898,3.0898,3.0898,3.0898,3.0898,3.0898,3.0898,3.0898,3.0898,3.0898,3.0898,3.0898,3.082,3.0294,2.9313,2.8164,2.684,2.5333,2.3417,2.2543,2.1803,2.1362,2.1348,2.1853,2.2668,2.3775,2.5178,2.652,2.7864,2.8897,2.9922,3.0157,3.0039,2.9863,2.9745,2.9135,2.8241,2.69,2.5546,2.427,2.3604,2.4332,2.5317,2.6719,2.7882,2.8677,2.9094,2.9253,2.9194,2.8975,2.8916,2.4495,2.497,2.5375,2.5375,2.5022,2.4563,2.4317,2.4285,2.4908,2.5812,2.6777,2.7781,2.8174,2.787,2.6855,2.6068,2.5434,2.4503,2.418,2.4328,2.3894,2.3999,2.4322,2.5134,2.6197,2.7515,2.8474,2.9263,2.9596,2.9559,2.9591,2.9667,2.9863,3.0157,3.0509,3.0762,3.0898,3.0898,3.0898,3.0898,3.0898,3.0898,3.0898,3.0898,3.0898,3.0898,3.0898,3.0898,3.0898,3.0898,3.0898,3.0898,3.0898,3.0898,3.0898,3.0898,3.0898,3.0898,3.0898,3.0898,3.0898,3.0898,3.0898,3.0898,3.0898,3.0898,3.0898,3.0898,3.0898,3.0898,3.0898,3.0898,3.0898,3.0898,3.0898,3.0898,3.0762,3.0098,2.9194,2.8343,2.6598,2.501,2.3666,2.2543,2.1677,2.1235,2.1235,2.1551,2.2355,2.2981,2.4209,2.5973,2.7323,2.8343,2.9135,2.9431,2.9509,2.9272,2.8975,2.848,2.7323,2.5928,2.4517,2.3043,2.2918,2.3355,2.4702,2.6095,2.7082,2.8002,2.8618,2.8838,2.8421,2.814,2.814,2.3884,2.4088,2.4428,2.436,2.4088,2.402,2.4102,2.4331,2.51,2.6258,2.7393,2.8123,2.8409,2.8199,2.6776,2.5758,2.4945,2.382,2.3378,2.3488,2.3229,2.3181,2.3585,2.4381,2.5527,2.6695,2.779,2.8407,2.8756,2.8799,2.881,2.9034,2.9227,2.9627,3.0216,3.0509,3.0762,3.0898,3.0898,3.0898,3.0898,3.0898,3.0898,3.0898,3.0898,3.0898,3.0898,3.0898,3.0898,3.0898,3.0898,3.0898,3.0898,3.0898,3.0898,3.0898,3.0898,3.0898,3.0898,3.0898,3.0898,3.0898,3.0898,3.0898,3.0898,3.0898,3.0898,3.0898,3.0898,3.0898,3.0898,3.0898,3.0898,3.0898,3.0898,3.0898,3.0898,3.0274,2.9431,2.8403,2.7021,2.5256,2.3852,2.2668,2.1866,2.1299,2.1109,2.1475,2.2041,2.248,2.3278,2.5056,2.6277,2.7125,2.7864,2.8301,2.8283,2.8122,2.7263,2.7021,2.6355,2.4964,2.3852,2.2731,2.2418,2.2606,2.3961,2.5178,2.6156,2.7082,2.7882,2.8259,2.796,2.7539,2.7539,2.3338,2.3406,2.3747,2.3679,2.3475,2.3747,2.4156,2.4699,2.5749,2.7203,2.8526,2.8839,2.9017,2.9168,2.7042,2.5682,2.4887,2.357,2.3038,2.2996,2.2861,2.2849,2.2882,2.3765,2.4734,2.5745,2.6584,2.7319,2.7744,2.7662,2.7796,2.8132,2.8335,2.8893,2.9568,3.0098,3.0509,3.0762,3.0879,3.0898,3.0898,3.0898,3.0898,3.0898,3.0898,3.0898,3.0898,3.0898,3.0898,3.0898,3.0898,3.0898,3.0898,3.0898,3.0898,3.0898,3.0898,3.0898,3.0898,3.0898,3.0898,3.0898,3.0898,3.0898,3.0898,3.0898,3.0898,3.0898,3.0898,3.0898,3.0898,3.0898,3.0898,3.0898,3.0898,3.0898,3.082,3.0567,2.9922,2.8719,2.7624,2.5989,2.4332,2.2981,2.223,2.1235,2.1109,2.1362,2.1727,2.2041,2.2856,2.4085,2.4994,2.5668,2.6415,2.7039,2.6961,2.6719,2.5439,2.4887,2.5071,2.4085,2.323,2.248,2.2118,2.223,2.3043,2.4209,2.524,2.6233,2.7159,2.7539,2.7659,2.7297,2.7116,2.2996,2.2996,2.3133,2.3065,2.3065,2.3406,2.402,2.497,2.6368,2.7766,2.8971,2.943,2.943,2.9168,2.7102,2.5697,2.4902,2.3611,2.2928,2.2859,2.2859,2.2887,2.293,2.3579,2.452,2.5441,2.6004,2.654,2.676,2.6842,2.6902,2.7052,2.7501,2.8043,2.8773,2.9587,3.0157,3.0509,3.0762,3.0879,3.0898,3.0898,3.0898,3.0898,3.0898,3.0898,3.0898,3.0898,3.0898,3.0898,3.0898,3.0898,3.0898,3.0898,3.0898,3.0898,3.0898,3.0898,3.0898,3.0898,3.0898,3.0898,3.0898,3.0898,3.0898,3.0898,3.0898,3.0898,3.0898,3.0898,3.0898,3.0898,3.0898,3.0898,3.0898,3.0898,3.084,3.0587,2.9981,2.8975,2.7744,2.6216,2.427,2.3168,2.2292,2.1348,2.1172,2.1299,2.1425,2.1664,2.2355,2.3278,2.3837,2.4517,2.5194,2.5684,2.5439,2.5194,2.4023,2.3168,2.334,2.3293,2.2418,2.1992,2.174,2.2104,2.2543,2.334,2.4502,2.5439,2.6371,2.6857,2.7056,2.6813,2.6753,2.2859,2.2859,2.2859,2.2859,2.2996,2.3475,2.4156,2.5172,2.6584,2.7915,2.8905,2.943,2.9364,2.8905,2.7169,2.5846,2.4834,2.3543,2.2859,2.2859,2.2859,2.2859,2.2928,2.327,2.3952,2.482,2.5158,2.5524,2.5722,2.5738,2.5739,2.6088,2.6417,2.7131,2.8008,2.8828,2.9509,3.0098,3.0509,3.0762,3.0898,3.0898,3.0898,3.0898,3.0898,3.0898,3.0898,3.0898,3.0898,3.0898,3.0898,3.0898,3.0898,3.0898,3.0898,3.0898,3.0898,3.0898,3.0898,3.0898,3.0898,3.0898,3.0898,3.0898,3.0898,3.0898,3.0898,3.0898,3.0898,3.0898,3.0898,3.0898,3.0898,3.0898,3.0762,3.0704,3.0626,3.0509,3.0039,2.9035,2.7822,2.6156,2.4625,2.3278,2.223,2.1299,2.1109,2.1172,2.1172,2.1411,2.1677,2.2355,2.2793,2.334,2.4038,2.4224,2.3976,2.3527,2.2793,2.223,2.2104,2.1915,2.1677,2.1551,2.1488,2.1614,2.2041,2.2904,2.3651,2.4579,2.5378,2.6128,2.6614,2.6796,2.6753,2.2859,2.2859,2.2859,2.2859,2.2996,2.3693,2.4374,2.5172,2.6517,2.7783,2.8642,2.9036,2.8971,2.8362,2.7169,2.5913,2.4631,2.3611,2.2859,2.2859,2.2859,2.2859,2.2928,2.2996,2.327,2.383,2.4224,2.4535,2.4733,2.464,2.4864,2.5242,2.5448,2.6117,2.712,2.8043,2.881,2.9527,3.0098,3.045,3.0762,3.084,3.0898,3.0898,3.0898,3.0898,3.0898,3.0898,3.0898,3.0898,3.0898,3.0898,3.0898,3.0898,3.0898,3.0898,3.0898,3.0898,3.0898,3.0898,3.0898,3.0898,3.0898,3.0898,3.0898,3.0898,3.0898,3.0898,3.0898,3.0898,3.0898,3.0898,3.0898,3.084,3.0587,3.0392,3.0274,3.0216,2.9549,2.8856,2.7564,2.6034,2.4502,2.3168,2.2167,2.1362,2.1235,2.1109,2.1109,2.1172,2.1488,2.1677,2.2167,2.2543,2.3106,2.3168,2.2793,2.2543,2.1853,2.1614,2.1299,2.1299,2.1362,2.1362,2.1425,2.1488,2.1601,2.2104,2.2904,2.3698,2.4456,2.5194,2.5945,2.6736,2.6813,2.2859,2.2859,2.2859,2.2859,2.2996,2.3679,2.4374,2.5172,2.6517,2.7584,2.8246,2.8642,2.8444,2.77,2.6702,2.5292,2.402,2.3201,2.2859,2.2859,2.2859,2.2859,2.2859,2.2859,2.2996,2.3133,2.3475,2.3816,2.4088,2.4167,2.4132,2.4384,2.4803,2.5427,2.6086,2.6991,2.7982,2.875,2.9527,3.0039,3.047,3.0762,3.0898,3.0898,3.0898,3.0898,3.0898,3.0898,3.0898,3.0898,3.0898,3.0898,3.0898,3.0898,3.0898,3.0898,3.0898,3.0898,3.0898,3.0898,3.0898,3.0898,3.0898,3.0898,3.0898,3.0898,3.0898,3.0898,3.0898,3.0898,3.0898,3.0898,3.0898,3.082,3.0587,3.0255,2.9922,2.9313,2.8659,2.8002,2.6961,2.5912,2.427,2.2981,2.2041,2.1425,2.1172,2.1109,2.1109,2.1172,2.1299,2.1488,2.1677,2.1915,2.223,2.2104,2.1929,2.1915,2.1488,2.1348,2.1172,2.1109,2.1172,2.1235,2.1235,2.1299,2.1425,2.1601,2.2041,2.2841,2.3589,2.4286,2.5256,2.625,2.6813,2.2859,2.2859,2.2859,2.2859,2.2996,2.3475,2.3952,2.4631,2.5831,2.6635,2.7169,2.765,2.7716,2.7118,2.6501,2.5225,2.3952,2.3133,2.2928,2.2859,2.2859,2.2859,2.2859,2.2859,2.2859,2.2928,2.3065,2.327,2.3406,2.3406,2.3515,2.3728,2.4056,2.4496,2.5206,2.6007,2.7041,2.7904,2.8786,2.9509,3.0157,3.0587,3.0898,3.0898,3.0898,3.0898,3.0898,3.0898,3.0898,3.0898,3.0898,3.0898,3.0898,3.0898,3.0898,3.0898,3.0898,3.0898,3.0898,3.0898,3.0898,3.0898,3.0898,3.0898,3.0898,3.0898,3.0898,3.0898,3.0898,3.0898,3.0898,3.0918,3.0898,3.082,3.047,3.0039,2.949,2.8462,2.7684,2.6978,2.5928,2.481,2.3775,2.2606,2.1853,2.1425,2.1172,2.1109,2.1109,2.1109,2.1172,2.1299,2.1425,2.1488,2.1664,2.1551,2.1425,2.1362,2.1299,2.1172,2.1109,2.1109,2.1109,2.1109,2.1172,2.1235,2.1235,2.1362,2.1677,2.2055,2.2731,2.3589,2.4764,2.5623,2.625,2.2859,2.2859,2.2859,2.2859,2.2928,2.327,2.3611,2.402,2.497,2.5562,2.5846,2.6383,2.6517,2.6182,2.5644,2.482,2.3816,2.3133,2.2928,2.2859,2.2859,2.2859,2.2859,2.2859,2.2859,2.2859,2.2928,2.2859,2.2996,2.2996,2.3065,2.3324,2.3321,2.3718,2.462,2.5221,2.6134,2.703,2.8018,2.8906,2.9882,3.0528,3.0898,3.0898,3.0898,3.0898,3.0898,3.0898,3.0898,3.0898,3.0898,3.0898,3.0898,3.0898,3.0898,3.0898,3.0898,3.0898,3.0898,3.0898,3.0898,3.0898,3.0898,3.0898,3.0898,3.0898,3.0918,3.0976,3.1035,3.1152,3.125,3.1191,3.1133,3.0918,3.0546,2.9898,2.9153,2.8164,2.684,2.5928,2.4887,2.3899,2.2918,2.2355,2.1677,2.1362,2.1109,2.1109,2.1109,2.1109,2.1109,2.1109,2.1172,2.1172,2.1222,2.1285,2.1235,2.1235,2.1172,2.1109,2.1109,2.1109,2.1122,2.1149,2.1299,2.1362,2.1235,2.1312,2.174,2.2041,2.2292,2.2981,2.4085,2.5071,2.5823,2.2859,2.2873,2.2873,2.2859,2.2954,2.3311,2.342,2.357,2.4349,2.4631,2.4853,2.5134,2.5163,2.4839,2.4212,2.3707,2.3434,2.3187,2.2926,2.2926,2.2886,2.2859,2.2859,2.2859,2.2859,2.2859,2.2859,2.2859,2.2859,2.2859,2.2928,2.3038,2.327,2.3499,2.3866,2.4525,2.5402,2.6312,2.7458,2.8823,3.0116,3.0665,3.0898,3.0898,3.0898,3.0898,3.0898,3.0898,3.0898,3.0898,3.0898,3.0898,3.0898,3.0898,3.0898,3.0898,3.0898,3.0898,3.0937,3.1035,3.1055,3.1074,3.1016,3.0918,3.1035,3.1055,3.1172,3.1426,3.1445,3.1503,3.1737,3.1953,3.1797,3.1403,3.095,3.0143,2.9241,2.8204,2.6793,2.5133,2.4147,2.3216,2.2292,2.1853,2.1488,2.1299,2.1109,2.1109,2.1109,2.1109,2.1109,2.1109,2.1109,2.1109,2.1109,2.1109,2.1176,2.1162,2.1176,2.1189,2.1296,2.1336,2.1216,2.1293,2.1457,2.1674,2.1729,2.1842,2.1971,2.2041,2.223,2.2731,2.3479,2.4409,2.521,2.338,2.338,2.338,2.338,2.345,2.3577,2.366,2.373,2.4149,2.4358,2.4414,2.4748,2.4817,2.4511,2.4136,2.394,2.3829,2.3332,2.3126,2.306,2.2979,2.2886,2.2859,2.2859,2.2859,2.2886,2.2859,2.2859,2.2859,2.2859,2.2859,2.2928,2.3065,2.3215,2.3363,2.3827,2.4745,2.5908,2.7491,2.9004,3.0024,3.0624,3.0898,3.0918,3.0918,3.0918,3.0918,3.0898,3.0898,3.0898,3.0898,3.0898,3.0898,3.0918,3.0976,3.125,3.125,3.125,3.1269,3.1465,3.1523,3.1582,3.1601,3.166,3.1621,3.1601,3.1621,3.1855,3.1894,3.1951,3.1886,3.1844,3.1645,3.1389,3.115,3.026,2.9252,2.8174,2.6901,2.5153,2.3509,2.2769,2.2054,2.166,2.1407,2.1289,2.1162,2.1176,2.1136,2.1109,2.1109,2.1109,2.1109,2.1109,2.1109,2.1109,2.1296,2.1336,2.1416,2.1456,2.1617,2.163,2.1523,2.173,2.2097,2.2277,2.2259,2.2271,2.2307,2.2174,2.2104,2.2663,2.3208,2.3696,2.4672,2.3995,2.3981,2.3834,2.3781,2.3781,2.3781,2.3839,2.3839,2.4025,2.4181,2.4266,2.4437,2.4508,2.4522,2.4211,2.4056,2.4083,2.3682,2.346,2.334,2.3233,2.314,2.3126,2.3086,2.3006,2.2979,2.2899,2.2873,2.2859,2.2859,2.2859,2.2859,2.2928,2.3051,2.3202,2.3539,2.4242,2.5993,2.7824,2.9215,3.0134,3.0811,3.1111,3.123,3.1191,3.1152,3.1055,3.1055,3.1074,3.0898,3.1055,3.1113,3.1113,3.1269,3.1426,3.168,3.1777,3.1894,3.1914,3.2012,3.2148,3.2229,3.2229,3.2111,3.215,3.2168,3.2266,3.2305,3.2202,3.2057,3.1907,3.1779,3.1456,3.1232,3.0996,3.0119,2.9223,2.8209,2.6898,2.5077,2.3608,2.2659,2.2034,2.1595,2.1336,2.1256,2.1229,2.1243,2.1269,2.1283,2.1336,2.1403,2.1416,2.143,2.1403,2.1403,2.151,2.155,2.1695,2.1775,2.1857,2.1897,2.183,2.2173,2.261,2.2566,2.2415,2.2488,2.261,2.2773,2.2893,2.2624,2.2884,2.3377,2.4237,2.4583,2.4529,2.4008,2.3808,2.3808,2.3781,2.3794,2.3848,2.3879,2.3892,2.4004,2.395,2.4062,2.3964,2.4018,2.4004,2.3879,2.3825,2.3741,2.3741,2.3714,2.3621,2.3541,2.3394,2.3287,2.3247,2.3073,2.2926,2.2873,2.2873,2.2873,2.2859,2.2859,2.2928,2.3119,2.346,2.4468,2.6114,2.7841,2.9242,3.0328,3.1081,3.1609,3.1932,3.2012,3.1894,3.1504,3.1484,3.1367,3.1094,3.1328,3.1465,3.1523,3.1719,3.1934,3.2109,3.2363,3.25,3.2578,3.2441,3.2226,3.2268,3.2246,3.2344,3.2402,3.2246,3.2363,3.2633,3.2568,3.2286,3.2163,3.2016,3.1273,3.0701,3.0221,2.9645,2.8839,2.8152,2.6773,2.5046,2.3731,2.2841,2.2165,2.1735,2.1617,2.1537,2.1523,2.155,2.1683,2.1724,2.1777,2.183,2.1857,2.1871,2.1884,2.1884,2.1817,2.1857,2.1937,2.1991,2.2058,2.2071,2.2191,2.2297,2.2617,2.2561,2.269,2.3014,2.3298,2.3623,2.3551,2.2885,2.3028,2.3637,2.4495,2.4636,2.4609,2.4382,2.4302,2.4302,2.4302,2.4302,2.4302,2.4302,2.4302,2.4289,2.4302,2.4302,2.4289,2.4302,2.4302,2.4275,2.4088,2.4062,2.3955,2.3888,2.3794,2.3714,2.3701,2.3594,2.3527,2.33,2.3153,2.3153,2.302,2.2886,2.2859,2.2886,2.2859,2.3065,2.3611,2.4747,2.5968,2.7475,2.887,2.9987,3.0897,3.1478,3.1783,3.2107,3.2109,3.1934,3.1914,3.1816,3.1758,3.1836,3.1894,3.1934,3.2148,3.2324,3.2519,3.2754,3.291,3.3105,3.2988,3.2949,3.293,3.2949,3.291,3.2851,3.291,3.2988,3.3019,3.2787,3.2441,3.1753,3.1212,3.0524,2.9936,2.9344,2.8785,2.8216,2.752,2.6503,2.4654,2.3818,2.3023,2.2449,2.2016,2.1884,2.1909,2.1844,2.1871,2.2004,2.2084,2.2124,2.2138,2.2151,2.2111,2.2111,2.2084,2.2071,2.2164,2.2258,2.2298,2.2352,2.2525,2.2673,2.266,2.2674,2.2862,2.3144,2.3655,2.3837,2.3676,2.3309,2.2762,2.3148,2.3752,2.4524,2.4636,2.4636,2.4636,2.4636,2.4636,2.4636,2.4636,2.4636,2.4623,2.4636,2.4636,2.4636,2.4636,2.4636,2.4623,2.4536,2.4543,2.4422,2.4356,2.4275,2.4168,2.4035,2.4008,2.3955,2.3888,2.3821,2.3621,2.346,2.3447,2.3233,2.314,2.3073,2.2993,2.2979,2.3065,2.3747,2.4563,2.5569,2.683,2.8435,2.9608,3.0717,3.1569,3.198,3.2432,3.25,3.2422,3.2344,3.2246,3.2207,3.2246,3.2344,3.2402,3.25,3.2695,3.2871,3.3008,3.3144,3.332,3.3418,3.3418,3.3301,3.334,3.3359,3.3418,3.3355,3.3277,3.3107,3.2829,3.2147,3.112,3.0195,2.9199,2.8393,2.8065,2.7539,2.708,2.6393,2.551,2.4312,2.3695,2.3178,2.2859,2.2352,2.2231,2.2231,2.2365,2.2311,2.2365,2.2418,2.2459,2.2392,2.2378,2.2325,2.2271,2.2352,2.2432,2.2485,2.2565,2.2619,2.278,2.2846,2.2859,2.2807,2.293,2.3174,2.3284,2.3392,2.3428,2.3434,2.3043,2.2748,2.2932,2.3483,2.3941,2.4636,2.4636,2.4636,2.4636,2.4636,2.4636,2.4636,2.4636,2.4636,2.4636,2.4636,2.4636,2.4636,2.4636,2.4636,2.4636,2.4636,2.4596,2.4569,2.4529,2.4489,2.4543,2.4462,2.4329,2.4195,2.4115,2.3928,2.3768,2.3754,2.3621,2.35,2.3354,2.326,2.3126,2.2954,2.327,2.3952,2.5037,2.6121,2.7751,2.9309,3.0617,3.1604,3.2365,3.2932,3.3008,3.2851,3.2793,3.2656,3.25,3.2676,3.2773,3.2793,3.3066,3.3242,3.3301,3.334,3.3379,3.3355,3.3355,3.3292,3.3165,3.3102,3.3165,3.3292,3.3292,3.3165,3.2785,3.2275,3.1295,3.013,2.8888,2.7883,2.7035,2.6702,2.6285,2.5807,2.5643,2.4803,2.4142,2.3676,2.3297,2.3024,2.2779,2.2619,2.2605,2.2726,2.282,2.2712,2.2672,2.2686,2.2673,2.2592,2.2592,2.2579,2.2712,2.2806,2.2901,2.2887,2.2874,2.2887,2.2846,2.2928,2.2941,2.2928,2.3065,2.2996,2.2914,2.3107,2.324,2.3104,2.2969,2.3022,2.3209,2.3676,2.4636,2.4636,2.4636,2.4636,2.4636,2.4636,2.4636,2.4636,2.4636,2.4636,2.4636,2.4636,2.4636,2.4636,2.4636,2.4636,2.4636,2.4636,2.4636,2.4636,2.4636,2.4623,2.4583,2.4529,2.4476,2.4409,2.4222,2.4062,2.4048,2.3941,2.3781,2.3621,2.3434,2.3166,2.3077,2.3201,2.3747,2.4495,2.5629,2.7035,2.8427,3.0065,3.1442,3.2275,3.2975,3.3257,3.3184,3.3164,3.3047,3.291,3.3125,3.3144,3.3164,3.3398,3.3398,3.3418,3.3355,3.3292,3.3102,3.2848,3.2594,3.253,3.253,3.2594,3.2466,3.2657,3.253,3.2128,3.157,3.052,2.9347,2.7883,2.682,2.5846,2.5375,2.5037,2.467,2.4738,2.4424,2.3868,2.3406,2.3201,2.2996,2.2928,2.2766,2.2726,2.2806,2.2832,2.2792,2.2806,2.2779,2.2779,2.2792,2.2819,2.2859,2.2859,2.2859,2.2846,2.2846,2.2846,2.2859,2.2859,2.2859,2.2928,2.2859,2.2859,2.2859,2.2928,2.2996,2.3065,2.2957,2.293,2.2984,2.3147,2.3459,2.4636,2.4636,2.4636,2.4636,2.4636,2.4636,2.4636,2.4636,2.4636,2.4636,2.4636,2.4636,2.4636,2.4636,2.4636,2.4636,2.4636,2.4636,2.4636,2.4636,2.4636,2.4636,2.4636,2.4636,2.4596,2.4569,2.4489,2.4356,2.4356,2.4168,2.4035,2.3888,2.3634,2.3447,2.3276,2.3336,2.3406,2.4088,2.509,2.6301,2.7833,2.9413,3.1037,3.1937,3.2765,3.3398,3.3418,3.3418,3.3418,3.3355,3.3355,3.3355,3.3355,3.3355,3.3418,3.3418,3.3228,3.2975,3.2594,3.1873,3.1295,3.0567,3.1295,3.1699,3.157,3.1699,3.1552,3.123,3.0732,2.9543,2.823,2.6804,2.5749,2.4766,2.4224,2.3952,2.3816,2.3952,2.3884,2.3406,2.327,2.3065,2.2928,2.2928,2.2832,2.2846,2.2859,2.2859,2.2859,2.2859,2.2859,2.2859,2.2859,2.2859,2.2859,2.2859,2.2859,2.2859,2.2859,2.2859,2.2859,2.2859,2.2859,2.2859,2.2859,2.2859,2.2859,2.2928,2.2928,2.2928,2.2901,2.2887,2.2859,2.3065,2.327,2.4636,2.4636,2.4636,2.4636,2.4636,2.4636,2.4636,2.4636,2.4636,2.4636,2.4636,2.4636,2.4636,2.4636,2.4636,2.4636,2.4636,2.4636,2.4636,2.4636,2.4636,2.4636,2.4636,2.4636,2.4636,2.4636,2.4583,2.4543,2.4536,2.4502,2.4369,2.4195,2.3928,2.3768,2.3638,2.3453,2.3322,2.3749,2.466,2.5861,2.7153,2.9199,3.0714,3.1809,3.2785,3.3292,3.3418,3.3418,3.3355,3.3355,3.3355,3.3355,3.3355,3.3374,3.3355,3.3292,3.3038,3.253,3.1827,3.0972,2.9787,2.9068,2.9722,3.0325,3.0602,3.052,3.052,3.013,2.9543,2.8279,2.6953,2.5816,2.4684,2.402,2.3338,2.3133,2.3065,2.3065,2.3065,2.2928,2.2996,2.2928,2.2928,2.2859,2.2859,2.2859,2.2859,2.2859,2.2859,2.2859,2.2859,2.2859,2.2859,2.2859,2.2859,2.2859,2.2859,2.2859,2.2859,2.2859,2.2859,2.2859,2.2859,2.2859,2.2859,2.2859,2.2859,2.2859,2.2928,2.2859,2.2859,2.2859,2.2859,2.2859,2.2996,2.4636,2.4636,2.4636,2.4636,2.4636,2.4636,2.4636,2.4636,2.4636,2.4636,2.4636,2.4636,2.4636,2.4636,2.4636,2.4636,2.4636,2.4636,2.4636,2.4636,2.4636,2.4636,2.4636,2.4636,2.4636,2.4636,2.4636,2.4636,2.4623,2.4636,2.4549,2.4476,2.4209,2.4102,2.3955,2.3701,2.3517,2.3693,2.4573,2.5531,2.7,2.9053,3.0473,3.1635,3.2785,3.3292,3.3418,3.3418,3.3292,3.3102,3.3038,3.2975,3.274,3.2931,3.3058,3.2975,3.2657,3.2147,3.1249,3.0195,2.8937,2.77,2.7833,2.8097,2.8493,2.902,2.9282,2.902,2.8427,2.7219,2.6151,2.509,2.4156,2.3543,2.3065,2.2928,2.2859,2.2859,2.2859,2.2859,2.2859,2.2859,2.2859,2.2859,2.2859,2.2859,2.2859,2.2859,2.2859,2.2859,2.2859,2.2859,2.2859,2.2859,2.2859,2.2859,2.2859,2.2859,2.2859,2.2859,2.2859,2.2859,2.2859,2.2859,2.2859,2.2859,2.2859,2.2859,2.2859,2.2859,2.2859,2.2859,2.2859,2.2859,2.2859,2.4636,2.4636,2.4636,2.4636,2.4636,2.4636,2.4636,2.4636,2.4636,2.4636,2.4636,2.4636,2.4636,2.4636,2.4636,2.4636,2.4636,2.4636,2.4636,2.4636,2.4663,2.4636,2.4636,2.4649,2.4636,2.4636,2.4636,2.4636,2.4636,2.4636,2.4549,2.4536,2.4422,2.4396,2.4289,2.4075,2.3861,2.4129,2.4749,2.5594,2.7087,2.8942,3.0467,3.1561,3.2759,3.3267,3.3374,3.3374,3.3228,3.2975,3.2912,3.274,3.2485,3.2613,3.2613,3.2466,3.1955,3.1249,3.026,2.8871,2.7684,2.6718,2.613,2.6115,2.6718,2.7368,2.7849,2.7981,2.7235,2.6368,2.5427,2.4495,2.3884,2.3201,2.3065,2.2928,2.2859,2.2859,2.2859,2.2859,2.2859,2.2859,2.2859,2.2859,2.2859,2.2859,2.2859,2.2859,2.2859,2.2859,2.2859,2.2859,2.2859,2.2859,2.2859,2.2859,2.2859,2.2859,2.2859,2.2859,2.2859,2.2859,2.2859,2.2859,2.2859,2.2859,2.2859,2.2859,2.2859,2.2859,2.2859,2.2859,2.2859,2.2859,2.2859,2.4636,2.4636,2.4663,2.469,2.4676,2.4655,2.4743,2.4703,2.4756,2.469,2.4649,2.4636,2.4636,2.4636,2.4636,2.4676,2.4716,2.4743,2.481,2.4703,2.4836,2.4823,2.4743,2.4676,2.4703,2.4663,2.4636,2.4636,2.4636,2.4636,2.4636,2.4636,2.4609,2.4569,2.4516,2.4356,2.4195,2.4345,2.5186,2.6224,2.7205,2.9027,3.1067,3.1598,3.2637,3.3511,3.3452,3.335,3.3267,3.2994,3.2721,3.2594,3.2294,3.2083,3.1955,3.157,3.0991,3.0088,2.899,2.7696,2.6454,2.5508,2.4785,2.5023,2.5778,2.6501,2.7091,2.719,2.6614,2.6027,2.5168,2.4357,2.3665,2.3388,2.3249,2.318,2.318,2.3166,2.3126,2.31,2.3033,2.3006,2.2859,2.2859,2.2859,2.2859,2.2859,2.2859,2.2886,2.2886,2.2886,2.2886,2.2859,2.2859,2.2859,2.2859,2.2859,2.2859,2.2859,2.2859,2.2859,2.2859,2.2859,2.2859,2.2859,2.2859,2.2859,2.2859,2.2859,2.2859,2.2859,2.2859,2.2859,2.2859,2.2859,2.4636,2.4663,2.4877,2.497,2.501,2.5211,2.5291,2.5304,2.5304,2.505,2.4703,2.4649,2.4663,2.4716,2.4642,2.4796,2.4943,2.4983,2.5117,2.5197,2.5237,2.509,2.501,2.4957,2.485,2.469,2.4636,2.4636,2.4636,2.4636,2.4636,2.4636,2.4636,2.4636,2.4636,2.4489,2.4489,2.4536,2.5606,2.644,2.7231,2.9187,3.1149,3.2059,3.303,3.3669,3.3701,3.3778,3.3264,3.2753,3.2294,3.1827,3.1331,3.0991,3.0667,3.0278,2.9713,2.8843,2.7839,2.6701,2.5751,2.5236,2.4959,2.5127,2.5502,2.6016,2.6353,2.6383,2.6169,2.5582,2.4959,2.426,2.3628,2.3571,2.35,2.35,2.3571,2.346,2.3407,2.3327,2.3233,2.3113,2.2979,2.2899,2.2859,2.2859,2.2859,2.2873,2.2926,2.2939,2.2953,2.2939,2.2873,2.2859,2.2859,2.2859,2.2859,2.2859,2.2859,2.2859,2.2859,2.2859,2.2859,2.2859,2.2859,2.2859,2.2859,2.2859,2.2859,2.2859,2.2859,2.2859,2.2859,2.2859,2.2859,2.4716,2.4863,2.5144,2.5264,2.5304,2.5451,2.5518,2.5518,2.5518,2.5344,2.505,2.5024,2.5024,2.5024,2.4949,2.5064,2.5251,2.5277,2.5331,2.5464,2.5545,2.5398,2.5317,2.5264,2.5077,2.489,2.469,2.4636,2.4649,2.4636,2.4636,2.4636,2.4636,2.4636,2.4636,2.4636,2.4636,2.4623,2.5814,2.6518,2.7191,2.9216,3.0958,3.194,3.2933,3.3614,3.4035,3.4095,3.3765,3.2822,3.2125,3.115,3.0561,3.0101,2.9575,2.9094,2.8505,2.7725,2.6771,2.5908,2.5268,2.4932,2.4762,2.4763,2.4848,2.5408,2.5926,2.5956,2.5798,2.5326,2.4778,2.4001,2.3803,2.3732,2.3661,2.3661,2.3661,2.3647,2.3607,2.3581,2.3514,2.35,2.3394,2.3394,2.3354,2.3354,2.3287,2.3233,2.322,2.31,2.3073,2.3046,2.302,2.2913,2.2859,2.2859,2.2859,2.2859,2.2859,2.2859,2.2859,2.2859,2.2859,2.2859,2.2859,2.2859,2.2859,2.2859,2.2859,2.2859,2.2859,2.2859,2.2859,2.2859,2.2859,2.4877,2.5157,2.5451,2.5571,2.5571,2.5625,2.5651,2.5651,2.5638,2.5638,2.5625,2.5625,2.5598,2.5518,2.5518,2.5545,2.5558,2.5571,2.5598,2.5678,2.5692,2.5665,2.5625,2.5545,2.5371,2.513,2.489,2.4783,2.4743,2.469,2.4636,2.4636,2.4636,2.4636,2.4636,2.4636,2.4636,2.4857,2.552,2.6312,2.753,2.9035,3.0371,3.1643,3.2716,3.3652,3.4098,3.4343,3.4258,3.3039,3.1673,3.0435,2.9513,2.8908,2.8345,2.7789,2.7354,2.6683,2.5906,2.5286,2.4775,2.4473,2.4361,2.446,2.4586,2.4971,2.557,2.5556,2.5399,2.5158,2.4616,2.4188,2.4044,2.3915,2.3915,2.3901,2.3901,2.3901,2.3875,2.3861,2.3821,2.3808,2.3768,2.3768,2.3781,2.3781,2.3794,2.3781,2.3701,2.35,2.338,2.334,2.33,2.3153,2.2939,2.2913,2.2926,2.2859,2.2859,2.2859,2.2859,2.2859,2.2859,2.2859,2.2859,2.2859,2.2859,2.2859,2.2859,2.2859,2.2859,2.2859,2.2859,2.2859,2.2859,2.517,2.5451,2.5745,2.5865,2.5905,2.6106,2.6226,2.6226,2.6199,2.6226,2.6172,2.6159,2.5999,2.5518,2.5518,2.5611,2.5865,2.5879,2.6052,2.6199,2.6106,2.6012,2.5919,2.5798,2.5665,2.5424,2.5157,2.5024,2.497,2.4796,2.4649,2.4663,2.4663,2.4649,2.4636,2.4636,2.4636,2.4857,2.5079,2.574,2.6663,2.8167,3.0042,3.1337,3.2505,3.3221,3.3872,3.4452,3.4022,3.2862,3.102,2.9545,2.8519,2.7692,2.7022,2.6653,2.629,2.5811,2.5184,2.4881,2.4575,2.4534,2.462,2.4866,2.4966,2.5198,2.543,2.5285,2.517,2.517,2.4747,2.4528,2.4382,2.4382,2.4382,2.4382,2.4382,2.4342,2.4315,2.4222,2.4115,2.4022,2.3875,2.3875,2.3888,2.3888,2.3901,2.3901,2.3928,2.3808,2.3688,2.3634,2.3581,2.326,2.2979,2.3075,2.3075,2.2926,2.2873,2.2913,2.2899,2.2873,2.2859,2.2859,2.2859,2.2859,2.2859,2.2859,2.2859,2.2859,2.2859,2.2859,2.2859,2.2859,2.2859]}]]